GFSWCAN_250_spd_000.txt.gz
Wind_Speed
78 76 76 67 60 51 42 35 22 14 10 11 22 26 32 34 43 55 66 69 67 62 57 50 44 42 37 32 30 27 26 24 22 22 22 24 22 20 19 22 16 23 35 41 33 33 39 33 24 27 21 32 32 40
76 75 73 64 58 50 41 33 21 11 12 15 24 30 35 39 50 62 71 69 66 62 56 49 46 47 41 35 30 29 27 26 23 20 21 22 20 18 17 19 19 19 28 33 33 30 28 28 30 31 31 30 36 42
72 73 71 64 55 49 41 31 20 10 14 18 27 34 38 47 54 67 70 69 65 60 55 51 49 49 44 34 30 30 28 28 25 21 21 19 19 17 18 21 24 27 26 25 25 23 22 24 25 27 29 33 38 42
70 72 70 62 52 47 39 29 20 10 16 23 33 36 41 51 62 71 71 68 64 59 56 52 50 52 45 35 30 30 29 30 25 21 23 21 19 17 19 21 25 26 26 25 22 21 23 24 24 27 29 34 40 42
67 70 68 61 51 45 37 28 20 12 18 26 35 38 46 55 67 72 72 70 65 59 55 53 52 51 45 40 35 31 28 29 27 22 20 24 20 16 16 20 25 24 25 23 23 24 22 21 22 24 29 35 40 43
65 68 67 60 51 43 36 26 19 14 19 28 36 39 44 58 69 74 75 70 66 63 58 54 50 48 47 43 38 33 30 27 24 26 26 26 23 20 16 13 16 16 17 16 21 22 21 20 18 20 22 26 31 37
62 65 65 60 50 42 35 25 18 16 20 29 36 38 47 61 71 75 75 73 67 63 58 55 49 46 46 44 41 35 29 28 24 23 27 27 27 26 23 20 19 17 17 18 18 16 15 16 17 18 19 21 24 26
59 62 62 58 51 42 34 25 16 15 19 30 36 39 46 60 73 77 78 73 69 64 61 56 52 44 43 45 43 38 33 32 29 25 23 25 24 25 23 24 22 21 20 17 16 15 15 15 16 17 18 19 21 24
58 60 60 56 51 42 34 25 16 13 19 30 37 42 50 62 76 79 78 75 71 64 58 55 53 49 42 40 44 44 38 38 36 32 27 25 27 25 22 22 22 19 19 18 17 16 16 17 17 17 17 20 24 27
58 59 58 54 47 44 34 26 16 13 17 31 40 45 51 68 80 82 82 78 72 65 60 54 48 49 47 42 37 33 41 42 37 34 32 31 31 27 26 25 26 25 23 22 21 21 19 18 20 22 24 26 29 32
57 57 56 52 44 39 37 25 19 13 16 29 41 47 54 70 81 86 84 78 72 65 59 55 51 47 46 45 42 37 33 36 39 39 38 40 39 33 31 31 30 29 29 28 28 28 29 27 29 29 30 31 33 35
56 57 55 51 42 35 31 26 23 15 16 26 40 47 55 66 76 80 80 79 73 66 63 61 58 52 49 47 45 40 34 33 29 27 37 51 48 43 42 42 40 39 38 36 35 34 33 34 35 35 35 37 38 38
54 56 55 50 41 34 28 24 20 18 17 26 39 47 51 57 68 71 71 75 70 65 66 65 62 61 58 53 49 44 38 32 31 33 38 37 23 35 53 52 50 49 47 44 42 40 39 40 40 41 41 42 41 40
52 54 56 51 41 34 27 21 19 18 18 25 34 42 47 49 52 63 68 73 74 75 77 74 70 68 64 57 50 46 43 41 41 44 45 33 28 24 21 35 55 54 52 50 47 45 43 43 43 44 45 44 44 40
50 52 55 52 43 34 28 21 17 16 16 22 25 33 41 43 47 64 75 80 83 85 81 78 75 72 68 60 55 50 48 45 48 48 40 35 29 25 26 26 28 35 46 51 50 49 49 48 48 48 47 47 44 38
49 51 54 51 48 37 31 23 18 15 15 18 23 29 33 44 48 64 79 84 88 90 88 85 79 73 68 62 62 58 51 54 57 48 42 37 34 31 29 29 29 28 32 38 44 46 46 46 46 46 46 41 38 37
46 49 53 51 47 41 33 26 20 17 16 15 23 28 34 42 45 61 80 86 92 92 89 86 82 78 73 68 64 58 60 65 56 51 46 41 39 38 36 34 32 30 28 28 30 34 37 38 38 38 36 36 38 40
45 48 51 52 45 43 37 29 23 18 18 18 24 28 35 41 47 58 76 86 90 92 91 89 88 82 77 72 67 66 65 62 56 54 51 47 45 45 43 40 37 35 33 31 28 27 28 29 31 33 36 39 42 45
44 48 52 53 46 40 37 31 24 22 21 22 26 33 40 45 49 55 68 78 87 91 92 92 88 83 81 79 76 72 71 66 60 58 56 52 50 50 49 47 44 41 39 38 36 35 35 36 38 40 43 46 48 51
44 47 52 52 46 40 32 31 24 22 23 25 29 37 43 48 53 56 62 72 82 87 90 90 88 88 87 84 81 79 76 71 67 63 61 59 58 57 55 52 51 50 48 46 45 45 45 46 48 49 51 53 55 58
44 49 52 52 49 41 32 29 27 24 24 27 32 39 45 51 56 61 64 68 74 76 84 89 93 94 90 88 84 83 82 78 75 72 69 66 65 64 62 60 59 57 56 56 55 54 54 55 56 57 58 60 63 66
46 50 54 55 50 46 37 28 29 27 27 29 33 39 45 53 58 63 66 70 71 74 78 85 90 93 94 92 89 87 86 84 81 79 77 75 74 72 70 68 67 66 65 65 64 64 64 65 65 66 66 67 70 73
47 52 55 56 52 47 40 32 30 32 31 30 34 40 45 51 58 63 69 67 67 72 76 79 83 88 92 94 93 92 90 88 87 85 85 83 82 81 80 78 77 75 75 74 73 73 73 74 74 75 74 76 80 80
50 56 56 56 53 47 41 35 31 34 35 33 34 39 45 50 55 63 66 67 67 66 71 76 78 80 84 89 93 95 94 92 91 90 89 88 88 88 86 85 83 82 81 81 82 81 82 82 81 81 83 86 87 88
56 57 57 56 51 44 41 37 31 33 36 36 34 37 43 49 53 57 62 66 67 68 72 74 76 78 80 82 85 89 92 96 96 95 92 91 90 91 91 90 89 87 87 88 89 89 88 86 87 89 88 88 89 90
58 59 59 55 50 43 39 37 33 33 33 35 35 35 39 44 50 52 58 65 68 70 72 74 76 78 80 84 86 87 88 90 91 93 93 93 95 96 97 96 95 93 93 94 95 93 90 90 90 91 91 91 92 91
62 61 59 54 47 39 39 38 34 33 32 33 34 35 37 39 45 50 54 61 67 69 72 74 77 78 79 81 83 86 88 90 91 91 90 90 91 92 92 92 93 91 90 91 88 87 88 89 89 88 87 85 84 82
62 62 60 53 47 41 41 40 35 31 31 32 33 33 36 37 42 47 52 55 61 67 68 75 77 77 76 77 80 82 83 85 87 90 91 91 90 90 90 90 90 90 87 85 83 82 82 81 80 80 81 81 82 82
64 61 55 49 44 41 41 40 35 31 31 31 31 31 32 35 39 45 49 53 56 62 70 72 73 73 75 78 79 80 81 82 83 85 86 86 85 84 84 83 83 82 81 80 79 78 79 79 79 79 79 78 77 77
60 56 51 47 44 42 41 40 34 31 30 30 29 30 30 32 35 42 47 51 54 59 63 67 69 69 73 76 78 79 80 81 83 84 83 84 84 84 83 82 82 82 81 81 80 79 78 77 77 77 76 75 74 73
54 51 49 47 46 43 40 39 35 31 29 29 29 28 29 31 34 38 44 47 51 54 59 60 58 65 70 73 75 75 77 78 79 81 81 82 82 83 83 83 83 83 82 81 81 80 79 79 78 79 78 77 75 73
50 49 49 47 44 40 38 38 35 30 27 26 28 28 29 30 32 36 39 43 47 49 52 54 55 59 65 68 69 68 69 71 73 76 78 79 80 81 81 81 81 81 81 81 81 80 79 79 78 76 75 73 72 70
49 48 47 43 40 36 34 35 33 30 25 24 26 28 28 29 31 33 35 38 41 43 45 46 48 52 55 58 60 62 64 65 66 68 70 71 73 74 75 76 76 77 78 78 77 77 77 76 75 73 71 69 66 61

GFSWCAN_250_spd_003.txt.gz
Wind_Speed
100 89 82 73 70 66 60 53 47 40 27 16 11 11 13 17 24 26 34 44 52 60 65 61 55 50 46 41 34 30 27 24 24 26 37 36 32 30 28 36 23 28 27 26 27 28 31 23 23 24 20 16 9 3
96 86 79 71 68 65 58 51 44 39 28 17 13 15 16 20 25 28 40 47 54 64 63 58 53 49 46 41 34 30 27 25 25 24 21 23 24 27 32 34 34 28 32 28 29 23 20 20 27 28 25 25 18 11
92 83 74 68 68 62 59 50 42 35 29 19 16 18 19 22 26 30 41 52 59 66 63 58 55 49 45 38 33 30 28 26 25 22 20 22 20 13 10 16 20 20 27 33 29 25 22 21 23 25 22 21 23 22
88 80 71 64 67 59 57 49 42 31 27 24 19 21 24 27 29 37 48 59 64 64 61 57 53 49 46 41 35 32 31 28 25 22 21 19 16 16 17 20 20 21 20 19 23 20 24 23 22 20 18 19 20 21
84 76 67 60 65 59 52 49 40 34 23 23 24 23 25 30 36 47 56 61 63 65 60 55 54 50 48 43 40 34 31 27 27 24 19 18 18 16 17 19 22 20 20 19 20 21 20 20 21 17 16 18 19 19
79 73 64 56 62 59 49 46 39 32 27 20 26 26 28 33 41 53 62 63 65 64 60 57 55 52 49 44 41 37 34 29 26 28 23 20 19 18 15 12 14 16 15 17 19 21 19 17 15 14 14 15 16 18
76 70 61 53 60 59 48 43 38 31 26 22 23 27 29 33 44 55 67 69 67 65 62 58 56 56 50 47 42 39 33 30 25 25 24 22 22 20 15 12 10 10 10 11 12 10 8 7 7 8 10 11 13 15
73 66 58 51 56 58 48 39 35 29 23 21 23 26 30 39 49 62 69 68 69 69 65 60 58 57 52 49 45 39 34 30 26 24 23 22 22 21 18 16 14 13 13 13 12 10 7 7 7 7 7 8 9 11
69 64 57 47 53 55 49 38 32 26 21 20 21 25 34 43 52 64 69 70 71 70 63 60 58 56 49 51 48 41 36 32 31 28 23 23 27 24 21 19 17 17 16 17 17 14 13 11 10 10 10 11 13 13
65 62 58 46 50 53 48 39 32 25 19 18 20 28 37 43 53 61 68 71 73 72 67 61 57 54 47 52 51 44 39 37 35 32 30 25 20 24 22 20 19 20 20 17 17 17 16 13 13 13 14 14 15 16
63 60 57 46 47 50 47 39 32 25 17 15 16 23 36 43 51 56 63 69 70 71 67 64 58 55 48 48 51 47 43 41 39 37 35 32 25 18 19 19 21 22 21 20 20 20 19 20 20 20 21 22 23 25
62 60 57 46 43 46 45 38 32 25 17 13 15 24 35 43 47 55 59 67 72 75 71 66 62 56 52 47 45 42 45 45 42 39 39 38 31 31 29 26 25 26 27 28 27 27 28 27 27 29 30 30 31 33
61 58 54 47 40 42 44 39 30 25 17 13 15 19 31 40 46 45 49 66 73 74 74 70 66 63 58 56 51 44 37 37 40 42 45 41 34 34 35 36 35 36 37 36 35 35 35 36 36 34 35 37 38 39
59 56 51 46 39 39 40 38 32 24 18 13 14 14 26 36 38 40 45 68 75 79 79 75 70 65 60 57 54 51 46 42 41 41 39 32 33 37 42 42 41 42 44 44 44 44 44 44 44 44 44 44 44 45
56 54 50 42 37 37 38 36 32 26 19 11 13 16 22 29 33 46 49 72 85 85 83 79 75 71 69 62 56 51 49 47 50 45 44 40 37 31 30 26 22 18 18 18 24 34 43 50 53 52 50 49 49 49
53 51 49 41 34 35 37 34 27 25 21 14 11 16 19 24 36 43 49 68 85 89 87 84 79 75 71 65 59 55 52 55 57 51 43 39 38 35 33 30 28 25 24 22 22 24 28 34 41 46 49 52 52 50
49 48 47 40 32 32 36 37 28 23 22 18 12 16 22 27 39 43 51 64 84 89 88 86 83 79 74 68 64 61 63 66 58 53 48 46 42 40 39 37 35 32 30 28 27 27 30 29 29 33 36 39 41 43
46 45 44 38 32 30 32 38 34 26 23 20 18 14 26 33 40 45 51 59 74 89 90 88 85 81 77 71 69 71 73 68 62 57 51 47 46 45 43 42 39 37 35 35 34 33 33 32 30 28 28 29 30 31
44 43 41 35 32 27 30 36 38 34 27 22 20 18 23 35 43 47 52 58 66 80 91 89 87 84 80 78 78 78 75 71 68 64 58 54 52 51 48 46 44 42 41 41 39 38 38 37 36 36 35 35 35 37
42 41 39 36 31 28 29 34 35 35 33 29 23 24 25 31 42 49 54 59 63 71 82 89 88 88 88 87 85 83 79 77 72 66 63 62 59 57 55 52 50 48 48 47 45 44 43 42 42 43 43 44 45 46
41 40 38 34 33 28 29 33 35 34 34 31 30 28 30 33 37 45 54 64 67 70 71 78 87 92 94 91 89 88 85 82 78 73 70 67 64 61 59 58 57 57 55 52 51 51 51 51 51 51 52 53 53 54
42 39 36 33 35 31 31 36 37 34 33 36 34 34 32 36 38 42 49 59 69 71 70 72 81 87 93 94 93 92 89 87 84 81 76 74 71 68 67 66 63 63 61 60 59 59 59 60 60 60 61 62 63 63
43 40 37 37 36 34 34 38 40 40 35 38 38 37 38 37 39 42 46 52 59 70 74 74 79 81 83 86 91 92 92 91 90 87 84 81 78 76 74 73 72 71 70 68 68 68 68 69 69 69 70 71 71 70
42 40 38 38 37 38 37 40 44 44 39 37 40 39 39 40 40 41 44 49 54 62 70 77 79 80 80 81 85 89 91 92 92 90 88 86 85 83 81 80 78 78 77 77 77 77 77 77 78 78 79 78 77 80
43 40 40 38 39 40 42 44 47 46 40 37 39 40 39 40 40 40 42 46 51 57 64 73 79 80 81 81 81 83 85 88 90 91 90 89 88 87 85 84 84 84 84 84 83 83 83 84 86 86 84 82 85 87
44 40 43 42 41 44 46 48 49 48 41 38 37 40 39 38 39 40 41 44 48 53 58 67 75 79 80 82 82 82 82 84 86 88 88 88 89 89 88 88 88 88 88 87 87 88 89 89 91 87 85 87 89 92
46 44 43 41 42 46 48 48 48 47 42 40 38 38 38 37 37 38 38 39 44 48 54 60 67 72 77 79 81 82 81 82 83 84 86 86 86 85 85 85 87 88 88 90 90 91 93 94 90 90 91 91 90 90
45 46 43 45 46 49 51 49 48 45 41 38 38 37 36 35 36 36 36 38 42 44 49 53 60 67 71 76 78 77 79 80 81 83 84 85 85 85 84 82 82 85 86 87 89 90 89 87 87 87 85 86 87 86
46 43 44 46 49 52 52 49 45 43 41 38 36 36 35 34 34 34 35 36 39 42 45 49 55 62 67 71 75 75 75 77 79 81 81 82 84 85 85 86 85 84 84 85 84 83 83 82 82 82 82 80 77 77
42 42 46 50 52 53 51 46 44 42 40 38 36 35 33 32 32 32 32 34 36 39 42 46 51 56 63 69 71 73 75 75 77 78 79 80 82 84 85 85 85 84 83 82 82 82 82 81 78 77 75 74 74 72
41 45 48 52 52 49 47 44 41 42 39 37 35 35 33 30 30 30 30 31 33 36 39 42 48 54 57 64 65 65 70 72 73 75 76 79 81 82 83 83 84 84 84 82 81 80 79 78 78 77 75 73 72 71
46 48 51 51 47 45 44 42 43 44 41 37 35 34 32 28 27 29 29 29 31 33 35 39 44 49 53 57 57 59 61 63 66 69 71 74 77 79 80 80 80 81 81 81 81 80 79 78 76 74 71 69 68 66
48 49 49 47 44 43 41 41 42 43 39 35 30 30 30 27 26 27 27 27 28 30 32 35 40 44 47 50 49 49 52 55 58 62 65 68 71 74 75 75 76 77 78 77 77 77 76 75 72 70 69 67 64 62

GFSWCAN_250_spd_006.txt.gz
Wind_Speed
105 104 101 95 89 86 84 80 74 66 55 46 36 27 18 11 9 13 20 23 29 37 40 44 46 50 52 52 49 43 43 39 37 35 33 34 30 33 31 24 19 18 16 20 17 18 14 16 10 10 9 9 10 5
102 101 98 91 86 82 81 77 71 65 51 43 33 27 20 16 13 14 17 26 32 38 42 46 48 53 54 52 46 39 40 40 38 36 39 32 29 30 31 25 28 27 26 20 21 21 19 16 18 16 18 21 22 20
98 98 95 88 82 78 76 74 69 62 51 39 30 25 21 18 17 17 18 24 35 39 43 48 53 55 54 50 43 40 37 36 31 31 25 27 35 29 27 27 24 23 29 29 22 18 17 15 20 19 15 20 23 15
94 94 92 85 78 76 74 71 68 59 49 39 28 23 20 20 21 22 22 28 38 41 48 52 56 55 52 47 41 39 37 33 30 27 24 21 18 15 13 11 11 15 17 22 23 25 29 30 23 27 20 15 15 14
89 91 89 82 74 71 69 67 66 61 48 40 29 21 19 21 24 27 32 33 38 45 52 56 56 54 49 44 39 38 37 34 30 27 24 20 16 17 18 18 18 17 18 18 18 17 19 16 16 18 10 11 12 10
84 86 86 78 71 66 66 63 62 60 47 40 30 21 19 21 26 28 32 34 43 54 58 57 55 52 48 45 41 39 36 32 28 25 21 18 18 16 15 14 11 15 18 19 20 20 18 15 13 12 13 11 8 6
79 81 82 75 68 63 62 61 58 55 47 38 31 23 20 22 24 29 34 43 53 58 61 59 56 52 50 46 43 40 35 32 30 25 21 16 17 14 8 8 8 11 13 14 15 14 10 5 3 1 3 6 5 6
75 77 77 71 66 61 60 60 56 52 43 35 29 24 21 22 28 33 38 42 55 65 63 60 59 56 52 49 45 41 36 33 30 24 22 19 17 15 11 9 6 9 10 12 12 12 12 10 9 7 5 4 4 4
71 72 73 68 62 59 58 58 55 52 40 33 26 23 21 21 28 33 38 45 56 66 62 61 60 57 52 49 47 42 37 35 32 27 22 20 18 17 16 13 9 8 8 8 7 7 8 9 9 7 7 6 6 7
66 67 68 65 60 57 55 55 53 51 38 31 25 19 13 16 31 38 40 46 58 65 67 63 60 58 52 49 48 41 38 36 35 31 25 20 17 16 17 15 14 12 13 12 9 9 11 12 11 10 9 10 10 11
61 61 64 63 58 55 53 52 52 50 38 31 24 19 13 15 28 35 34 42 58 66 69 66 62 59 55 51 49 46 39 38 36 33 30 28 22 20 21 20 17 16 15 17 15 14 14 13 13 15 16 17 18 18
58 56 60 59 56 53 50 48 50 49 38 31 24 18 11 10 23 31 31 43 60 70 71 69 66 62 58 53 49 45 44 41 39 36 35 32 28 26 24 24 20 18 18 18 19 20 20 20 21 22 23 24 25 27
54 51 56 56 53 50 46 43 46 46 37 31 23 18 12 6 15 23 27 38 63 70 75 76 72 67 61 58 53 46 44 45 43 41 38 32 32 31 29 28 26 25 23 23 25 26 27 28 29 30 31 31 33 35
49 49 53 53 50 45 42 39 41 41 36 30 24 18 12 6 9 21 31 42 65 71 73 77 72 68 64 59 54 46 42 44 47 45 41 37 39 38 37 35 33 31 30 30 31 30 32 34 36 38 39 41 43 44
46 47 50 50 46 43 37 33 35 37 34 28 22 17 13 10 20 24 35 44 61 68 70 73 74 73 69 62 57 51 46 43 48 48 49 43 42 42 40 39 37 34 34 33 33 36 38 39 41 38 42 44 47 51
43 45 47 46 44 40 36 27 29 32 31 25 22 15 14 12 28 33 37 48 54 61 66 70 74 74 71 64 60 57 54 55 51 45 43 38 36 37 35 34 38 40 41 35 29 26 26 26 27 27 27 26 29 33
40 43 46 45 44 38 35 26 22 25 28 25 20 18 10 15 26 38 44 48 55 56 59 68 74 77 73 68 65 63 66 67 60 53 51 46 42 40 39 36 32 30 31 32 33 33 32 32 31 29 29 28 28 29
40 42 45 43 43 39 34 27 21 20 23 25 23 19 16 14 23 36 44 48 53 56 57 59 69 77 77 73 73 74 72 67 59 52 51 50 48 46 43 41 40 39 39 40 40 39 39 38 37 35 34 32 31 31
41 43 43 42 41 38 35 30 27 23 20 21 23 23 18 18 21 29 41 49 52 55 58 58 61 71 80 81 81 80 77 72 67 61 57 52 50 50 50 49 48 47 46 46 45 45 45 44 42 41 40 38 37 37
41 41 42 40 40 39 35 31 29 27 25 23 21 24 26 23 23 26 35 43 52 58 59 59 58 65 77 85 88 85 83 79 74 69 65 61 58 56 55 55 53 51 51 50 50 50 49 48 46 46 45 45 45 44
42 43 43 40 40 38 33 33 32 30 27 26 27 28 28 29 29 30 34 39 47 51 59 61 63 65 70 79 88 90 89 84 80 77 73 69 68 66 64 61 59 59 58 58 56 55 53 52 51 51 51 51 51 52
44 45 43 41 40 38 36 35 33 32 31 28 28 31 36 35 34 35 37 40 43 47 53 59 66 71 71 74 80 88 91 90 87 82 79 77 74 71 69 67 66 67 66 63 61 60 59 59 58 58 57 57 58 59
45 45 44 42 41 36 37 38 35 33 33 33 32 34 37 41 41 38 40 41 43 47 49 53 61 71 74 75 77 80 86 91 92 89 86 84 82 79 76 74 73 72 69 67 65 64 64 64 65 65 65 65 66 68
46 46 43 41 40 37 39 41 39 37 38 38 38 38 41 41 43 44 43 42 43 44 48 50 54 63 71 75 75 76 79 85 89 92 90 89 88 85 83 81 79 77 76 74 73 73 72 72 72 73 73 73 75 76
46 45 42 40 40 40 42 45 42 39 42 43 43 43 42 42 44 44 44 42 41 42 45 49 51 56 64 70 71 75 76 79 84 88 91 92 91 89 88 86 85 83 82 81 80 80 80 79 79 79 80 81 83 82
44 42 42 40 40 41 44 43 40 41 43 47 48 45 43 42 41 41 42 43 41 42 43 46 49 53 60 67 69 73 73 77 80 82 85 90 92 92 92 91 90 88 86 86 86 85 84 83 83 84 85 87 87 85
39 36 40 41 40 41 44 43 42 42 45 48 49 46 41 39 39 37 40 41 40 40 41 43 46 50 56 62 68 71 74 73 76 80 81 82 84 86 88 89 89 88 88 87 86 86 85 84 84 85 87 87 86 84
36 39 41 40 40 42 44 42 42 44 48 49 47 41 39 40 40 38 38 37 37 36 37 39 42 47 51 56 61 64 69 72 75 77 79 81 82 83 84 84 84 85 85 85 83 84 85 85 86 87 87 85 82 81
38 39 42 42 42 43 42 42 44 46 46 47 44 40 42 41 40 37 34 34 34 34 34 35 39 42 47 50 56 59 63 65 71 77 81 82 82 82 83 83 83 82 83 84 85 85 85 86 86 86 83 81 81 81
40 39 41 42 41 41 40 42 45 45 46 48 44 42 43 41 38 35 32 31 31 31 32 33 36 40 43 46 50 55 60 63 66 71 76 80 82 81 81 82 83 82 82 81 82 82 81 81 80 80 79 79 79 78
39 40 40 40 40 38 40 42 44 45 48 49 44 42 41 38 35 32 29 28 28 28 28 30 32 37 40 42 45 50 56 61 63 66 68 71 74 76 78 79 79 79 80 80 80 79 79 78 77 77 76 74 72 69
39 40 39 38 39 39 40 43 45 45 47 48 45 40 38 36 34 29 26 26 25 24 25 27 30 32 35 38 42 46 51 56 58 58 62 66 69 69 70 72 74 75 76 77 77 77 78 78 77 75 73 72 69 66
38 38 37 39 39 40 41 44 45 44 46 48 43 38 35 34 32 27 24 23 23 22 23 25 27 29 32 35 38 40 43 47 51 53 54 56 59 62 64 65 66 68 71 72 72 73 73 73 72 70 67 65 65 63

GFSWCAN_250_spd_009.txt.gz
Wind_Speed
98 95 94 93 94 90 82 77 77 77 75 66 61 52 40 28 18 14 9 12 13 17 23 32 38 44 48 51 52 51 51 47 42 38 39 28 26 23 29 23 22 21 15 12 8 2 1 2 7 11 12 16 17 16
95 91 92 90 92 87 79 73 73 72 71 63 60 50 38 29 20 14 13 11 12 15 21 28 35 40 43 46 50 52 47 46 42 38 38 27 28 31 28 31 23 22 24 16 13 11 10 10 8 9 11 13 13 17
91 89 90 87 89 84 76 69 70 70 67 59 56 48 38 28 19 16 17 15 16 15 21 29 36 40 44 48 49 48 47 45 40 40 37 28 28 31 32 28 33 30 22 24 23 22 23 21 20 19 19 22 20 23
89 87 88 85 84 80 73 66 65 67 64 56 53 45 37 28 20 17 21 19 21 20 24 30 34 39 45 50 50 49 45 42 35 28 28 26 28 29 28 30 31 28 25 27 28 29 30 28 25 26 27 25 13 12
89 87 85 83 80 77 71 63 63 63 61 54 50 41 35 28 18 19 23 24 22 24 29 33 36 42 47 50 50 44 39 41 35 28 26 22 19 20 20 21 18 18 19 22 23 19 20 22 19 17 18 16 13 10
89 85 82 82 77 74 70 61 61 60 58 51 47 39 32 25 17 17 22 24 26 30 33 39 42 47 52 50 46 44 41 37 33 26 22 23 18 16 17 19 13 15 19 20 20 18 18 15 12 12 12 12 8 5
87 81 78 78 74 72 68 60 60 59 55 48 44 36 30 21 14 17 23 27 32 34 37 42 48 53 54 51 48 44 41 35 33 30 26 18 14 14 14 12 12 15 17 17 17 17 15 12 7 6 6 6 7 6
85 76 76 74 69 69 66 59 58 57 52 45 41 33 26 19 13 19 24 28 34 39 40 48 55 57 56 52 48 44 39 36 33 29 26 22 17 16 14 11 8 10 13 14 13 12 12 13 16 12 9 9 9 9
79 72 73 69 64 65 63 58 56 55 51 43 38 30 22 15 11 18 24 28 32 41 46 53 59 58 57 53 49 43 38 37 35 31 27 25 22 18 18 13 9 6 10 12 12 15 16 17 15 12 10 9 8 8
72 68 69 64 59 62 60 55 54 53 50 42 37 26 19 14 13 14 19 26 32 44 52 57 62 60 57 54 49 43 40 37 35 32 30 28 23 20 21 17 13 10 9 11 14 13 12 11 12 11 11 11 9 9
66 66 62 59 54 59 57 52 51 51 48 42 38 25 18 12 8 8 16 26 32 46 53 60 63 61 58 55 51 45 41 40 36 34 31 29 30 24 20 17 15 16 16 15 14 13 13 16 16 16 16 15 14 14
63 63 57 55 50 55 54 49 48 47 47 42 39 25 15 9 4 7 14 26 37 51 55 59 63 62 61 57 53 48 42 42 38 36 33 29 29 28 25 20 18 19 18 16 16 16 18 22 21 21 20 18 18 19
59 58 53 50 46 51 50 47 44 45 45 41 38 25 13 4 6 9 11 23 36 47 52 57 63 64 62 59 55 50 44 42 40 38 36 35 32 30 30 28 26 23 21 20 20 20 22 23 22 22 22 24 24 26
55 53 48 45 43 46 46 44 41 42 42 41 37 29 16 7 11 14 12 24 33 38 44 53 62 65 64 61 57 53 48 45 42 41 39 37 36 34 31 29 29 28 26 25 24 25 25 26 26 27 29 30 31 33
52 49 43 42 40 42 41 41 36 36 37 35 34 32 19 8 15 21 24 29 34 36 40 48 57 65 64 61 58 54 53 50 52 49 44 42 39 37 35 33 32 32 32 30 29 29 30 30 31 32 35 38 40 41
51 45 40 38 37 38 38 38 33 31 30 31 28 28 23 12 11 23 27 30 33 34 36 39 49 61 67 64 62 58 56 60 56 50 50 48 46 45 42 39 37 38 38 38 37 37 36 35 34 36 33 26 26 29
50 43 37 35 36 36 37 36 31 29 27 25 24 23 23 16 13 17 27 33 34 36 37 36 42 56 66 69 67 66 67 64 56 47 45 48 49 50 48 45 42 42 45 46 45 45 46 45 45 37 33 33 32 33
48 41 35 34 35 36 35 35 31 27 27 24 22 20 20 18 15 16 21 29 37 40 38 39 40 45 58 70 74 75 70 65 62 57 53 53 51 51 50 49 46 40 37 37 37 36 36 37 38 39 38 37 38 38
44 38 33 34 35 35 36 37 32 27 27 25 22 21 19 20 19 17 20 24 30 35 40 42 42 44 51 63 74 79 78 74 68 65 63 58 55 52 49 49 46 44 43 42 42 43 42 42 43 43 43 44 44 45
43 37 34 34 35 36 37 39 36 30 27 27 25 24 23 21 22 22 21 23 28 31 35 35 36 44 54 57 64 76 82 80 78 73 70 66 62 59 58 58 57 55 52 50 49 47 48 49 48 49 49 49 50 50
42 39 36 34 35 38 39 41 38 34 32 30 29 27 28 26 26 27 28 28 30 32 38 40 39 44 49 58 64 69 76 80 84 81 77 74 71 69 66 63 61 60 59 57 55 54 53 54 55 54 54 54 54 54
41 39 37 33 36 40 41 40 37 36 34 33 33 31 30 30 31 31 34 36 37 39 40 42 46 47 48 56 60 68 75 76 78 84 85 82 78 75 74 72 69 67 63 61 60 59 59 59 58 59 59 59 60 60
39 38 37 36 39 40 43 41 37 35 34 35 34 34 35 36 36 37 41 46 45 46 46 45 47 50 51 52 58 63 71 76 75 77 83 86 85 83 81 79 77 75 71 69 68 66 65 64 64 64 64 64 65 65
38 40 38 39 42 42 43 41 36 36 36 36 36 34 36 38 40 41 47 51 52 54 53 51 49 47 51 53 54 58 65 69 75 76 77 80 84 87 88 86 83 80 78 76 73 72 71 70 70 69 69 69 70 71
38 39 40 43 44 43 41 36 34 36 37 37 38 36 36 37 40 45 53 55 56 55 53 51 49 46 46 50 53 55 58 64 67 69 74 78 79 82 85 88 88 87 84 82 80 79 77 76 77 76 76 76 77 77
38 39 42 43 43 40 36 35 37 38 38 38 38 39 39 39 44 49 54 57 55 51 50 47 45 44 44 45 50 53 55 57 60 64 67 74 77 79 81 83 86 87 87 87 87 85 84 83 82 82 80 80 81 83
40 41 42 42 39 34 33 37 39 40 39 39 41 40 39 41 47 54 56 52 48 44 43 43 41 40 42 44 47 50 53 54 55 58 63 65 72 77 78 80 80 81 83 86 88 88 87 86 86 85 84 83 85 87
40 40 40 37 33 33 35 38 39 38 39 40 41 40 42 47 52 54 51 45 40 37 38 38 37 38 39 42 44 47 50 53 54 55 57 60 65 71 74 75 76 78 79 82 84 86 86 86 85 85 86 87 88 87
38 35 33 32 33 35 37 38 38 40 41 40 40 42 47 51 51 48 42 40 39 37 36 37 36 36 38 40 42 44 46 50 53 53 54 57 62 68 70 71 73 73 76 77 79 81 83 83 84 85 85 86 85 84
33 30 32 34 35 36 37 39 40 42 40 39 42 47 51 50 43 41 41 39 38 38 37 36 36 35 36 38 39 41 43 46 48 51 54 56 59 63 67 68 71 73 73 74 76 77 78 80 81 81 81 80 80 80
30 31 34 34 34 35 38 39 40 40 38 41 48 51 50 45 41 39 39 38 38 37 34 33 33 33 35 36 37 38 40 42 45 47 51 53 55 60 64 66 68 72 74 74 75 75 76 76 76 77 77 76 75 75
32 32 33 34 35 36 38 38 38 37 39 45 49 50 46 39 39 38 39 37 35 33 29 27 28 29 31 32 33 34 36 38 42 44 47 51 55 57 60 62 64 68 71 72 72 72 71 72 72 73 74 73 71 69
31 33 34 35 36 36 36 36 36 40 44 46 48 47 41 38 39 36 37 34 31 28 25 24 23 24 26 28 29 30 32 34 37 40 43 46 49 51 54 57 61 65 67 65 66 67 66 66 67 66 66 65 64 62

GFSWCAN_250_spd_012.txt.gz
Wind_Speed
83 81 83 83 79 73 73 75 73 70 67 67 62 55 48 43 36 27 18 14 12 12 20 31 43 54 61 59 57 54 49 46 41 39 37 29 23 25 24 22 23 20 16 11 9 7 6 10 13 15 16 18 21 23
80 78 77 76 77 70 69 73 69 67 64 62 60 52 45 43 35 26 18 15 15 12 18 25 36 49 57 61 57 54 50 47 44 42 38 32 25 29 31 26 25 23 24 20 20 17 14 15 14 19 22 23 22 21
79 76 73 71 73 69 66 72 67 65 60 57 54 50 42 42 33 26 18 14 17 17 19 25 32 42 51 57 57 55 53 49 47 45 39 32 33 32 32 26 27 28 27 29 26 26 23 23 24 26 26 24 22 20
78 73 71 70 70 68 63 68 66 62 58 54 49 43 39 40 31 26 18 16 17 22 21 25 30 37 46 54 58 57 54 53 50 44 38 34 35 32 30 29 27 28 29 29 32 31 29 27 28 28 27 18 15 12
76 72 68 66 68 65 64 67 65 61 57 51 46 38 36 34 28 23 17 15 18 21 23 27 28 32 42 50 56 58 58 54 46 40 36 35 33 26 25 25 29 29 28 30 29 30 28 28 23 20 15 13 15 12
73 70 66 65 67 67 63 66 65 59 57 50 44 36 34 30 24 19 15 14 19 22 25 29 29 32 42 48 53 54 51 44 40 34 30 30 32 28 25 24 19 21 22 29 32 30 28 24 17 13 12 12 12 6
72 70 66 66 67 66 62 64 65 58 55 49 43 35 33 27 20 16 16 19 22 24 27 31 33 34 40 45 47 45 43 40 35 31 28 26 29 29 22 22 16 19 24 27 28 26 22 19 14 12 14 14 8 7
72 70 65 63 66 65 62 63 63 56 53 46 40 35 31 25 20 15 15 17 24 28 29 34 38 39 40 43 44 42 40 38 35 32 28 27 25 22 16 19 22 20 18 19 22 22 20 19 16 18 16 11 8 9
70 67 63 61 62 62 60 61 61 53 51 44 37 32 28 23 18 14 14 17 23 27 33 38 40 42 41 42 44 44 42 38 34 32 31 29 26 19 18 19 17 13 14 15 16 16 16 17 18 16 13 10 9 7
66 64 57 61 60 59 58 59 58 49 48 44 37 30 26 20 13 10 12 17 20 27 36 39 43 46 44 46 50 48 43 38 36 34 31 30 25 23 21 22 19 13 8 11 13 14 14 15 16 16 14 11 9 8
65 59 53 55 60 56 57 56 55 45 42 42 36 32 26 19 12 5 10 14 22 29 34 43 46 48 49 53 53 49 44 41 40 37 34 32 31 26 25 24 19 16 14 15 16 17 17 17 18 17 16 15 14 14
61 58 49 52 57 51 54 51 50 42 38 38 35 32 26 19 11 6 11 17 25 27 30 38 45 49 52 57 56 52 47 44 42 39 37 34 33 30 28 27 25 20 19 18 18 19 20 20 20 20 19 19 18 19
57 54 49 51 53 47 49 46 47 40 35 35 33 28 29 20 10 10 14 13 17 21 23 37 47 51 55 58 58 54 49 45 43 41 40 35 33 32 30 31 28 26 22 21 21 21 20 20 23 25 25 25 25 23
54 51 50 48 49 44 45 41 44 38 32 31 31 28 25 21 11 15 12 22 21 19 21 33 46 51 55 58 58 56 53 49 47 46 42 39 36 35 33 33 31 29 26 23 23 24 25 25 26 28 29 27 26 26
50 50 49 47 46 41 39 37 39 37 29 27 28 28 24 23 16 14 19 17 20 20 19 29 41 51 57 61 60 58 55 53 53 52 49 46 43 41 37 36 35 33 32 29 28 28 30 30 30 30 29 29 30 31
48 49 46 45 43 38 35 35 36 34 28 21 23 24 22 22 18 15 18 22 21 20 23 27 34 46 56 62 64 64 61 60 57 52 49 48 45 44 44 43 40 38 36 34 33 33 33 33 33 33 33 34 37 35
46 47 44 43 40 34 31 34 33 33 28 23 18 21 20 21 21 19 15 16 19 19 19 29 31 35 53 62 68 68 66 62 59 56 54 53 51 49 47 46 45 43 40 38 38 37 37 39 40 41 41 40 39 39
44 44 41 40 36 31 29 34 32 30 26 23 21 20 19 20 22 22 19 16 17 18 17 19 28 34 39 55 67 71 68 67 62 61 60 58 57 57 55 53 51 50 49 47 45 43 42 44 46 46 47 49 49 47
42 40 39 37 32 32 29 35 31 29 28 26 20 22 24 22 24 25 24 22 19 17 17 20 25 30 38 48 60 70 72 73 69 66 65 64 62 61 61 59 57 56 55 53 52 51 49 49 50 47 43 41 40 38
40 39 38 35 32 32 31 33 31 30 29 27 25 22 25 26 26 28 29 29 26 24 20 18 20 28 38 45 50 56 63 71 75 73 70 67 67 65 63 63 63 60 59 56 54 53 50 49 47 43 43 44 44 45
40 39 33 32 32 34 34 33 31 32 31 28 25 25 25 28 28 29 34 34 32 31 27 26 26 25 29 36 45 52 58 62 67 73 78 77 74 70 68 67 65 63 61 59 57 55 52 50 50 49 48 48 49 50
39 35 29 30 32 35 35 34 32 33 32 31 28 24 26 29 32 31 34 37 37 36 36 36 33 33 35 34 37 45 53 60 66 69 71 74 78 80 79 76 73 70 67 64 63 60 58 57 57 56 55 55 55 57
39 33 26 28 32 35 37 35 33 32 34 34 30 28 30 31 33 34 35 36 38 42 43 43 43 43 43 42 43 45 48 55 63 69 69 71 75 78 81 81 81 80 78 74 70 67 66 65 64 64 63 61 61 61
37 32 29 31 36 39 38 36 34 32 33 34 31 31 34 34 35 36 37 37 39 45 47 49 52 53 51 51 51 52 52 56 57 62 68 69 71 76 79 81 82 82 82 81 78 75 73 71 70 69 67 65 65 66
34 30 31 36 38 39 36 36 35 33 34 35 31 32 36 37 38 39 40 41 42 45 48 52 54 55 54 56 57 57 53 52 55 57 62 67 67 70 76 77 79 83 83 82 81 82 80 78 76 74 74 72 72 72
30 30 36 38 36 35 36 36 33 33 34 33 34 36 37 38 39 39 42 44 47 49 50 52 52 56 59 56 51 46 47 47 51 55 57 60 62 63 69 75 76 77 79 81 82 82 82 82 81 80 80 79 78 78
33 36 37 33 33 37 36 34 34 33 32 33 36 37 37 39 40 41 44 47 50 50 47 47 52 56 51 45 47 43 44 45 48 50 52 54 56 58 59 65 72 75 75 76 78 80 82 83 83 82 82 82 81 81
36 33 31 32 37 36 34 32 31 31 33 37 38 38 39 38 38 42 46 48 47 45 47 50 50 48 43 44 44 44 43 45 47 48 49 51 52 52 54 58 64 70 74 75 75 76 77 78 79 80 81 81 80 81
31 29 33 35 34 32 31 31 32 34 37 38 39 39 38 39 40 44 47 47 44 45 48 46 43 44 41 41 42 42 41 43 45 45 48 49 50 50 51 54 58 63 68 71 73 75 75 75 75 75 74 74 75 77
30 32 33 31 30 30 31 33 35 36 37 38 39 38 38 41 43 44 44 43 43 44 43 43 42 40 39 38 39 38 38 39 41 42 43 46 48 49 50 52 55 58 61 65 66 68 70 73 74 73 73 74 75 76
31 33 31 28 29 30 34 35 35 35 36 37 36 37 41 43 42 42 42 40 41 42 41 40 39 37 35 35 36 36 35 35 37 38 38 40 44 47 49 51 54 55 57 59 62 63 63 65 68 71 72 73 72 71
31 27 26 28 31 33 33 34 34 34 35 36 36 39 40 41 41 43 41 39 38 39 39 37 35 33 32 31 31 31 31 31 32 33 33 37 40 43 45 48 52 53 55 57 59 61 62 63 64 65 67 66 67 66
28 29 30 32 32 31 31 32 33 34 35 37 35 36 40 42 43 44 40 36 36 38 36 33 31 28 27 26 26 25 25 25 27 29 32 34 37 39 43 45 48 52 54 55 57 58 58 59 60 61 61 61 61 60

GFSWCAN_250_spd_018.txt.gz
Wind_Speed
97 96 94 87 82 75 71 66 63 60 61 61 61 59 53 49 47 47 40 28 23 15 17 22 32 41 48 46 44 41 40 40 40 41 39 35 31 29 25 22 19 19 14 12 13 20 17 12 13 21 26 30 32 32
95 91 88 84 78 73 68 64 60 57 59 61 58 54 49 46 45 46 44 39 28 22 16 21 29 37 46 53 52 47 45 43 41 40 36 35 33 29 26 24 20 19 18 16 14 16 18 17 18 23 28 32 32 30
88 84 84 79 74 70 66 62 58 55 58 61 56 52 48 44 41 42 44 42 39 32 24 22 29 36 43 55 55 53 50 47 44 40 39 38 34 30 27 25 20 19 21 20 18 18 19 20 23 24 29 33 32 29
80 79 77 76 71 68 64 61 56 54 57 61 57 52 47 43 40 41 43 43 39 39 34 28 30 33 40 46 57 56 55 51 47 44 43 39 36 32 28 26 23 25 24 23 22 21 22 23 26 26 28 30 29 29
74 74 74 73 68 66 64 60 54 53 57 61 58 53 47 43 40 42 41 38 37 37 34 31 30 33 38 43 50 62 58 54 52 49 45 42 38 34 29 31 29 25 24 26 25 27 27 24 26 28 28 27 23 23
70 70 71 69 65 63 63 59 53 52 56 61 59 53 47 44 41 41 35 31 30 28 27 27 29 33 36 41 47 58 64 59 56 53 49 45 41 36 34 36 30 25 22 25 28 31 29 23 27 29 26 23 18 20
69 67 68 66 65 62 61 56 53 52 53 60 58 51 46 43 41 38 29 25 23 21 22 23 28 32 34 39 43 50 59 62 61 56 53 47 43 40 39 35 26 25 25 31 36 29 23 24 29 28 25 18 19 20
67 64 65 64 63 59 60 55 54 54 52 58 57 51 45 41 39 31 27 22 19 18 17 21 27 31 32 35 39 43 51 60 63 59 54 50 45 42 39 34 35 30 31 37 33 25 24 25 28 27 26 24 22 19
66 62 62 63 62 59 57 52 51 51 52 56 55 49 43 40 33 29 25 19 14 14 16 21 25 27 29 33 37 40 45 52 61 61 56 52 47 44 41 36 34 34 38 38 25 23 23 27 26 25 23 19 18 17
63 61 61 62 62 58 55 52 49 49 50 52 52 47 40 37 29 28 20 14 11 12 13 18 23 27 28 31 35 39 42 48 54 56 55 53 49 45 41 35 35 36 37 34 27 25 24 23 22 20 16 14 13 13
61 59 60 63 58 54 54 52 49 48 49 49 49 44 33 32 28 23 16 11 7 5 8 16 21 24 28 32 35 38 41 45 49 52 54 52 49 43 38 33 34 35 36 34 29 22 20 18 16 15 14 12 11 11
60 58 60 62 56 52 52 48 46 46 45 44 46 40 28 22 23 18 11 10 7 6 10 16 21 25 28 32 34 38 40 43 48 48 49 47 45 42 35 30 35 38 36 33 25 17 18 17 16 14 14 14 13 13
58 58 60 57 54 51 49 47 44 43 40 39 42 35 28 22 23 21 13 7 12 10 15 19 22 24 26 30 32 34 38 40 42 45 44 44 42 39 34 33 38 38 36 31 25 23 22 20 21 18 16 18 18 18
57 58 57 56 51 49 45 46 43 40 36 36 36 33 23 19 17 21 16 10 10 9 17 19 21 24 28 30 33 33 38 39 39 40 42 42 42 40 36 39 38 38 34 31 31 31 30 28 25 22 21 22 22 23
56 57 55 52 49 46 45 43 42 37 34 32 32 30 24 21 16 13 15 8 8 9 14 19 19 20 25 31 33 35 37 40 41 41 42 44 44 39 41 41 39 38 35 33 34 33 34 33 30 29 28 28 27 28
55 56 51 48 45 45 43 42 43 36 31 29 31 27 26 21 21 16 13 10 6 12 14 17 19 21 23 28 34 37 40 42 44 46 47 48 45 42 44 44 43 42 41 38 38 38 39 38 35 33 33 32 32 32
53 51 45 44 42 42 42 43 42 36 31 29 30 26 24 25 22 21 17 16 10 8 13 18 21 23 25 25 30 38 42 45 48 51 53 53 49 47 47 47 47 47 47 45 43 41 41 40 39 38 37 35 35 35
49 46 43 42 41 41 41 42 40 36 33 30 30 28 25 26 25 23 22 20 18 14 12 14 19 25 31 31 33 37 39 43 49 52 57 58 56 53 51 51 51 52 53 52 50 47 46 45 44 42 41 40 40 40
46 43 41 40 40 39 41 40 38 36 33 31 31 29 28 27 27 25 25 25 21 20 18 17 16 20 25 31 35 39 40 43 47 53 57 62 63 61 59 56 55 54 56 57 56 55 53 52 50 49 48 47 47 46
43 41 41 41 40 39 39 37 37 36 34 33 32 30 31 31 29 29 26 27 28 26 25 22 22 22 21 25 30 34 39 44 47 51 55 58 64 67 66 64 62 60 57 57 59 60 60 58 56 55 54 53 52 52
43 41 42 41 40 38 38 39 37 37 36 35 32 32 32 32 32 33 31 30 30 29 30 30 29 25 26 25 25 27 31 36 39 45 53 58 59 61 66 70 70 68 67 65 63 62 62 62 62 62 61 61 61 60
41 40 42 40 40 39 39 39 37 37 37 34 33 33 34 35 35 35 35 34 32 31 33 35 35 34 32 29 30 30 31 31 33 37 42 47 52 58 65 68 70 72 74 74 73 72 70 67 65 66 66 66 65 64
42 43 42 39 37 37 38 39 38 36 35 35 34 36 37 37 37 37 38 36 34 36 37 36 38 39 37 36 33 32 32 35 36 36 35 38 44 47 50 54 58 65 72 77 78 78 76 74 74 73 72 71 71 70
44 42 40 36 37 38 41 39 36 34 35 37 38 38 38 38 39 39 40 39 36 40 39 38 40 42 41 40 38 36 35 35 37 38 40 41 40 40 40 43 48 53 57 61 64 70 74 76 78 79 77 76 75 74
42 39 37 38 39 40 40 38 36 36 37 38 38 39 40 38 40 42 42 40 41 42 40 40 43 45 44 43 41 38 38 39 40 41 38 39 42 45 46 46 44 45 47 50 53 57 59 61 64 67 72 75 78 79
40 37 38 41 42 41 39 37 37 37 38 40 41 40 38 40 42 42 43 42 43 42 41 42 44 43 43 43 42 41 41 41 41 43 42 43 44 44 44 44 45 48 49 50 51 52 54 54 55 56 59 63 65 68
36 38 42 44 41 38 36 37 39 39 40 40 40 38 39 40 42 40 43 44 43 43 43 42 40 41 43 42 42 42 41 41 42 45 48 48 46 45 47 49 51 53 53 54 54 54 55 57 57 57 59 59 59 61
39 42 43 40 37 37 38 39 41 40 39 39 38 38 40 43 42 43 44 42 44 44 42 39 39 42 42 42 41 40 41 42 45 48 51 52 50 50 51 54 58 60 61 60 60 59 60 61 60 62 63 63 62 62
44 43 38 36 37 39 39 40 40 38 37 38 40 40 42 42 42 43 42 43 44 43 40 39 40 41 42 41 40 42 42 44 48 51 51 54 55 51 51 50 52 54 55 57 58 59 60 60 61 63 64 66 66 64
42 37 37 38 39 40 42 41 40 40 39 39 41 42 41 41 40 39 41 41 43 41 39 40 41 41 40 40 41 43 44 48 54 50 48 47 46 46 47 49 49 51 53 54 56 56 56 56 57 60 61 62 62 63
37 36 36 38 40 40 41 40 39 37 37 38 39 39 40 40 39 39 37 38 39 39 38 39 39 40 40 39 43 49 51 43 45 44 44 44 44 44 45 46 46 45 46 47 47 48 51 53 56 56 57 59 60 60
34 36 37 38 39 39 40 37 35 36 36 37 36 37 39 40 39 36 31 34 37 39 39 38 38 37 40 43 45 47 45 41 41 41 41 39 38 38 39 39 39 41 42 43 44 46 48 49 50 51 51 55 57 58
36 37 39 40 40 38 36 36 36 35 35 36 37 37 37 37 36 32 32 34 36 36 36 35 36 38 42 42 39 40 39 38 38 36 33 31 30 30 30 31 33 35 38 39 41 42 45 47 47 48 50 52 53 53

GFSWCAN_250_spd_021.txt.gz
Wind_Speed
97 96 92 88 83 82 79 74 71 67 63 59 58 59 59 60 58 52 51 48 43 31 23 20 21 25 32 41 38 36 38 40 38 35 34 32 29 27 23 23 20 18 21 14 17 17 20 18 18 20 18 24 29 32
95 91 86 83 77 76 74 71 67 64 60 58 56 56 57 57 56 55 53 51 47 44 30 24 24 24 30 36 47 43 39 40 42 41 38 36 33 30 26 26 22 19 17 15 19 20 24 22 22 17 18 24 29 30
88 83 81 77 73 70 72 67 63 63 60 57 54 57 58 56 53 50 53 51 48 47 39 34 26 24 28 35 43 49 46 44 43 44 42 40 38 33 29 29 26 22 19 17 18 18 21 22 17 17 22 25 29 29
82 77 76 71 68 67 68 67 62 62 59 57 54 57 58 56 50 47 50 51 48 47 42 38 29 27 28 33 37 49 53 49 47 44 43 41 39 35 33 33 30 25 19 16 16 20 20 18 18 19 22 25 30 30
78 73 71 67 67 65 66 65 64 61 58 56 55 59 60 56 51 47 47 45 43 42 43 41 34 31 29 33 37 46 55 55 51 47 44 42 39 38 37 36 31 25 19 18 16 22 23 23 24 22 23 25 27 21
76 72 67 63 62 62 64 63 61 60 57 56 57 59 60 57 53 48 46 40 38 38 38 36 31 29 29 32 36 41 52 59 56 52 48 45 41 42 41 39 26 23 21 20 25 23 26 24 26 24 24 25 25 16
74 68 65 61 61 60 62 61 59 58 55 54 58 59 59 56 52 46 42 37 35 31 27 25 24 24 28 31 35 38 47 57 61 57 54 47 44 45 43 35 31 28 27 28 26 25 24 23 24 23 26 25 24 19
72 67 63 59 61 61 58 58 58 56 54 54 56 58 56 53 48 43 39 37 29 23 20 18 19 22 23 27 32 34 41 52 61 62 56 52 48 48 44 39 35 32 29 31 29 26 24 25 23 25 26 28 24 20
72 66 63 59 58 60 58 58 56 55 53 54 56 56 54 49 44 39 35 30 24 18 14 14 15 16 20 25 28 30 36 45 55 61 60 55 52 50 46 42 38 33 32 33 34 30 28 24 24 26 27 25 22 17
68 66 62 60 57 56 57 58 56 53 52 52 54 53 52 48 42 33 28 26 20 15 10 8 11 14 20 23 26 28 33 40 47 54 58 58 56 52 50 46 41 37 35 36 34 33 33 27 27 30 24 23 17 15
65 63 60 59 58 56 55 55 57 51 50 52 51 50 47 45 39 35 28 22 16 11 7 7 10 14 17 20 24 26 31 36 41 45 53 60 60 56 52 48 44 39 37 36 36 35 33 29 32 28 23 19 18 15
63 61 59 59 58 55 52 55 55 50 49 51 48 46 41 36 35 31 24 17 14 11 7 6 10 14 17 21 23 24 27 31 34 39 46 53 58 56 53 48 44 42 39 38 36 37 32 33 31 27 20 17 15 14
61 60 60 59 57 53 52 52 53 50 48 47 46 44 39 33 29 29 20 13 15 12 10 8 11 14 16 18 20 22 24 27 30 35 39 45 51 54 55 52 47 43 40 36 36 31 32 34 30 25 19 17 18 18
59 61 61 59 55 53 52 51 51 48 45 45 43 40 35 34 27 24 20 14 14 14 15 11 13 14 16 19 21 23 25 26 29 31 36 40 43 46 49 48 46 43 39 37 33 33 34 36 31 26 23 22 22 22
57 60 61 59 53 51 50 50 48 46 43 43 40 36 32 31 27 21 17 14 13 14 15 14 17 17 18 20 21 22 25 28 29 32 34 38 42 44 45 46 46 44 40 37 38 37 37 39 33 30 28 27 26 27
56 60 60 55 51 49 48 49 45 43 42 40 38 35 31 29 25 19 19 15 13 13 13 12 16 21 20 20 21 23 26 28 30 33 35 37 40 43 44 45 44 44 43 42 41 39 38 37 35 34 34 34 33 31
54 57 54 52 49 46 47 46 42 42 41 38 35 34 30 28 26 22 19 17 13 13 14 12 13 19 24 25 27 28 30 28 31 34 38 41 43 44 45 46 45 46 45 46 44 43 40 39 38 37 37 37 37 37
55 53 52 49 46 45 44 43 41 41 39 36 33 34 30 29 26 25 22 18 18 16 16 17 16 16 21 28 34 31 30 31 34 36 39 41 45 47 48 48 49 49 48 49 49 47 45 44 43 41 42 42 41 42
52 50 47 44 43 42 41 40 39 39 39 35 32 33 31 30 28 27 26 23 21 20 20 20 21 21 20 22 25 27 29 32 36 39 39 40 44 48 50 52 53 52 51 52 52 52 51 49 48 48 47 46 47 46
51 46 45 42 41 39 39 38 36 38 38 33 31 31 31 31 31 31 29 28 25 23 23 24 24 24 24 27 26 23 24 30 34 38 41 45 46 48 51 55 57 57 55 55 55 55 54 54 53 54 53 51 51 51
51 46 42 40 40 38 37 35 35 38 37 32 31 31 32 32 32 32 31 30 29 27 27 27 27 29 28 28 28 29 30 27 27 31 35 40 45 47 55 59 61 63 65 63 60 59 60 60 59 59 59 60 59 58
48 41 39 40 39 37 37 36 36 36 35 32 31 32 32 34 34 33 33 33 32 31 32 30 29 29 30 31 32 32 32 32 32 32 32 33 36 42 46 48 56 66 67 69 70 69 67 65 64 64 64 65 65 65
43 39 39 42 38 36 38 37 37 36 35 34 33 32 33 33 32 34 35 35 35 35 35 33 32 32 32 32 33 35 35 34 34 35 36 37 36 35 38 43 46 49 53 59 67 73 75 75 73 72 70 69 69 69
42 39 40 38 36 39 38 37 36 35 35 34 32 32 33 34 35 35 36 36 36 38 36 34 34 35 34 33 33 35 36 37 36 36 37 38 39 40 41 41 40 42 46 50 52 57 61 64 70 77 79 79 79 77
38 38 36 38 38 39 38 38 36 35 36 34 33 33 35 36 35 35 37 37 38 37 35 35 37 39 37 35 35 35 36 37 38 38 37 39 41 42 41 42 44 45 44 44 44 46 50 53 56 59 61 62 66 71
37 37 38 41 41 40 40 38 35 34 33 33 34 35 35 35 36 38 38 38 39 37 36 37 40 41 39 40 40 39 38 36 37 39 38 39 41 42 42 42 44 45 43 47 51 50 50 49 49 49 51 51 53 56
36 41 43 43 41 39 39 36 34 32 33 35 36 35 34 36 37 37 39 41 40 39 37 38 39 38 39 40 40 39 38 37 37 38 40 40 40 41 43 45 47 47 44 47 49 51 52 54 55 54 52 51 50 50
42 45 44 40 40 39 37 34 34 34 35 36 35 34 35 36 36 37 40 40 39 39 38 38 38 39 40 40 37 37 36 36 38 41 43 44 42 42 45 51 54 55 54 53 54 56 57 57 58 58 57 56 56 57
45 45 41 41 39 36 35 35 35 35 35 36 35 33 34 34 35 36 38 39 38 38 39 39 39 40 40 38 35 36 35 35 39 42 45 48 50 49 50 52 51 51 52 50 49 52 54 55 56 57 57 57 57 56
44 41 42 40 38 37 35 34 34 35 36 35 33 33 33 33 35 36 37 37 38 39 39 38 39 38 36 36 37 36 34 36 41 46 50 50 47 46 46 48 50 50 49 48 48 50 52 54 55 57 59 59 60 60
43 43 42 38 36 34 34 35 37 36 33 32 32 33 33 33 32 35 36 37 37 37 36 37 37 36 34 35 37 37 39 39 42 45 46 47 47 45 41 42 43 43 44 45 45 46 48 49 51 52 53 55 58 59
36 35 34 33 33 34 36 37 34 32 32 32 31 31 33 35 34 33 33 33 34 34 34 34 34 34 35 35 36 40 41 42 44 45 44 42 41 42 42 42 42 42 42 42 43 44 44 44 46 48 50 52 54 54
33 33 35 36 37 38 36 33 33 31 30 31 33 34 35 35 33 30 28 30 31 31 31 31 32 33 34 37 38 39 40 43 44 42 41 40 40 40 39 37 36 35 35 35 34 35 37 38 40 42 44 46 48 50

GFSWCAN_250_spd_024.txt.gz
Wind_Speed
99 98 96 92 88 84 80 75 73 74 69 64 62 60 57 58 54 52 51 47 46 47 39 26 28 26 23 28 32 32 32 33 36 34 32 33 34 32 28 23 26 26 24 25 20 18 25 24 27 24 22 18 23 27
99 96 90 86 81 78 74 72 71 69 65 63 61 57 56 57 54 53 51 49 46 46 48 35 28 29 26 27 31 36 36 36 38 39 37 37 36 33 30 27 26 28 25 27 21 20 22 25 25 24 21 20 21 27
94 90 85 82 78 74 71 70 67 65 63 63 61 56 55 56 53 49 51 47 47 50 51 43 34 24 29 31 30 35 40 41 41 43 44 42 40 38 35 32 28 31 27 27 25 21 22 23 26 26 24 23 20 25
90 86 82 79 75 71 68 68 65 62 63 63 59 55 55 56 53 50 50 48 46 46 48 45 35 29 28 32 34 32 39 46 46 47 48 47 46 43 39 37 33 29 29 22 20 25 23 22 24 27 26 22 22 25
87 84 80 76 73 71 68 66 62 64 64 63 60 55 55 56 53 51 49 48 43 43 43 39 35 33 29 32 36 35 36 47 52 51 50 51 49 46 43 40 31 30 31 28 24 21 22 23 25 24 23 23 24 26
85 81 78 75 73 71 67 64 62 64 64 61 60 55 55 55 53 51 52 47 41 39 32 32 32 31 30 33 36 39 39 45 56 55 53 52 52 50 47 38 33 35 35 33 28 27 26 25 22 22 22 24 27 28
84 81 78 76 73 71 65 62 62 61 64 58 58 55 54 52 52 50 50 47 40 32 29 27 25 24 27 30 35 42 43 44 52 58 56 51 49 50 45 37 35 39 38 36 30 28 23 18 18 19 20 25 28 30
83 81 78 76 71 68 64 60 60 59 60 61 57 53 52 50 49 49 50 44 37 28 25 20 17 18 21 27 34 40 42 44 47 57 57 51 48 48 44 40 37 42 41 36 31 30 26 22 19 20 23 27 30 32
79 77 76 71 68 65 61 57 60 55 57 59 56 53 52 49 47 44 44 39 32 25 22 16 13 14 18 23 28 33 37 40 45 52 56 56 53 49 44 41 41 42 41 38 33 29 27 27 25 24 24 27 29 30
73 72 71 67 63 62 58 55 56 55 54 57 55 51 50 48 46 46 43 36 31 29 26 17 13 13 16 20 24 28 32 37 42 47 56 58 57 52 49 45 43 43 42 40 35 32 29 28 28 30 27 27 29 27
69 66 64 63 61 58 56 54 54 51 53 53 54 50 48 47 44 42 38 32 30 27 22 15 11 11 14 17 20 24 28 31 36 41 49 57 59 57 53 50 46 45 45 42 38 35 32 31 30 30 29 32 31 27
64 62 60 59 57 56 55 52 53 50 52 50 50 48 46 44 41 39 35 30 27 26 20 14 11 10 14 15 16 19 23 25 27 32 41 52 59 60 57 54 51 49 47 45 42 40 36 34 33 33 34 32 29 28
59 58 58 56 55 54 53 52 51 51 49 49 48 46 44 42 38 37 34 27 26 23 20 14 12 11 13 14 15 16 18 20 24 29 35 42 52 61 61 58 56 54 50 48 45 42 41 38 37 36 35 31 29 27
54 55 54 53 53 52 50 51 52 49 47 48 46 43 40 39 36 33 31 26 24 22 18 14 13 11 14 16 16 16 16 17 19 25 31 36 44 52 60 64 61 57 54 52 51 46 43 42 38 35 32 30 28 27
51 53 53 52 51 50 50 50 49 47 47 47 43 41 39 38 34 32 29 25 23 22 17 15 14 12 15 17 18 16 16 16 17 22 27 32 38 44 51 55 60 61 58 55 51 48 48 45 37 35 31 32 32 31
50 50 48 50 51 49 48 50 48 46 46 45 42 41 37 35 33 31 29 24 23 21 18 17 14 13 15 17 19 19 19 19 18 19 23 29 34 39 43 48 52 56 57 57 54 50 49 46 39 37 37 37 37 35
50 46 47 48 48 46 45 46 47 45 43 43 41 39 36 33 31 30 29 23 23 21 19 19 17 13 14 18 20 19 19 20 21 22 22 25 31 36 41 44 47 50 53 53 51 50 48 46 42 39 42 42 42 40
49 45 46 46 44 44 43 44 42 41 41 40 39 38 36 32 30 29 29 26 23 23 22 21 20 19 17 17 17 17 18 20 22 26 26 26 27 33 38 43 47 49 52 52 52 50 49 49 46 46 44 45 45 44
45 45 45 45 43 41 41 42 41 39 38 38 37 37 37 33 29 29 29 28 26 24 24 23 23 19 19 21 20 18 17 20 25 27 27 32 34 35 37 42 46 50 52 53 53 53 51 51 51 51 49 47 47 46
44 44 46 44 40 40 40 41 40 38 38 36 36 37 36 31 29 30 29 29 27 27 25 24 24 23 23 23 22 22 22 20 20 25 29 31 31 34 38 42 45 49 52 54 55 56 55 55 55 56 55 54 52 51
43 45 47 40 39 39 39 38 38 39 37 36 36 36 34 30 32 30 30 28 28 29 28 27 26 27 26 25 26 25 25 25 25 25 26 29 33 34 35 39 43 49 51 54 58 60 61 60 60 59 60 60 59 57
43 45 45 40 39 37 37 39 39 40 39 37 36 35 32 32 32 32 30 30 30 29 29 28 28 28 28 28 28 28 27 28 29 29 29 29 31 34 34 36 39 43 46 50 55 59 62 64 64 64 64 63 63 62
43 46 44 39 38 36 39 42 42 40 39 38 36 34 31 31 32 32 32 34 31 27 31 31 31 31 31 31 30 29 29 29 30 30 31 33 33 34 36 38 38 37 41 46 51 54 57 60 65 68 69 69 68 67
43 47 40 35 36 39 42 43 42 39 38 37 35 33 32 32 32 33 36 34 29 32 34 34 33 34 32 31 31 31 32 32 32 32 33 34 36 36 36 36 38 41 43 41 42 47 52 54 58 64 67 69 71 73
40 39 32 35 42 44 45 43 40 39 38 36 34 32 33 33 32 34 36 33 31 35 35 34 35 33 31 30 31 33 34 34 34 35 35 39 39 37 37 39 40 40 40 44 46 47 45 45 48 51 55 60 64 70
37 36 35 42 44 44 44 43 41 39 36 33 33 34 33 32 32 36 36 32 33 35 35 36 33 31 30 31 31 33 34 35 36 37 35 38 39 40 39 40 42 42 40 43 45 46 47 49 51 51 49 49 50 54
34 36 43 48 46 43 41 41 38 35 34 34 34 34 32 32 34 35 33 33 34 34 34 34 33 31 31 33 35 34 34 35 36 38 39 39 37 37 39 41 44 43 41 43 46 48 48 48 50 52 53 54 53 51
38 47 46 44 40 40 40 37 34 33 33 34 33 32 32 33 34 33 33 33 32 33 32 32 32 32 32 34 35 35 35 36 37 39 41 41 36 34 37 42 45 46 45 45 46 49 51 52 52 53 53 54 55 57
44 44 41 40 38 38 37 35 34 33 31 31 31 32 34 32 31 33 33 33 33 34 33 32 33 33 34 34 33 34 35 36 38 39 40 41 39 36 38 44 47 48 48 47 46 48 50 52 54 53 54 55 57 57
41 40 39 38 38 37 35 34 33 31 31 32 32 32 31 32 34 33 32 33 33 33 33 33 32 31 31 31 32 33 34 35 36 37 39 41 43 43 42 44 47 48 47 47 46 45 46 47 49 50 51 51 50 51
37 39 39 38 37 36 34 33 32 33 33 31 30 32 32 33 32 32 32 32 31 30 31 31 31 30 29 32 34 35 32 32 35 38 42 44 45 45 44 43 41 42 42 41 41 42 43 43 44 44 45 47 49 51
43 42 40 37 34 32 31 32 34 33 31 32 33 32 30 31 30 29 30 31 29 29 29 28 27 29 32 33 33 33 34 35 37 39 42 43 44 44 41 39 36 35 36 38 38 39 41 42 43 43 44 44 46 46
34 32 32 30 31 33 34 34 34 33 33 33 32 31 31 30 29 28 27 28 27 25 25 27 29 31 33 32 32 34 36 38 40 40 39 40 38 35 34 33 33 33 34 34 34 34 34 34 36 37 39 41 43 45

GFSWCAN_250_spd_027.txt.gz
Wind_Speed
99 96 96 93 90 85 81 77 74 70 67 63 61 60 59 57 53 54 47 44 40 42 36 30 27 29 27 24 23 27 29 31 28 33 31 30 30 30 32 33 31 31 30 28 25 23 26 26 28 27 27 31 28 24
96 94 91 89 87 82 78 75 71 67 65 61 60 57 58 56 54 53 48 42 41 43 44 36 34 29 27 26 26 26 30 34 33 35 37 34 33 34 34 33 33 31 28 28 24 24 22 25 28 29 27 31 30 26
90 89 87 86 83 80 77 73 69 66 64 61 60 57 57 55 53 53 49 44 43 44 46 45 41 33 29 29 27 28 31 33 39 39 40 39 39 38 38 36 31 29 30 29 24 26 24 22 27 28 30 31 29 26
86 86 85 84 83 80 77 74 70 67 64 62 59 57 55 53 54 52 47 45 44 40 39 49 45 39 31 27 30 34 30 33 38 44 45 45 43 44 42 39 34 29 30 28 29 28 26 23 26 27 30 30 31 29
84 84 84 83 81 80 77 73 70 66 63 62 61 56 54 52 53 53 47 45 43 41 40 44 42 42 35 29 31 37 32 34 37 45 48 50 49 47 45 43 36 34 31 32 31 29 31 32 31 29 26 26 29 26
84 83 79 78 76 76 74 71 68 64 62 61 59 54 53 52 52 51 48 46 43 42 38 35 35 35 36 34 33 37 37 34 38 42 50 52 53 50 49 46 39 39 36 32 33 31 33 31 31 28 27 27 28 27
81 79 76 74 73 72 70 68 63 61 61 58 56 51 51 52 50 49 47 49 44 38 33 32 28 26 29 32 32 39 40 37 38 41 47 53 52 54 53 47 44 44 41 37 34 35 37 29 29 30 29 27 27 29
74 72 71 69 69 69 65 64 59 58 59 56 52 49 48 51 48 48 44 45 44 37 31 25 20 18 20 23 30 33 40 38 38 40 43 48 53 53 55 49 49 48 45 41 37 38 38 33 31 28 27 27 27 29
69 69 69 65 66 66 63 59 56 56 56 53 50 46 48 49 48 44 42 40 40 33 29 22 15 14 13 18 24 29 35 39 40 40 40 44 54 56 55 51 51 51 48 44 39 40 39 35 34 31 31 29 27 26
71 69 69 64 63 62 61 55 53 54 51 52 47 45 48 47 45 43 41 40 36 32 29 21 17 16 11 14 18 23 29 36 40 43 43 44 52 59 55 51 50 50 48 45 41 40 41 36 34 31 32 33 33 33
69 67 66 62 58 56 56 52 49 50 51 52 48 42 45 45 44 40 38 37 33 29 26 21 18 16 12 13 16 21 25 31 38 41 44 45 49 55 58 53 50 48 47 45 41 41 43 41 37 34 33 32 32 33
66 63 61 60 57 53 51 48 47 48 49 51 48 41 42 43 41 37 34 34 31 26 24 20 18 15 12 12 15 18 22 25 28 30 36 41 44 52 59 56 53 49 47 44 41 43 44 42 40 38 36 35 34 32
61 61 57 55 54 50 45 45 45 44 47 49 48 42 40 40 40 37 33 31 29 25 23 20 17 14 13 13 14 16 18 20 24 28 32 33 39 47 57 59 56 53 50 48 44 43 44 44 43 41 38 37 36 36
58 56 54 51 49 46 43 42 43 44 46 48 46 44 38 40 37 35 31 29 27 24 22 20 17 14 12 14 15 17 18 21 25 27 29 31 36 42 52 61 60 57 54 52 50 48 47 47 46 43 43 41 40 37
55 51 49 49 46 43 42 41 43 44 45 45 46 43 41 39 34 32 31 28 25 22 21 21 18 15 13 14 16 18 20 22 23 25 27 29 33 39 45 53 61 61 59 60 56 54 52 52 49 48 48 44 43 38
52 49 47 46 43 42 42 42 42 42 43 43 45 44 39 36 33 32 30 28 25 23 22 21 19 17 13 14 15 17 20 20 22 24 26 27 30 33 39 45 52 61 65 63 61 59 58 58 55 53 52 47 45 43
50 45 46 45 43 43 42 40 40 41 42 42 42 40 36 34 33 33 30 28 26 24 22 22 21 18 17 15 12 14 11 16 19 23 25 25 27 30 34 39 44 50 58 63 67 66 64 63 61 58 56 53 49 47
47 44 46 45 43 42 40 39 40 41 41 41 40 37 35 33 33 33 30 27 26 25 23 24 22 21 18 16 11 11 14 18 18 19 23 28 28 28 30 34 39 45 50 55 59 62 64 64 63 62 60 57 51 48
46 45 45 45 43 40 40 40 39 41 40 38 37 34 32 32 33 32 30 27 27 27 24 24 25 23 19 19 19 16 15 15 18 22 23 24 25 30 33 35 38 42 47 51 55 58 60 61 61 59 59 58 55 52
45 43 43 45 43 39 40 41 40 41 39 38 35 33 33 33 33 32 29 28 28 27 27 27 25 23 24 23 22 22 21 20 19 19 20 22 26 27 27 29 33 39 43 48 52 55 57 57 59 59 59 58 57 55
46 43 43 44 42 38 40 41 40 41 40 37 34 34 34 34 33 30 28 28 29 30 30 26 25 26 25 26 25 24 23 22 23 23 24 25 24 24 28 31 32 34 35 39 45 51 57 58 58 58 59 59 59 59
46 42 42 41 39 36 40 43 41 41 41 38 35 34 35 35 32 30 28 29 32 33 30 26 26 28 26 26 28 26 26 25 25 26 26 28 29 31 31 31 31 32 36 39 42 45 48 53 58 60 61 61 63 63
46 42 39 38 36 37 42 43 42 40 41 39 35 35 35 34 32 29 29 32 34 30 28 28 29 29 28 27 27 27 27 27 27 28 29 29 30 31 33 34 37 38 37 36 39 44 47 49 53 55 58 60 62 62
44 39 36 34 36 41 45 44 43 41 41 39 36 34 35 34 32 31 33 35 32 29 30 31 32 32 29 29 30 30 29 28 29 30 31 31 31 32 32 34 36 39 42 43 43 44 43 44 47 51 54 57 58 59
41 34 31 37 42 45 46 45 43 40 39 38 36 33 34 33 33 34 36 33 32 32 32 32 31 30 30 29 30 31 31 30 30 32 32 35 35 34 34 36 36 36 38 43 46 47 47 47 46 46 46 47 49 53
36 30 35 41 44 46 46 45 42 39 38 37 36 32 32 33 34 36 35 33 33 32 33 33 31 31 31 30 30 31 32 32 34 34 33 35 36 37 37 38 39 38 39 44 46 48 49 50 50 49 48 45 45 47
28 34 44 48 47 46 43 41 38 37 36 34 32 33 35 35 35 35 33 33 33 33 34 34 34 33 30 30 30 33 33 34 35 36 36 35 35 37 39 42 43 43 41 42 44 46 47 46 47 48 49 49 50 49
31 43 51 52 45 41 39 37 35 35 34 34 34 35 34 34 34 33 32 32 33 34 34 34 32 30 30 31 31 33 34 34 35 35 36 37 37 38 41 42 44 45 44 42 41 42 45 46 46 46 47 47 48 50
35 44 47 39 38 36 37 37 35 32 31 32 32 33 35 34 34 33 32 33 33 32 32 32 31 31 32 32 32 32 32 33 34 36 38 41 40 40 40 41 42 43 44 44 42 41 41 44 45 46 46 48 48 47
45 43 35 31 31 35 35 31 30 28 30 31 33 34 33 33 33 34 34 33 33 32 32 31 32 31 29 31 31 30 32 34 36 38 41 42 41 41 40 39 39 41 42 43 42 41 43 45 45 46 46 47 47 47
33 28 25 27 32 30 28 27 28 30 31 32 32 32 31 33 34 33 32 32 32 31 31 31 30 28 29 29 29 30 33 36 37 37 38 40 40 39 38 38 39 40 40 42 44 43 43 45 45 45 46 46 46 47
28 26 27 32 31 27 26 28 29 30 30 30 30 30 31 32 33 32 32 32 30 29 29 28 28 28 29 30 32 33 33 33 34 36 36 38 38 39 40 41 39 38 38 39 39 38 39 41 43 44 45 45 46 45
28 29 28 28 27 28 27 28 30 31 31 30 29 30 31 32 33 31 30 29 28 27 27 27 27 28 29 31 32 33 32 32 33 33 34 36 39 38 37 36 36 35 35 36 37 39 40 40 41 41 41 43 44 44

GFSWCAN_250_spd_030.txt.gz
Wind_Speed
99 98 94 89 86 84 82 79 77 76 72 68 64 59 55 53 50 49 47 46 43 40 34 34 33 29 27 26 28 23 23 27 25 26 25 26 29 30 30 29 28 29 29 27 26 25 24 25 26 27 30 34 35 32
96 91 87 85 84 83 82 80 77 73 71 67 63 57 53 51 49 47 44 44 41 41 40 37 35 32 30 27 29 30 28 28 28 29 31 28 33 32 30 30 30 30 28 28 28 25 26 27 26 29 30 32 33 31
88 85 83 81 81 81 81 77 74 72 69 65 61 56 53 51 48 47 45 43 40 40 38 43 38 36 32 32 30 31 37 32 31 32 34 33 35 35 31 30 30 30 32 31 29 27 26 26 28 30 31 31 28 28
77 79 80 79 78 77 77 74 71 68 65 62 60 56 50 50 47 45 43 43 38 37 39 42 43 45 37 33 32 39 38 35 32 34 34 37 37 37 34 32 33 34 34 30 30 30 30 29 30 28 26 28 29 28
73 75 77 77 74 74 73 69 66 65 63 60 58 53 50 49 46 43 43 45 39 36 37 38 42 43 42 40 35 43 41 37 35 36 37 39 40 41 37 36 38 38 35 34 31 32 32 29 29 25 23 26 28 29
71 75 73 72 70 69 67 67 64 62 61 60 56 52 48 48 44 43 43 44 39 37 34 35 41 41 38 36 36 37 37 34 36 37 39 38 43 43 43 42 42 44 40 37 34 34 33 30 34 30 29 29 28 29
75 72 71 68 67 67 66 64 62 61 60 59 56 50 47 47 43 42 45 45 39 39 34 35 35 37 33 30 31 30 32 34 38 37 40 39 41 45 48 48 48 50 45 41 37 35 36 33 33 34 31 32 31 32
75 72 70 67 65 66 64 61 60 58 58 57 52 45 45 44 42 43 43 42 38 42 36 33 32 30 27 25 24 25 28 37 36 37 39 39 39 47 51 54 51 53 50 47 43 38 34 36 33 33 33 34 33 32
78 76 73 70 68 67 62 61 57 56 53 52 47 43 42 43 42 43 43 38 36 37 34 31 29 24 21 17 16 19 25 33 37 38 38 38 41 45 56 53 54 56 54 52 48 43 40 35 34 35 36 35 31 31
81 79 77 71 68 65 56 55 51 50 48 45 42 41 42 43 40 40 42 38 35 34 30 28 23 19 16 12 11 15 21 30 34 34 35 40 44 45 47 54 56 58 58 56 52 47 44 39 36 36 38 38 36 35
82 83 77 72 66 57 54 50 47 46 43 40 39 41 42 43 39 39 38 36 32 30 26 24 20 17 13 12 10 13 18 23 29 36 38 40 44 42 41 49 56 57 59 58 54 51 49 44 43 39 41 40 36 35
82 79 75 66 53 54 49 47 44 42 41 39 37 41 43 44 40 37 35 34 31 27 23 21 17 14 11 9 11 12 16 22 28 31 36 40 40 43 44 43 48 57 57 58 56 53 52 48 45 42 43 44 40 38
83 76 69 65 59 51 48 45 41 41 38 37 38 40 41 42 40 35 32 32 29 25 22 19 17 14 11 10 10 13 16 20 25 31 35 35 38 42 44 45 45 49 58 56 56 56 53 50 48 45 44 46 44 41
75 68 64 54 46 45 45 43 41 38 38 39 39 39 40 41 38 34 30 30 27 25 21 17 16 14 12 12 11 13 16 20 23 25 27 30 32 36 39 43 46 47 53 58 56 53 50 49 49 46 43 45 45 44
67 61 54 50 47 43 42 42 40 39 39 42 42 40 39 38 36 34 30 29 28 24 21 17 15 15 13 13 12 13 16 20 22 23 24 25 27 29 32 36 41 44 49 56 58 54 52 51 50 48 45 45 47 47
62 55 50 46 43 41 41 41 41 42 43 43 41 38 37 36 35 32 31 29 28 24 23 19 16 15 15 15 13 14 14 20 23 24 25 27 28 29 31 33 37 40 45 53 58 57 56 55 54 52 51 50 50 49
59 54 48 43 41 41 39 39 41 43 44 43 41 38 37 35 33 30 31 30 28 25 23 21 18 16 17 17 15 12 10 18 23 25 27 28 28 29 30 31 34 38 42 49 56 60 61 60 60 58 56 56 55 54
55 50 47 46 40 40 39 40 41 43 43 42 41 39 36 34 31 30 31 30 28 26 24 22 20 19 21 17 13 17 17 20 21 21 23 25 28 29 30 32 33 36 41 46 50 57 62 66 66 65 63 62 62 61
54 51 47 43 41 41 39 40 41 43 41 41 41 39 35 32 30 30 31 31 28 26 25 24 23 25 21 16 19 21 19 18 18 20 22 23 23 25 25 29 33 36 39 43 47 50 54 59 64 68 69 69 68 67
52 48 46 42 39 39 38 40 40 43 41 40 40 39 35 33 31 30 32 31 28 27 28 30 31 21 19 22 23 22 21 22 22 21 20 20 22 25 26 26 26 27 31 37 41 45 47 49 53 58 62 65 66 67
49 44 43 38 35 34 37 40 41 42 42 40 39 38 34 32 31 31 31 29 29 32 34 33 25 20 24 26 25 25 25 25 25 25 26 25 25 24 23 23 26 29 31 33 34 37 40 44 47 49 51 56 60 61
45 42 39 35 32 31 38 43 42 41 42 41 39 37 34 32 31 29 30 32 35 36 32 28 25 25 28 27 27 27 26 26 28 28 28 29 29 28 28 28 28 28 28 31 35 38 40 42 43 45 48 50 51 55
42 40 37 35 31 34 41 43 41 41 42 44 38 35 33 32 31 29 33 34 35 31 28 27 28 29 29 29 27 26 25 26 28 29 30 30 30 30 30 31 32 33 34 36 37 38 38 39 42 45 47 48 50 52
40 38 36 34 35 40 46 44 43 44 43 43 38 34 33 31 31 32 35 34 30 29 30 30 33 33 31 29 26 26 29 29 29 30 32 33 34 34 33 34 35 36 37 38 40 41 42 42 43 44 45 45 46 48
35 34 33 35 38 44 46 46 45 43 43 40 37 34 32 30 32 36 36 30 31 32 32 32 33 34 33 30 29 29 31 32 32 32 31 32 33 35 35 37 38 38 39 42 43 43 43 45 46 46 45 45 45 47
32 30 35 39 42 46 46 47 46 43 40 37 38 35 33 32 36 39 33 31 32 32 33 33 33 32 31 30 31 33 34 33 33 32 30 33 32 34 35 36 38 37 40 43 45 45 44 44 45 47 48 48 48 47
32 36 38 42 47 46 44 44 42 39 39 39 40 36 35 35 38 37 32 32 31 31 31 31 32 32 32 32 34 34 34 34 35 34 33 34 33 33 35 37 39 41 42 44 45 46 47 46 45 46 48 49 50 51
33 34 39 41 40 39 38 38 38 36 38 39 38 34 35 36 35 33 32 30 30 31 31 32 33 33 33 33 34 34 34 33 34 35 35 34 33 34 37 40 42 44 46 46 46 46 46 46 47 47 47 47 44 45
38 39 36 34 29 25 30 32 30 33 37 35 32 33 36 34 32 32 31 30 30 30 31 32 32 32 32 32 33 33 33 34 35 35 35 35 35 36 39 41 43 45 46 48 47 45 43 43 43 43 43 44 45 44
41 33 30 28 23 27 30 25 24 28 29 29 32 34 34 32 32 31 29 29 28 29 30 30 30 31 32 33 34 33 33 32 32 34 36 37 38 38 38 39 41 43 45 45 45 43 41 43 42 41 42 43 43 43
33 30 30 24 24 24 23 23 24 27 28 30 32 33 32 32 31 30 29 28 28 28 28 29 30 31 32 31 31 30 31 32 34 35 37 38 38 38 39 40 41 42 42 43 43 43 44 45 47 47 46 47 46 46
33 27 22 20 19 21 20 20 25 28 29 32 33 31 30 30 30 29 28 28 27 27 28 29 29 28 28 28 29 30 32 33 34 35 36 37 38 39 40 40 40 41 41 42 42 42 43 44 44 45 46 47 47 46
28 24 20 19 22 26 29 28 28 29 31 31 30 30 30 30 29 28 29 29 26 26 26 26 25 25 25 27 29 30 31 32 33 34 35 37 38 38 38 39 40 39 39 39 37 37 36 36 37 38 39 40 40 40

GFSWCAN_250_spd_033.txt.gz
Wind_Speed
88 81 76 74 76 76 77 77 77 73 71 67 63 61 56 55 51 47 45 43 39 34 31 30 26 24 23 22 25 27 26 26 23 24 23 24 21 21 27 26 26 24 23 23 22 23 22 23 23 27 30 30 28 28
90 77 72 68 73 74 74 74 74 71 68 66 62 58 55 54 51 46 44 43 39 36 34 30 27 26 26 24 25 26 28 32 26 26 28 25 28 24 28 32 31 29 28 28 30 28 27 27 27 28 29 28 28 29
89 81 74 68 69 71 71 69 70 67 64 63 61 59 56 53 50 46 43 41 38 35 38 33 30 26 29 28 27 31 34 34 34 29 29 29 29 32 31 33 33 33 31 32 31 30 32 32 32 30 30 29 28 29
88 82 75 69 71 72 72 69 65 64 62 60 60 58 56 53 50 47 43 41 40 37 39 33 31 29 32 34 31 32 40 36 38 35 30 32 34 35 34 36 35 33 32 32 31 31 34 34 31 28 26 26 29 29
88 80 75 75 74 73 72 71 63 60 60 61 59 56 54 53 50 45 42 41 41 40 40 33 32 33 34 37 38 35 35 38 39 39 34 37 36 37 39 38 40 34 32 32 31 35 36 33 30 29 30 30 30 31
90 82 76 79 77 76 74 71 65 58 58 58 55 52 51 51 47 43 40 40 42 41 40 31 34 33 35 36 36 39 32 33 38 36 37 38 39 37 41 44 42 38 34 33 35 37 36 34 31 31 30 28 28 26
98 85 83 82 77 75 73 68 63 61 56 54 51 48 47 47 43 40 38 40 42 41 35 32 33 32 32 35 35 31 27 32 30 32 35 39 38 38 42 48 46 42 39 38 41 40 36 34 33 33 30 29 29 25
106 97 93 84 77 75 72 65 61 57 52 45 45 45 44 41 38 38 38 40 40 40 32 32 32 30 30 30 30 27 26 28 31 29 33 37 36 41 45 48 47 46 44 43 44 43 38 35 33 33 31 30 31 31
109 101 92 82 78 74 67 66 61 54 42 43 42 42 41 37 35 37 38 38 38 37 32 29 30 27 28 28 25 23 21 24 26 32 35 33 37 43 48 43 48 51 49 46 47 46 42 38 35 34 35 33 34 35
110 101 89 82 78 69 67 62 54 49 43 40 37 39 38 36 37 38 38 35 34 34 28 30 28 25 24 23 21 19 18 18 20 23 29 43 45 44 45 42 45 53 52 48 49 49 48 42 38 36 33 34 35 35
107 96 91 86 76 69 67 58 52 49 43 38 36 37 37 38 39 39 37 32 31 30 26 26 26 24 20 17 15 16 16 18 24 29 36 43 43 38 41 43 44 49 55 54 51 53 53 49 45 42 40 38 35 34
107 98 89 80 73 69 60 51 45 43 40 36 34 36 37 38 42 41 36 32 29 28 24 23 23 21 20 16 13 12 16 19 23 26 35 41 38 38 40 43 44 45 52 57 57 55 55 54 50 49 47 45 42 40
104 96 88 78 74 63 55 48 42 38 39 38 35 36 38 39 42 41 35 29 28 26 23 21 21 19 18 17 14 12 14 18 22 27 31 31 33 41 41 41 42 45 44 51 57 60 58 56 55 53 52 50 48 45
100 93 86 79 69 60 51 43 41 39 39 38 38 39 41 43 42 40 36 29 29 26 22 21 20 20 18 16 15 13 13 15 17 21 26 30 34 36 39 41 42 44 45 43 48 58 59 60 58 56 56 54 52 50
95 88 83 74 65 59 46 42 42 40 37 39 39 40 41 42 42 39 36 30 29 27 23 22 20 20 19 17 15 16 13 14 17 19 22 24 27 31 34 36 39 41 44 46 46 46 55 60 58 59 58 56 52 51
87 82 77 67 57 53 48 45 42 40 39 40 40 40 40 42 40 39 36 32 28 27 25 23 21 21 20 20 18 17 15 15 18 20 22 23 24 25 26 29 31 34 38 42 46 48 49 53 61 59 58 57 56 55
79 75 70 61 57 53 47 45 42 40 40 42 42 41 39 40 39 38 36 34 29 29 27 25 24 22 24 23 21 17 13 16 20 22 23 24 25 26 27 28 29 30 32 35 38 43 48 52 57 63 62 58 56 55
74 65 60 60 49 46 43 44 42 42 41 42 43 42 40 38 38 38 37 35 30 29 27 26 27 25 26 26 19 18 20 21 20 22 24 24 25 25 26 26 26 27 31 34 35 38 42 47 54 60 64 62 59 58
63 58 56 56 47 41 40 40 41 42 43 42 43 42 41 38 37 38 36 33 31 29 29 29 29 33 29 23 20 22 23 22 20 18 20 24 24 23 24 23 23 23 24 28 32 35 37 41 46 53 59 62 63 62
54 49 51 50 44 39 38 38 40 40 45 43 42 43 40 38 38 37 34 31 34 33 33 35 38 34 23 20 23 24 25 24 23 22 22 21 22 23 23 24 24 24 25 25 26 28 32 36 39 44 50 55 59 62
50 45 46 49 44 38 38 38 40 40 43 43 41 41 39 38 37 34 33 34 37 39 37 36 32 24 21 23 29 29 26 26 25 25 24 24 24 23 22 22 23 25 27 28 28 29 30 31 33 36 40 44 48 51
44 42 49 49 42 37 39 40 42 43 42 44 40 38 39 38 36 34 34 37 38 36 36 32 28 27 30 31 31 31 27 26 27 27 26 27 26 26 26 27 28 27 28 27 27 28 30 32 34 35 37 39 41 43
38 43 48 46 40 40 43 42 43 45 42 42 39 37 40 38 36 35 39 37 36 36 37 33 31 31 33 32 32 29 27 28 29 29 29 29 30 30 31 31 32 32 32 32 32 32 32 34 34 34 35 36 38 40
42 45 45 42 42 41 44 43 42 43 41 40 37 38 40 37 36 39 41 34 37 36 37 33 34 35 34 31 29 29 29 31 29 29 31 32 32 34 35 36 36 36 36 36 36 35 36 38 38 38 39 39 40 40
42 42 41 43 43 43 44 44 40 40 41 36 36 38 40 38 40 42 38 36 37 37 37 35 35 35 34 31 31 33 33 32 31 32 32 33 35 36 36 36 37 39 42 42 41 41 41 42 42 43 42 43 43 43
40 41 44 45 43 42 42 42 37 36 38 35 37 39 40 40 43 44 37 36 36 36 36 34 33 33 33 33 33 32 32 33 33 32 34 35 35 35 34 36 38 38 41 43 43 44 44 44 45 46 45 44 44 45
43 44 43 42 41 38 37 34 30 31 32 32 37 40 39 42 43 40 37 36 36 34 33 33 33 33 33 33 32 32 31 32 33 33 34 35 35 35 36 39 40 40 42 44 45 45 46 45 45 45 44 44 43 44
43 40 41 36 31 31 29 25 24 26 26 29 34 33 35 39 38 36 35 35 34 32 33 33 34 33 32 32 32 31 32 33 34 34 33 32 33 35 38 39 39 40 42 44 46 46 45 45 44 44 44 46 45 45
39 35 31 31 28 25 23 24 23 22 20 23 27 28 32 34 33 34 33 34 34 33 32 33 33 33 32 32 32 32 32 33 33 33 34 33 33 35 37 38 41 43 44 45 44 43 42 43 43 44 44 46 45 43
30 26 26 29 25 25 27 20 22 17 19 23 27 29 30 29 30 32 32 33 33 33 32 32 32 31 30 30 30 30 31 32 32 33 32 32 33 34 36 39 41 41 41 42 42 41 41 43 43 43 42 41 40 40
29 26 31 29 27 22 16 21 21 21 26 30 31 31 29 27 30 30 31 32 33 32 31 31 32 30 29 29 29 29 30 30 30 30 31 33 35 37 37 36 36 37 38 40 41 42 41 40 41 42 42 43 44 43
26 28 27 23 14 11 16 21 25 30 32 32 31 28 29 31 30 28 29 30 31 31 30 30 29 28 27 27 27 27 28 29 30 32 33 34 34 35 35 34 35 35 37 39 40 41 41 42 43 45 45 46 46 45
26 25 22 20 19 21 23 27 30 33 33 31 28 30 32 30 28 26 27 30 29 28 27 26 25 25 24 25 25 26 28 30 30 31 31 31 31 32 33 34 34 35 37 40 42 42 43 43 43 43 42 42 41 40

GFSWCAN_250_spd_036.txt.gz
Wind_Speed
105 95 82 83 84 85 84 74 71 65 63 65 61 55 54 55 54 51 47 43 40 39 38 33 32 31 27 24 25 28 25 26 21 22 23 20 22 25 24 25 24 23 21 21 21 21 20 24 28 32 35 37 38 39
116 104 85 80 84 84 81 75 79 71 65 67 61 54 53 55 55 52 47 45 42 40 40 34 33 32 29 27 26 29 29 30 25 25 27 24 24 27 28 28 29 28 27 25 24 22 24 23 24 26 32 35 37 37
126 109 95 83 84 85 77 76 78 72 70 67 61 54 52 55 55 50 46 43 42 42 41 36 33 33 30 29 30 31 32 31 29 30 28 27 28 29 32 34 34 35 33 33 30 28 26 27 27 27 30 32 33 34
136 127 97 89 87 85 78 75 77 77 69 66 60 55 52 52 52 50 45 42 42 43 42 37 36 36 33 32 32 33 33 33 33 34 32 30 32 33 33 38 38 40 40 38 36 34 32 32 31 32 33 36 35 34
139 135 127 94 90 90 81 83 84 79 75 65 57 54 54 50 47 46 44 41 40 41 42 40 38 36 33 31 32 35 37 35 34 34 33 36 35 36 37 37 43 43 44 43 41 37 36 34 35 35 37 38 36 36
136 136 126 124 93 91 79 82 87 86 77 67 58 55 52 49 43 42 42 41 38 39 42 40 39 37 34 34 35 35 38 35 30 35 37 37 40 38 36 41 43 45 46 45 42 39 37 37 37 37 39 39 37 35
136 139 136 123 110 91 80 80 84 86 75 65 58 53 48 39 40 41 41 41 39 41 41 40 37 35 36 33 32 35 36 36 31 33 40 38 42 36 38 44 41 45 47 47 44 39 35 36 38 40 40 38 35 34
134 138 141 125 115 98 82 86 89 86 74 63 58 52 44 38 40 40 41 40 40 42 41 38 35 34 37 32 31 32 31 29 26 31 35 35 40 38 43 43 40 45 48 47 45 39 36 36 40 41 41 38 35 34
134 136 135 133 121 110 88 92 87 82 70 61 54 49 44 41 41 39 39 38 40 40 41 35 31 33 35 31 27 26 25 22 22 27 33 37 39 43 45 40 40 44 48 47 47 43 39 40 42 42 42 40 36 35
135 136 130 132 120 104 95 91 85 77 65 58 51 46 43 41 39 40 36 37 38 37 39 35 30 29 33 27 25 24 21 18 21 24 29 36 42 43 39 38 38 43 45 49 48 48 44 45 45 43 42 41 39 37
134 133 136 132 118 99 93 87 82 67 61 50 48 41 42 40 39 38 36 34 37 36 37 33 31 27 26 26 24 21 17 15 19 19 27 35 37 35 34 35 38 42 46 49 51 51 50 47 49 47 44 42 40 38
136 138 135 126 117 101 92 83 74 64 55 48 45 44 41 40 38 37 35 34 34 34 34 30 30 26 24 23 22 20 17 14 17 22 29 29 31 34 37 38 37 39 43 45 49 52 53 52 51 51 48 46 43 40
139 139 124 119 112 101 90 81 69 59 51 44 42 42 38 40 38 37 35 34 33 32 34 29 27 26 23 22 22 19 17 15 18 23 26 28 32 36 38 39 39 38 40 44 47 49 54 55 52 52 53 51 48 46
143 128 123 113 107 95 88 72 60 55 45 42 40 40 40 38 41 39 35 34 34 32 33 31 26 27 25 23 21 20 20 18 18 19 22 29 34 38 40 39 38 38 38 41 45 47 50 55 55 55 56 56 54 52
137 125 116 108 99 88 78 66 58 54 44 41 41 41 41 39 40 40 36 34 33 32 31 31 27 27 26 25 24 21 19 19 20 20 21 24 28 34 37 39 40 41 41 42 43 45 48 48 55 58 59 58 58 57
121 116 110 101 90 80 67 60 54 49 42 43 42 41 42 42 39 39 37 35 34 33 32 31 30 29 27 28 26 24 22 21 22 21 21 23 25 28 29 31 34 37 40 42 43 43 46 49 48 53 60 61 62 61
111 107 100 93 82 70 55 57 51 48 46 42 42 41 41 42 41 39 39 38 35 34 32 32 31 31 30 30 28 25 24 22 23 21 22 22 22 24 25 26 27 29 31 34 37 41 44 48 50 49 50 56 62 63
105 97 88 83 75 53 51 52 55 45 46 43 42 42 40 42 42 40 39 40 37 36 34 34 33 34 33 34 30 27 24 23 24 25 22 21 22 23 23 23 23 23 25 27 29 32 35 41 46 50 52 53 53 55
94 89 82 74 60 46 43 46 55 46 42 45 42 43 42 43 42 40 40 40 39 37 34 33 34 38 37 34 29 26 25 27 30 28 22 21 22 22 23 22 20 20 20 22 23 24 28 33 36 40 43 48 52 55
86 80 73 63 52 44 44 44 52 48 42 43 45 41 44 44 43 40 41 41 40 38 34 34 36 39 35 31 26 29 29 30 31 29 26 24 23 23 24 24 24 24 24 24 25 26 26 26 28 32 35 39 42 45
79 73 64 60 49 48 38 44 51 48 40 41 45 42 40 42 41 41 42 42 40 36 36 37 37 39 35 33 32 35 38 35 32 31 28 26 25 24 24 25 26 26 25 25 24 24 25 27 28 29 30 32 35 39
67 65 63 60 47 38 40 50 51 45 36 38 41 40 38 39 41 42 43 41 38 38 40 37 36 37 37 35 35 38 41 38 30 27 30 31 29 27 27 27 27 26 25 25 25 24 24 25 28 30 31 32 33 35
60 57 53 49 37 36 42 52 50 41 33 37 39 38 37 40 41 41 43 39 40 40 40 36 35 37 37 37 38 39 40 35 29 30 31 30 29 30 30 30 30 29 30 30 30 29 29 30 30 30 31 31 32 33
54 51 49 41 40 43 51 52 46 37 33 37 40 38 37 40 42 41 40 38 43 42 40 39 37 36 37 39 38 37 38 36 35 33 30 31 32 31 31 31 32 32 33 34 33 32 33 34 34 34 35 35 36 37
49 46 42 39 44 49 49 47 41 34 34 35 36 35 36 40 41 40 38 39 42 43 41 40 36 36 37 38 37 38 38 37 36 35 33 34 34 34 33 33 33 34 34 35 36 37 38 38 38 38 39 41 41 40
41 41 42 48 48 46 44 42 36 31 31 34 34 33 35 38 39 36 35 38 41 42 41 40 36 36 37 37 37 36 36 37 38 37 36 36 35 35 35 35 35 36 37 37 38 39 40 41 42 42 43 43 43 43
45 45 46 47 44 41 38 35 31 30 30 30 30 34 34 35 36 32 32 36 40 40 39 39 37 36 36 36 36 35 35 36 36 34 35 34 33 33 34 35 35 35 36 37 39 39 40 40 42 44 45 44 44 43
43 40 40 36 33 32 28 28 29 28 27 26 27 29 30 33 33 28 30 33 37 38 38 38 37 35 35 36 36 35 34 34 33 32 32 33 33 33 34 34 34 36 37 38 39 40 41 42 43 43 44 44 41 40
33 31 28 27 23 22 25 28 27 24 24 25 28 29 30 31 29 24 27 31 34 35 37 36 36 35 34 35 36 35 34 33 31 31 31 31 33 33 34 35 36 38 38 39 40 41 41 41 41 40 39 40 40 39
21 19 19 21 25 28 30 24 23 22 26 31 34 33 34 33 26 26 29 30 30 32 33 34 34 34 34 35 35 34 32 31 29 29 30 31 31 32 34 36 37 38 40 40 39 38 38 37 37 37 39 40 40 40
23 23 26 30 30 26 19 18 19 18 25 29 32 34 33 24 25 29 29 29 30 31 31 30 32 33 33 32 30 29 28 28 28 29 30 30 31 32 34 36 38 38 38 37 36 36 35 36 37 39 40 40 40 41
27 29 29 25 20 15 14 15 18 21 27 31 33 34 27 28 33 31 30 30 30 31 30 28 28 30 29 29 28 27 27 28 28 29 29 30 32 33 33 33 33 33 34 34 35 36 37 39 39 39 38 39 41 42
24 21 19 17 14 16 21 24 24 26 28 29 28 24 24 27 27 24 26 28 30 29 27 25 26 27 26 25 25 25 26 26 27 28 30 30 30 29 29 29 30 30 32 34 34 35 36 38 38 38 38 39 38 36

GFSWCAN_250_spd_039.txt.gz
Wind_Speed
111 114 112 107 98 102 108 104 110 97 88 80 77 71 64 53 50 51 49 50 49 47 42 40 39 39 35 29 28 30 30 31 27 25 26 24 24 24 28 29 26 26 25 23 22 24 25 30 32 30 33 33 35 36
116 118 119 112 103 102 105 104 106 94 90 79 78 75 61 56 49 50 48 47 50 50 42 41 38 39 37 33 31 30 32 34 29 28 29 27 25 26 28 30 31 31 29 27 26 26 26 27 28 32 35 36 36 40
121 123 125 121 99 101 103 102 97 87 88 81 83 73 63 56 54 52 49 49 47 48 44 40 37 39 37 36 35 34 34 34 32 32 34 31 28 29 30 32 33 34 34 33 30 29 29 28 26 27 29 35 39 42
123 125 129 129 127 116 109 100 99 91 81 79 83 76 68 59 56 56 51 46 46 46 43 41 37 39 37 36 37 38 36 37 36 35 36 35 33 34 33 34 34 37 38 39 35 33 31 30 28 27 28 30 36 41
127 126 132 130 129 123 125 122 107 92 83 78 80 73 73 69 62 57 51 45 43 40 42 38 37 37 38 38 39 40 37 34 35 38 37 38 39 39 39 37 35 40 42 42 41 38 37 34 32 30 29 30 32 35
129 129 131 132 135 124 121 111 102 90 80 78 76 78 78 69 63 57 51 45 43 43 43 38 36 36 39 39 38 33 31 35 41 42 41 38 42 44 41 38 41 42 42 44 44 43 42 40 37 35 35 35 35 36
133 130 135 134 133 119 127 121 107 93 87 78 79 70 73 65 62 55 48 45 45 45 43 38 37 36 38 37 36 34 35 40 41 39 38 43 45 46 42 43 45 44 42 46 47 44 47 45 43 40 39 39 40 40
131 131 134 130 136 138 123 117 105 97 91 86 79 79 69 64 60 56 47 43 45 48 45 40 38 35 36 36 34 35 34 36 36 37 36 42 46 40 40 51 48 41 41 44 46 46 48 49 46 44 42 43 44 44
134 133 134 135 135 139 135 116 111 103 90 90 79 83 68 61 58 52 49 45 44 45 43 40 37 33 34 35 33 33 30 31 33 32 34 38 38 34 46 49 43 39 42 42 43 48 47 49 49 46 43 44 44 43
133 137 135 141 137 134 126 121 115 109 90 89 88 78 65 58 54 49 46 44 45 44 44 39 36 33 32 32 31 31 28 26 24 23 27 30 32 37 47 39 40 39 39 41 42 46 49 48 50 47 43 44 44 45
140 140 138 136 136 131 125 121 114 106 95 91 85 79 63 54 51 48 42 42 41 42 43 38 34 32 31 29 29 29 26 24 21 19 22 25 32 38 40 43 43 40 40 42 44 47 47 48 48 48 44 45 46 48
141 141 139 134 132 129 128 123 117 103 97 88 84 69 58 50 50 47 43 40 39 41 41 37 34 31 30 27 27 26 25 22 19 18 19 20 21 25 31 36 37 37 38 40 42 44 45 46 47 49 48 47 51 50
140 142 135 131 131 130 128 129 117 106 88 87 80 61 55 50 42 41 41 40 38 40 41 37 34 31 28 27 27 25 24 22 20 18 19 20 22 27 30 33 35 36 37 38 40 42 43 44 45 47 50 49 52 53
138 136 133 134 131 133 132 126 118 103 87 77 67 54 52 47 42 38 41 40 39 40 40 38 35 31 30 27 27 25 23 22 21 19 20 22 25 28 30 33 35 36 36 36 38 40 43 44 44 44 49 51 52 55
137 135 137 136 133 130 128 120 110 99 86 80 55 45 48 48 45 41 40 41 40 39 40 38 35 33 31 29 27 26 25 23 23 21 22 23 25 28 32 35 38 39 39 38 38 39 41 42 43 46 46 51 54 56
140 138 141 141 140 134 126 114 101 94 79 70 55 50 46 47 46 44 42 40 41 39 40 39 35 34 32 30 29 29 27 25 24 23 23 23 25 28 31 33 35 36 37 38 39 38 40 41 42 44 47 48 51 56
140 141 137 140 139 130 119 111 97 84 71 60 54 45 43 44 45 45 43 41 40 41 41 39 38 36 34 29 30 33 33 28 25 26 25 24 24 26 27 29 32 35 36 36 36 37 38 40 41 43 44 46 48 50
138 138 137 127 120 114 104 95 88 72 65 53 52 51 41 45 46 45 43 42 41 40 42 41 39 39 34 33 35 36 33 28 26 28 28 27 25 24 24 25 26 27 29 30 31 31 34 37 39 41 43 45 48 50
132 125 119 113 108 101 91 84 80 66 59 54 52 52 46 44 49 46 45 42 40 42 42 43 42 40 36 36 37 37 33 29 29 30 32 29 26 25 24 24 25 26 26 26 27 27 28 29 32 35 38 42 46 50
116 113 105 98 91 88 78 75 72 61 57 54 51 55 45 39 50 47 46 42 40 40 42 44 42 40 37 38 39 37 35 34 34 34 35 34 29 27 26 24 23 24 25 25 25 26 27 29 30 32 35 37 39 43
100 94 91 84 79 74 68 66 67 61 58 53 52 55 44 41 49 47 46 42 40 38 42 42 41 40 40 40 41 38 36 35 37 40 39 36 31 29 28 27 25 24 25 26 27 27 27 28 29 30 31 33 35 37
86 83 76 71 69 65 65 67 63 60 59 51 51 50 43 44 48 46 47 42 37 38 41 41 40 40 42 42 41 39 36 37 40 42 38 34 32 30 32 32 29 27 26 26 25 25 25 25 26 27 28 30 31 32
74 68 67 67 65 61 62 64 60 60 60 53 51 43 36 42 46 44 43 38 35 38 40 40 39 40 42 42 41 38 37 39 43 42 36 33 35 34 31 31 31 30 30 29 28 27 27 28 28 28 28 28 29 29
66 64 63 61 63 60 58 59 61 58 55 53 46 38 36 41 43 43 40 36 33 37 38 39 38 40 42 42 41 39 39 39 40 40 37 33 37 38 36 33 32 32 32 32 31 31 31 31 32 32 32 32 32 32
58 57 53 52 55 56 57 58 57 51 49 45 38 34 38 39 39 39 37 34 33 36 38 38 38 39 41 42 41 40 38 36 38 40 39 36 37 38 38 37 35 34 34 34 33 33 32 32 32 32 32 33 34 35
54 52 52 54 56 56 53 48 45 44 40 36 31 34 36 35 37 36 34 31 33 35 35 36 37 38 39 40 41 38 36 36 38 39 40 37 36 37 37 38 36 34 34 33 33 33 33 33 34 35 35 36 37 38
53 57 55 52 52 48 43 42 41 37 34 31 30 33 33 35 37 35 30 31 30 31 33 33 35 36 36 37 37 36 35 35 36 37 37 35 35 35 35 36 35 33 34 34 34 35 36 36 37 37 38 39 39 41
54 51 47 45 42 38 34 33 32 31 31 29 31 34 36 39 37 33 31 30 29 31 31 31 33 34 33 33 33 33 33 33 34 35 35 35 34 34 34 35 35 35 35 36 36 36 37 38 38 39 40 41 40 40
44 41 37 33 29 28 29 31 36 38 36 34 35 36 38 38 37 33 30 29 29 30 30 28 30 31 29 28 30 31 31 31 32 33 33 33 33 32 33 34 35 35 36 36 37 38 39 40 41 41 41 40 39 39
31 31 31 32 34 40 43 38 38 36 34 33 33 34 33 34 31 27 29 29 30 31 29 28 29 28 25 25 26 29 29 29 29 30 30 30 31 32 33 34 35 36 36 36 37 38 39 40 40 40 40 40 40 41
35 37 38 37 40 40 36 30 27 25 24 24 27 31 28 27 26 26 27 28 28 28 27 28 26 26 25 25 26 26 27 26 27 28 28 28 29 30 32 33 35 35 36 36 36 36 37 37 37 38 40 41 40 41
34 35 33 33 32 28 23 23 24 24 21 24 26 27 24 23 21 19 21 25 29 33 32 31 31 28 26 24 24 25 25 25 25 25 26 27 28 30 31 32 33 34 35 35 35 35 36 37 38 38 40 40 40 40
26 24 25 27 25 21 18 23 25 22 21 21 18 13 12 10 7 13 23 25 25 26 27 27 25 24 23 24 23 22 23 23 24 24 25 26 27 28 29 29 31 31 32 34 35 36 36 37 38 38 39 40 40 40

GFSWCAN_250_spd_042.txt.gz
Wind_Speed
100 104 104 106 104 103 103 101 102 104 101 97 102 102 91 82 78 70 70 62 53 44 43 41 39 35 34 33 31 30 26 30 29 27 27 26 27 27 27 25 24 24 24 24 24 25 26 30 28 28 32 33 35 36
104 107 107 108 110 107 109 105 104 105 103 101 104 100 92 81 75 73 75 68 55 43 41 38 36 33 31 31 32 31 29 30 30 31 29 30 27 26 29 29 27 27 27 28 28 27 27 26 30 34 33 34 33 36
108 110 112 113 114 114 111 107 107 103 107 104 101 99 89 79 71 70 75 63 54 48 42 37 35 32 31 31 33 32 30 30 30 31 32 33 32 30 29 31 29 30 30 32 30 31 30 29 28 30 35 36 35 34
110 111 116 118 116 118 117 114 111 108 110 107 105 100 87 78 67 74 75 64 53 50 45 40 36 33 31 31 33 32 30 31 33 33 34 35 37 37 34 34 33 32 34 34 33 33 33 32 32 30 30 33 36 38
113 114 118 120 120 120 121 118 112 113 109 106 102 102 89 83 73 77 72 62 53 51 45 40 38 34 32 31 32 32 33 34 33 33 34 35 38 40 40 37 37 37 38 36 36 35 37 37 35 34 31 30 31 33
117 116 121 124 124 124 124 123 121 117 112 103 107 105 93 94 82 85 79 64 56 54 49 41 38 35 34 32 32 33 34 34 33 31 34 36 43 41 40 40 43 42 40 38 37 37 37 41 40 36 35 33 31 29
117 120 122 125 126 129 129 128 125 115 118 119 124 115 99 96 83 94 76 63 57 54 51 45 39 37 36 35 32 31 34 33 30 32 35 38 44 38 37 40 49 45 44 38 41 41 41 43 44 41 39 37 35 33
119 120 123 126 127 132 135 132 132 124 120 124 120 121 106 95 82 103 84 64 58 52 51 46 40 37 37 35 33 33 32 33 33 30 35 40 40 33 24 46 50 49 46 41 42 42 42 43 46 47 45 43 41 39
123 125 126 127 129 131 135 133 135 130 133 126 128 121 107 94 83 104 86 66 58 52 49 46 43 39 37 35 33 32 31 33 30 30 31 33 33 31 39 39 48 48 41 42 43 41 42 43 46 47 49 49 46 44
128 127 130 128 130 134 138 139 140 135 133 131 128 123 104 104 84 106 82 64 55 51 50 45 43 41 36 35 33 31 31 29 29 26 26 27 30 33 35 37 42 42 40 43 42 42 42 44 46 47 47 50 51 48
128 127 129 131 136 135 139 141 141 140 139 136 131 124 110 102 90 94 73 61 53 47 46 44 41 40 36 35 33 32 31 27 24 24 22 21 23 26 30 34 35 38 42 45 44 43 44 46 45 45 47 48 50 51
131 130 132 134 137 137 141 142 143 142 143 135 129 119 110 100 96 85 68 56 51 45 43 43 40 39 37 34 33 31 30 27 24 22 19 18 19 20 22 27 33 40 41 43 43 43 44 45 45 45 45 47 48 50
133 134 132 136 137 140 145 145 145 141 139 134 130 115 100 97 94 79 65 55 47 46 44 43 41 40 37 35 34 31 29 28 24 22 19 17 17 19 21 24 28 33 36 40 41 43 42 42 44 44 44 44 48 49
135 134 137 140 139 141 144 150 143 143 140 137 127 111 95 92 81 69 61 54 47 46 46 45 43 42 38 36 34 31 28 27 26 23 21 18 17 17 20 24 29 32 35 37 39 37 35 37 39 42 42 44 46 49
137 134 139 139 141 145 148 148 149 146 141 133 119 103 100 89 73 60 52 51 48 45 46 45 43 44 39 36 34 34 28 28 28 26 23 21 19 19 21 24 27 30 32 34 35 36 37 36 38 41 42 43 45 45
141 136 139 142 145 146 150 149 142 142 137 129 113 104 87 80 69 57 46 49 49 46 46 47 44 43 41 38 34 35 34 32 27 26 25 23 21 20 22 23 25 29 33 34 35 36 37 37 38 40 41 42 43 44
140 141 142 142 146 146 148 147 142 137 133 120 116 99 79 69 60 55 48 46 49 47 45 45 45 43 41 40 38 37 38 33 28 25 26 25 24 23 24 24 25 27 30 33 34 35 36 37 38 39 40 42 43 43
141 143 143 142 143 145 143 139 136 129 121 116 106 88 75 65 53 52 53 50 48 49 48 45 44 44 42 42 40 39 39 37 32 28 28 29 28 25 26 27 26 27 28 29 29 30 31 33 34 36 38 41 43 43
146 145 145 142 139 135 135 132 132 120 113 108 91 81 70 62 53 46 51 53 49 49 48 43 42 43 41 41 41 41 41 39 35 33 32 34 33 30 28 28 28 28 28 29 28 28 28 29 29 31 32 35 39 42
145 142 141 136 132 131 125 120 119 110 100 92 88 80 70 61 54 48 48 49 48 49 44 41 41 42 42 40 41 42 42 41 38 35 35 35 35 34 31 28 28 27 26 26 30 30 29 29 30 31 31 32 33 35
134 135 135 132 129 121 113 106 101 97 90 86 84 77 68 62 56 48 48 49 47 49 42 41 40 41 42 40 40 42 41 42 41 39 38 38 38 38 33 29 27 28 27 27 26 29 31 31 31 32 32 33 33 33
129 129 123 116 111 106 103 98 95 91 87 82 74 70 65 60 56 49 46 52 45 51 43 39 39 39 40 39 40 40 41 42 42 41 40 40 40 39 34 29 29 29 30 27 25 24 27 30 31 31 31 32 31 31
116 112 108 104 99 89 89 91 91 86 80 73 70 66 60 59 54 48 47 52 44 49 42 36 37 38 37 39 39 39 40 41 41 39 40 41 40 38 35 32 32 32 30 28 28 28 27 27 28 29 30 29 28 28
107 101 97 81 80 85 85 82 79 76 73 69 65 61 58 54 47 46 47 47 41 46 39 35 35 36 35 36 37 37 39 39 39 37 39 41 40 36 35 35 35 32 30 31 31 30 30 30 29 30 30 31 31 31
93 86 82 81 81 78 73 71 70 69 66 62 58 54 51 46 41 42 47 44 42 43 37 33 34 35 34 34 35 36 37 37 36 35 37 39 38 35 35 36 35 34 30 30 31 33 32 30 31 31 31 32 32 32
82 81 78 75 74 71 67 63 62 58 55 55 52 47 44 39 40 46 48 41 42 38 35 33 35 35 32 33 33 33 34 34 34 34 36 37 38 35 35 35 34 33 31 30 31 32 33 33 32 31 31 32 32 32
72 72 69 68 67 61 56 53 52 51 51 49 46 43 40 41 47 49 44 41 39 36 34 33 34 33 30 32 33 32 31 32 31 32 33 35 37 35 34 33 33 34 34 31 30 30 31 32 31 32 32 33 33 34
64 65 64 61 58 54 49 49 49 48 48 46 43 43 43 46 46 42 40 38 37 35 34 33 33 31 30 31 31 30 29 29 29 30 31 34 35 34 33 33 32 32 34 33 31 31 32 32 33 34 34 35 35 36
61 59 56 54 51 47 48 49 43 45 46 43 43 43 44 44 41 35 31 31 30 31 30 29 32 31 30 29 29 27 27 26 26 27 29 32 32 31 31 31 30 31 32 32 32 32 33 34 35 35 36 37 37 38
50 47 47 48 48 48 46 39 42 44 43 43 43 41 38 31 28 28 28 26 26 24 20 22 27 29 27 26 26 25 25 25 24 25 27 29 29 29 29 29 29 30 30 30 31 32 33 34 35 36 37 38 39 40
41 46 48 45 42 40 40 41 42 43 40 33 28 29 28 26 26 24 22 20 20 19 20 23 25 26 26 27 26 27 26 24 25 25 26 27 27 27 28 27 27 28 29 29 30 31 33 34 34 36 37 38 39 41
45 43 39 38 37 37 39 38 36 30 27 25 22 24 27 23 20 10 15 21 22 18 17 19 21 24 26 29 29 28 26 24 24 23 23 23 24 25 25 25 26 27 28 28 29 30 32 33 35 37 39 39 40 41
40 36 34 36 37 35 30 28 28 29 26 25 23 22 19 15 15 19 21 14 13 13 11 9 11 16 19 19 20 22 22 21 21 21 20 21 22 22 22 23 24 25 26 27 30 32 34 35 35 35 36 37 37 38

GFSWCAN_250_spd_045.txt.gz
Wind_Speed
78 81 82 85 89 89 92 96 97 99 103 103 104 101 98 98 100 99 90 84 86 87 61 51 39 34 32 27 25 23 22 24 22 22 22 22 22 23 23 23 22 23 23 22 22 24 24 27 28 29 29 30 32 34
81 85 86 90 93 93 96 100 103 103 107 106 106 104 100 98 100 106 103 83 85 92 62 51 40 33 28 26 23 22 22 25 24 24 25 24 23 23 25 27 24 24 26 26 26 25 24 25 25 30 30 31 32 34
85 88 90 94 95 98 101 104 107 107 108 108 109 107 103 97 102 108 102 82 84 82 58 50 39 31 27 25 24 23 23 26 26 23 25 26 29 28 28 28 28 27 27 28 29 28 27 28 27 27 29 32 33 34
86 89 93 96 99 100 104 108 109 109 109 111 108 109 102 98 105 105 100 90 92 88 58 51 38 32 27 24 23 21 23 27 27 28 28 29 31 33 33 31 29 33 31 32 31 29 30 31 32 32 29 28 31 36
92 93 95 97 101 103 107 111 113 111 113 112 112 112 106 103 105 107 108 104 94 85 60 53 40 34 30 27 25 22 24 27 28 30 31 32 31 31 34 32 32 37 38 36 33 31 35 34 34 32 33 32 29 30
94 94 98 102 104 106 110 113 116 117 117 115 117 112 110 107 110 111 113 108 99 86 55 53 43 36 32 29 25 23 25 28 29 30 29 29 29 29 31 32 39 43 40 40 35 37 38 36 38 36 36 35 33 32
95 96 100 104 106 110 113 115 119 122 121 121 115 114 111 110 114 113 116 111 103 89 58 55 45 39 34 30 27 26 26 30 31 32 32 28 32 32 34 38 49 48 43 44 42 42 39 40 39 38 39 39 38 36
98 101 103 106 109 111 115 118 120 126 125 123 120 117 115 118 114 114 123 119 105 93 57 54 49 42 37 31 28 26 26 29 31 30 31 33 33 33 34 43 49 42 39 40 41 43 41 40 43 41 42 42 41 41
101 103 104 109 111 116 119 120 122 124 125 124 120 122 121 125 127 123 123 119 107 98 61 54 49 42 38 33 30 29 27 29 32 31 32 34 35 29 32 34 38 37 39 38 39 39 41 43 43 45 43 44 44 44
103 104 107 113 114 117 121 121 122 127 127 128 124 130 134 129 130 120 129 125 109 98 64 56 50 42 38 35 32 29 28 29 33 32 33 31 34 28 28 30 34 35 39 35 31 40 40 43 42 43 43 44 44 45
102 103 109 115 118 117 119 121 120 127 129 133 135 137 137 135 134 132 132 127 102 96 66 59 50 42 39 38 35 32 29 30 31 32 33 30 29 26 25 29 32 34 30 31 33 40 41 43 46 47 45 43 44 46
106 109 113 115 117 118 119 118 123 127 131 135 140 140 138 142 135 133 132 123 107 90 66 57 49 42 40 41 39 36 31 32 31 31 31 29 25 24 24 25 28 28 28 33 37 40 43 44 45 45 46 44 44 45
111 115 119 119 117 118 122 124 127 128 131 135 141 138 142 142 139 133 125 117 108 80 64 54 47 43 42 42 42 40 35 33 32 32 31 29 25 22 22 23 24 26 27 32 38 40 41 42 42 44 45 45 46 45
116 116 118 120 119 122 122 127 130 133 135 137 141 143 139 138 136 132 125 110 91 72 65 53 48 44 42 43 43 42 38 35 35 32 30 29 24 22 20 21 22 26 28 29 34 37 41 41 42 43 44 44 42 43
118 118 120 122 122 123 125 127 133 135 135 137 138 141 140 137 131 127 118 107 84 63 57 54 53 49 44 45 44 42 42 39 35 29 31 30 25 22 21 20 21 24 27 29 33 35 36 38 39 39 37 37 37 39
111 120 123 124 126 127 130 132 133 136 141 138 140 139 136 135 128 119 116 96 81 67 49 49 51 51 48 46 45 45 43 38 33 30 31 33 28 25 23 23 22 22 25 29 32 35 37 38 38 38 38 37 39 42
120 125 127 129 132 130 132 135 135 138 139 140 142 142 140 134 128 123 106 90 78 67 58 48 48 50 49 49 47 45 42 38 34 32 34 32 33 29 28 27 26 26 27 28 30 33 34 35 36 37 39 40 40 42
129 129 131 134 133 132 134 134 137 140 142 145 146 145 137 133 126 117 96 77 70 62 59 53 46 48 48 49 46 43 40 38 37 35 36 33 34 33 32 31 30 29 28 27 29 31 33 35 37 39 38 39 40 42
133 134 137 133 133 132 137 139 142 144 146 149 144 137 136 125 118 99 82 72 69 62 54 58 52 46 45 46 46 42 38 36 38 38 36 38 36 37 35 34 33 30 29 29 30 31 31 32 33 34 35 36 37 39
139 141 136 138 140 137 140 141 144 144 145 143 137 135 129 118 102 88 81 75 69 65 58 55 51 49 44 43 43 42 38 36 37 40 37 39 40 37 38 37 36 34 32 31 30 30 30 30 32 32 33 33 32 33
140 141 141 140 140 144 143 144 146 144 141 138 133 127 116 102 90 83 82 77 72 65 56 54 50 48 45 43 41 42 39 37 36 39 40 38 42 40 39 38 37 35 34 33 32 30 30 30 31 32 33 33 32 32
143 140 138 138 141 139 138 139 140 139 135 125 114 104 92 86 82 80 77 78 74 65 50 51 50 47 44 40 38 37 38 36 35 38 41 39 41 42 40 40 40 36 34 33 34 33 33 31 30 30 32 34 34 33
142 139 136 135 135 133 139 139 132 126 117 106 97 90 82 80 77 75 74 76 75 59 48 52 50 45 40 35 35 34 35 35 35 36 40 41 39 40 40 39 40 38 35 33 35 35 34 33 32 32 32 33 34 33
136 133 133 128 128 133 130 124 116 108 94 84 80 79 79 78 73 71 71 76 68 56 49 53 47 43 38 34 34 34 34 34 35 36 38 40 38 37 38 38 39 38 36 34 35 35 34 33 33 32 33 32 32 31
134 133 133 136 130 122 113 107 93 79 77 79 81 80 74 71 68 68 69 68 61 57 50 51 47 42 36 34 34 34 34 34 34 35 36 37 36 36 37 37 37 37 36 34 35 37 35 35 34 33 34 33 33 32
125 123 118 113 108 103 91 82 79 79 79 78 73 72 69 64 67 65 62 58 53 50 46 46 46 43 34 33 35 35 33 34 34 33 35 36 35 35 36 35 36 35 35 34 35 36 35 35 35 34 32 31 32 33
106 104 100 97 90 78 76 75 74 71 70 68 66 66 63 62 61 57 53 49 47 45 42 40 38 33 30 31 33 33 32 33 33 32 33 34 35 34 35 34 32 33 34 34 36 36 35 36 36 35 32 30 30 31
91 88 83 75 71 70 69 67 66 67 64 60 58 57 56 53 50 45 44 43 42 39 33 30 27 24 25 27 29 28 29 32 32 30 30 32 33 33 33 32 31 32 33 34 35 34 33 33 35 35 34 32 32 32
79 78 75 72 68 64 65 65 62 60 54 50 50 50 48 43 39 35 34 33 32 29 27 26 25 21 24 24 25 26 28 30 30 29 30 30 31 30 31 30 30 30 31 33 33 33 33 33 33 34 34 34 34 34
73 71 65 62 59 61 64 59 52 50 49 47 44 42 39 34 32 31 30 27 26 27 26 26 25 26 31 29 26 24 25 26 27 29 30 30 31 31 30 28 28 28 29 31 32 32 33 33 32 32 33 33 34 34
60 59 58 57 57 59 55 50 48 46 44 43 35 31 31 32 32 23 24 27 29 28 25 23 22 25 26 23 20 21 23 23 25 29 30 29 29 29 28 26 25 25 27 28 29 29 29 29 30 31 31 32 33 34
52 53 53 51 52 51 46 43 45 42 37 34 31 27 29 29 27 19 24 28 24 22 24 24 22 20 16 12 11 14 16 20 24 27 28 27 26 24 23 23 22 22 24 25 26 26 27 28 29 30 32 33 35 36
48 47 44 40 40 39 38 37 34 33 33 30 30 28 25 24 22 25 24 23 27 28 25 21 17 15 13 13 14 15 15 18 21 23 22 21 21 20 20 20 20 20 21 22 24 25 27 29 30 32 33 34 34 36

GFSWCAN_250_spd_048.txt.gz
Wind_Speed
60 62 64 65 68 67 69 70 73 75 81 83 86 89 94 96 97 99 98 91 100 101 78 80 62 54 48 39 27 21 18 21 21 21 24 26 25 25 25 25 23 24 24 23 25 24 21 21 23 23 24 27 31 34
59 62 64 67 72 73 72 73 78 78 82 86 90 92 96 97 100 101 103 92 99 104 83 77 66 56 47 39 27 21 20 19 22 22 23 24 24 25 26 26 25 25 26 26 27 27 25 24 23 23 23 26 27 29
64 65 66 68 73 76 76 79 82 84 85 88 92 96 97 100 102 106 104 94 102 96 91 79 60 52 43 36 29 23 21 20 23 21 24 26 26 26 28 30 27 28 28 29 30 30 28 27 26 26 25 25 27 28
66 66 69 70 71 79 81 83 86 90 89 92 96 99 99 101 103 105 100 99 107 99 93 86 61 51 42 34 29 25 22 21 23 24 26 28 29 29 30 31 29 33 32 33 33 32 31 32 30 30 28 27 27 26
65 65 72 74 75 80 85 88 90 92 93 97 99 101 100 103 104 105 103 101 101 106 96 88 67 53 45 35 28 25 23 23 23 26 27 31 32 31 34 33 36 42 39 36 36 31 34 34 35 33 31 30 29 28
67 67 64 74 82 82 86 90 93 97 99 100 101 105 103 105 106 105 99 103 102 105 108 97 75 57 50 40 31 25 24 24 24 27 28 31 32 32 31 33 43 43 39 37 40 35 35 37 36 36 36 34 33 32
67 71 74 78 80 86 88 92 97 99 101 102 104 107 106 108 107 109 105 104 105 106 109 104 96 76 60 44 34 29 26 25 25 26 26 30 33 31 31 36 46 42 43 41 42 42 39 41 39 38 37 37 37 36
72 74 79 80 83 87 90 94 99 102 104 104 106 108 112 110 109 110 104 105 107 111 110 105 101 96 68 51 40 32 29 28 28 27 27 29 29 31 34 36 35 38 45 45 45 45 46 44 40 41 39 37 38 39
79 78 81 82 86 88 90 97 102 103 105 108 110 110 111 112 109 108 103 106 116 114 104 106 105 107 71 56 44 37 32 30 31 31 29 29 31 31 36 31 28 40 44 40 35 43 40 42 42 43 42 40 39 40
81 82 86 86 90 91 93 97 101 104 107 112 112 114 117 114 115 107 108 113 116 111 116 106 104 115 72 56 46 42 39 34 33 34 31 32 32 28 38 29 27 30 36 34 34 39 40 39 41 42 42 42 43 42
85 85 87 91 93 93 97 99 104 109 110 115 116 118 120 117 118 116 117 119 121 114 111 106 106 113 77 58 48 43 41 39 37 35 34 32 32 31 35 29 28 30 28 27 33 37 39 41 43 42 42 44 42 42
86 88 89 95 94 98 102 104 106 109 112 116 118 118 120 124 121 120 121 123 128 128 121 105 104 108 75 58 51 44 41 40 41 37 34 31 30 32 32 33 27 27 27 29 34 34 29 35 41 44 43 42 44 44
89 87 96 97 97 101 104 103 108 110 113 115 117 118 121 120 123 125 129 128 133 136 126 100 105 83 69 58 51 47 44 42 41 38 34 34 30 32 29 29 31 27 25 29 34 36 39 42 42 45 45 44 45 46
94 95 94 99 100 102 107 107 112 114 116 117 118 120 124 123 127 127 130 135 136 134 120 115 94 78 64 56 52 48 46 45 42 37 35 35 33 30 29 27 27 29 26 26 33 35 37 40 44 45 45 47 47 48
95 98 101 102 102 107 107 112 116 116 119 116 119 124 125 127 128 130 132 134 135 130 118 115 101 75 56 57 52 49 49 46 42 39 35 33 35 31 30 28 28 28 27 27 28 34 37 39 42 45 45 45 46 47
101 100 101 104 104 109 115 118 119 122 121 123 126 125 127 130 129 131 134 136 135 131 122 115 91 75 65 49 51 47 49 47 43 38 34 33 32 36 32 31 30 29 30 29 28 30 33 37 39 40 42 44 45 44
104 104 105 108 107 111 118 119 125 122 128 127 127 131 132 133 134 134 136 136 134 123 123 112 88 70 58 57 44 47 47 46 43 39 34 36 33 37 38 35 33 33 31 29 29 29 30 32 35 37 39 40 41 41
106 106 108 110 116 120 114 118 122 123 123 128 132 137 138 140 136 135 139 137 130 120 119 112 89 73 59 52 49 43 44 46 43 40 36 35 38 37 40 40 38 34 33 33 31 30 32 33 35 37 39 41 42 44
110 111 113 118 119 119 122 122 120 127 131 134 138 141 140 141 139 139 142 134 126 126 117 112 88 74 63 55 49 48 41 44 44 40 37 34 39 39 39 40 41 38 34 35 35 35 34 34 35 36 38 40 42 43
114 117 119 119 120 122 124 126 132 136 137 136 141 139 142 144 142 145 134 137 135 128 120 103 83 70 61 56 48 47 43 41 42 41 37 36 39 42 40 41 42 42 39 37 38 37 36 34 32 34 35 36 38 41
120 123 121 124 127 133 134 136 138 140 139 139 140 143 142 145 149 143 138 139 127 138 112 85 78 64 56 54 49 44 43 40 38 40 37 37 40 44 42 41 43 43 42 41 39 38 37 37 35 34 34 34 35 36
122 126 129 130 127 131 133 135 139 140 141 141 144 143 144 145 141 141 138 130 138 118 87 81 70 55 57 55 47 41 40 37 36 37 39 39 40 44 45 43 44 43 43 42 40 40 38 38 38 37 36 35 35 34
136 135 133 132 132 137 139 139 141 144 144 144 143 146 147 143 140 132 131 125 107 90 85 77 65 55 57 52 45 40 37 34 35 36 39 41 40 42 44 43 44 43 42 41 41 41 39 39 40 38 37 37 36 34
140 137 136 139 140 142 144 144 145 146 146 148 148 144 137 130 124 118 120 98 87 82 72 66 64 59 53 45 42 37 33 33 35 35 37 40 40 39 41 42 43 43 43 40 41 39 39 40 40 38 37 36 36 36
139 140 139 138 142 147 149 148 148 148 144 141 133 133 130 118 121 102 85 81 76 68 64 61 59 51 44 41 37 32 30 33 34 33 34 36 37 37 37 39 41 42 41 39 39 39 38 38 38 38 38 38 37 37
142 143 144 148 151 148 146 146 144 140 132 128 125 119 120 109 96 84 77 69 64 62 58 54 52 46 40 39 33 29 30 31 31 31 31 33 32 34 35 36 38 40 40 38 38 38 38 37 37 39 39 39 39 37
146 146 147 144 140 140 137 133 128 133 123 121 117 104 93 85 79 75 63 60 58 53 49 45 43 41 36 35 34 32 34 33 31 30 28 30 29 31 33 34 36 37 39 38 38 38 37 36 37 38 39 39 38 37
144 142 136 128 127 131 130 120 115 115 104 92 87 82 74 72 67 59 53 54 50 46 45 44 42 41 39 36 33 34 37 37 34 30 27 25 26 29 32 33 33 35 37 36 37 37 37 36 37 37 37 37 37 38
134 129 122 120 109 101 95 89 88 85 78 74 69 64 60 60 57 50 49 45 40 41 44 43 42 38 40 36 35 35 34 34 34 29 25 23 24 27 31 32 33 34 34 35 36 35 35 35 34 34 35 35 35 37
97 96 94 92 87 83 80 74 72 67 63 61 57 54 53 51 49 46 39 37 36 39 39 37 33 28 29 28 29 29 28 27 27 25 23 22 23 26 29 30 31 32 32 32 32 32 32 32 31 32 32 33 34 35
81 80 77 73 69 70 68 64 60 55 54 54 54 47 38 35 50 44 21 30 36 34 28 26 28 26 27 27 27 25 21 20 19 18 19 19 21 23 24 26 28 27 27 28 29 28 28 29 29 30 30 31 32 33
65 65 61 60 60 60 59 55 53 52 51 49 43 34 35 39 43 37 28 29 30 22 23 22 22 22 24 22 21 19 21 19 13 11 12 15 17 17 19 22 24 25 25 25 25 25 25 25 25 26 27 29 31 33
55 55 54 55 57 56 53 49 47 44 45 41 35 33 34 33 29 26 22 19 18 21 19 19 20 18 16 16 18 19 17 17 17 14 12 11 11 13 17 19 21 21 21 21 21 21 22 23 24 25 26 27 29 30

GFSWCAN_250_spd_051.txt.gz
Wind_Speed
59 57 56 55 52 56 57 60 61 59 59 61 62 67 72 76 78 82 85 87 89 92 92 99 82 79 54 47 40 32 28 25 26 28 28 28 28 29 28 27 28 30 30 28 29 29 25 27 26 25 26 26 26 28
59 58 55 53 55 57 58 61 59 60 59 59 63 69 74 78 81 84 86 88 89 93 90 90 86 76 57 48 34 32 28 26 27 28 29 28 30 30 30 27 28 31 32 31 31 31 29 28 27 26 25 27 27 26
61 61 56 55 58 57 57 58 62 61 59 62 66 71 75 80 83 86 88 91 94 93 94 95 90 74 60 48 36 32 27 25 25 30 31 33 32 31 29 24 26 34 34 35 33 33 32 31 29 27 27 27 27 27
61 58 57 59 57 57 56 60 63 63 61 65 69 75 76 82 85 88 91 93 92 94 98 95 90 79 64 53 47 34 30 25 24 28 32 34 34 32 29 30 33 39 36 36 36 35 32 34 32 31 31 29 28 27
58 57 56 55 56 56 60 63 64 67 67 69 72 77 80 84 88 90 93 94 94 94 99 100 105 99 83 58 53 39 34 29 25 26 29 32 33 34 36 37 38 37 37 35 37 37 33 36 35 35 34 32 31 30
56 55 53 55 58 59 64 61 66 70 70 73 75 81 85 87 90 90 95 95 98 97 95 101 108 109 99 81 58 47 39 33 28 27 28 30 32 35 36 39 39 41 36 34 36 37 35 40 37 40 38 35 35 34
54 54 56 59 60 54 61 68 70 73 77 79 80 87 89 89 92 93 96 97 98 97 97 100 107 110 102 91 68 52 43 40 33 29 29 30 34 34 36 38 42 39 34 31 29 37 42 43 41 42 42 38 36 37
60 61 59 53 59 59 64 69 73 77 79 82 87 91 91 93 94 95 98 99 95 95 99 102 104 109 100 91 88 66 55 47 40 32 31 31 33 35 35 35 37 38 33 32 38 43 49 49 46 47 44 43 42 39
57 62 65 62 63 62 62 70 74 79 82 84 89 94 94 97 97 98 101 99 90 92 100 104 100 110 102 92 101 88 62 54 47 40 32 31 33 34 36 37 39 35 31 34 41 48 51 45 40 44 46 45 45 43
63 63 68 68 63 66 63 71 76 79 84 87 90 96 98 100 102 102 103 101 96 98 102 101 100 112 98 88 106 95 77 59 51 46 39 32 31 33 34 35 40 34 32 33 38 43 42 37 38 41 42 44 46 45
62 59 67 73 71 70 71 73 78 82 86 90 93 98 100 104 107 110 109 105 103 106 100 106 108 103 112 98 95 98 87 72 58 49 45 39 35 33 32 34 37 34 31 31 31 34 37 36 39 43 40 38 45 45
64 64 77 74 74 75 76 79 78 84 90 93 95 98 101 104 109 111 111 113 113 109 105 109 109 115 106 94 95 89 103 91 56 47 44 39 39 34 30 30 35 34 29 28 28 28 31 36 36 36 37 42 43 44
69 77 81 78 78 78 78 80 84 87 90 92 93 97 101 108 108 112 115 114 114 115 113 113 118 109 114 103 97 81 103 85 57 46 42 38 39 35 30 28 30 33 29 26 27 27 29 33 37 36 40 43 44 45
75 81 85 81 80 83 84 85 89 91 93 94 99 98 104 108 112 115 116 115 118 114 118 119 123 112 113 100 99 99 96 93 66 52 43 38 38 36 32 29 29 31 31 26 26 28 28 31 36 38 40 44 45 46
83 85 86 84 87 89 91 92 94 97 97 99 100 103 106 112 114 116 117 117 120 122 122 125 126 122 115 109 81 97 101 92 67 55 48 43 38 36 34 31 32 31 32 29 27 28 29 31 33 39 43 46 48 47
84 88 90 89 91 93 97 100 101 100 102 101 106 106 107 110 115 118 116 120 121 122 125 126 124 118 110 108 110 88 73 88 66 55 47 47 42 39 37 34 33 35 33 32 29 29 30 31 32 35 42 46 49 49
93 94 96 96 97 99 100 103 103 102 104 107 107 107 110 114 115 117 120 121 120 125 128 127 119 118 107 94 102 89 81 74 63 54 47 45 45 40 41 38 36 37 36 34 33 31 32 31 32 34 36 40 45 48
99 100 98 100 103 107 106 107 107 108 108 109 109 112 114 116 118 117 120 123 125 129 133 131 123 123 95 93 95 74 79 52 49 49 50 42 44 42 41 41 39 38 38 36 36 34 34 34 33 35 37 39 41 45
103 104 105 107 109 109 108 107 107 107 109 110 114 115 115 117 121 121 123 127 130 134 132 133 111 122 117 85 88 93 69 53 49 48 50 40 42 42 40 44 43 40 41 39 37 38 36 36 36 36 36 38 40 42
100 107 111 110 110 109 110 105 112 113 112 116 117 117 118 122 125 128 129 131 136 138 136 118 125 113 95 104 86 86 63 52 47 49 49 45 40 41 41 43 46 41 41 42 40 40 40 38 37 37 37 38 39 40
104 110 113 110 107 107 109 110 111 113 117 118 119 119 122 127 127 128 133 136 137 136 127 119 124 108 103 88 91 77 63 51 46 42 45 46 36 40 40 41 45 43 40 43 43 41 42 42 40 38 38 38 39 39
107 109 111 111 111 113 109 114 115 117 120 120 121 123 127 129 131 135 136 139 139 128 119 123 118 93 96 91 72 68 61 52 45 41 41 41 38 35 37 40 43 42 40 41 44 45 44 43 42 40 39 39 38 39
114 118 116 114 115 115 113 115 121 125 123 121 125 127 127 133 137 138 139 141 136 124 126 115 98 99 91 79 71 65 56 50 45 42 39 36 39 35 35 38 39 39 39 40 43 44 43 43 43 42 40 39 40 39
118 121 124 122 120 118 121 121 120 122 123 126 128 131 131 135 138 138 142 129 115 121 113 89 98 88 79 70 64 59 52 47 44 41 38 37 36 36 33 35 36 35 35 36 40 42 42 43 44 43 41 40 40 39
122 123 120 119 122 125 127 127 127 127 127 131 132 135 135 135 139 139 134 114 116 108 86 94 81 72 63 61 59 55 50 45 43 42 39 42 37 35 34 32 33 33 33 35 38 39 40 42 43 43 42 41 41 41
120 122 120 120 123 127 127 128 130 133 133 133 135 137 139 136 132 127 122 103 89 92 84 77 68 64 59 57 55 50 46 43 42 42 39 42 38 34 36 32 29 32 34 33 37 38 38 39 40 41 42 41 41 42
123 123 126 131 130 129 130 133 134 134 134 133 135 132 127 125 129 111 92 86 81 77 71 68 60 56 57 53 49 43 38 37 38 39 37 37 34 30 35 36 32 30 34 32 34 35 36 36 38 40 41 41 41 40
129 133 130 130 132 133 134 134 135 134 132 129 129 124 117 112 106 87 82 79 77 68 57 54 55 51 50 49 43 40 36 34 35 33 29 30 28 28 31 35 32 31 32 31 32 33 33 34 37 38 39 39 39 40
131 128 129 132 133 133 137 134 132 128 124 118 115 106 93 86 80 75 74 77 70 53 46 48 50 44 44 41 38 35 35 33 35 32 27 23 21 24 28 29 29 28 28 27 29 30 31 31 34 35 35 36 36 38
133 133 130 127 125 122 118 115 110 103 97 90 84 77 74 72 71 69 67 58 46 41 42 44 41 40 38 34 32 27 27 30 32 31 27 23 20 21 23 23 23 23 23 22 23 25 27 29 31 32 32 32 34 36
117 114 111 106 101 94 90 88 85 83 78 75 71 67 63 56 52 66 52 42 38 34 36 41 39 35 31 30 30 27 22 25 24 23 21 21 24 22 18 15 16 16 15 15 17 20 23 25 27 27 29 30 32 32
86 84 83 78 75 75 74 72 70 69 67 63 62 57 46 39 47 42 40 39 36 34 35 32 31 29 29 29 27 26 24 19 16 14 15 19 22 18 13 12 12 11 11 11 13 16 19 21 23 25 26 27 28 29
70 68 65 65 66 63 65 64 60 55 52 53 50 36 35 35 34 32 35 34 33 30 28 26 25 24 23 22 19 18 17 16 14 13 13 15 17 15 13 11 9 8 7 8 11 13 16 18 20 22 23 24 24 25

GFSWCAN_250_spd_054.txt.gz
Wind_Speed
52 55 55 53 54 49 45 42 43 47 47 50 54 55 54 58 57 59 63 68 74 77 81 88 90 87 94 77 63 55 44 40 34 27 25 24 22 26 26 27 28 30 31 31 32 35 33 33 33 32 32 32 33 34
52 52 53 51 52 49 44 41 44 47 47 52 54 53 54 57 59 62 65 68 72 77 80 82 87 85 85 87 64 53 41 38 34 28 25 26 26 26 26 29 29 29 31 33 34 35 33 30 34 33 32 31 31 31
48 51 51 53 51 48 41 42 46 47 50 52 51 53 53 58 61 64 67 68 72 76 79 82 83 77 87 70 73 55 43 35 34 29 25 25 27 28 26 27 29 29 29 31 32 32 34 35 34 32 33 34 32 31
49 48 48 50 51 46 43 45 49 48 51 50 51 52 54 59 61 66 70 71 74 77 81 84 84 82 85 77 82 58 51 40 33 28 24 24 26 28 29 29 28 26 27 32 37 35 34 36 35 35 36 36 34 33
50 46 48 44 46 45 45 48 49 48 49 50 53 52 57 59 63 69 73 75 78 79 80 84 87 90 83 84 74 63 72 58 44 30 27 25 24 27 31 32 29 28 33 32 37 37 36 37 35 34 38 37 37 37
52 49 48 47 44 42 47 49 50 48 49 53 52 53 58 61 64 72 74 77 79 80 83 85 90 87 87 84 85 81 78 65 60 46 31 26 26 27 30 31 30 31 32 32 33 34 36 40 41 36 39 39 37 38
55 53 50 45 41 44 47 50 48 50 54 55 54 57 61 64 67 72 77 80 83 85 88 90 93 89 82 84 101 80 80 91 62 57 44 33 27 27 27 27 30 33 34 32 32 35 39 40 42 45 42 45 43 40
57 55 51 47 47 47 49 47 50 53 56 57 58 60 64 65 69 75 80 82 85 88 89 92 92 94 85 92 97 80 79 91 71 61 46 36 31 28 28 29 30 33 35 31 31 35 39 45 47 50 47 46 48 46
61 57 53 52 52 52 51 51 53 58 59 64 63 64 68 71 74 78 82 86 89 90 91 96 98 97 92 94 98 87 79 82 90 74 57 41 33 30 29 30 32 33 35 33 34 35 41 46 50 51 50 46 50 49
64 62 59 56 54 52 53 55 56 58 62 68 65 66 72 77 79 83 86 90 94 93 94 95 95 92 90 92 103 72 82 77 92 84 73 52 42 32 32 30 30 31 31 32 36 36 40 41 43 49 43 34 44 43
64 63 63 57 54 55 61 57 58 54 59 68 72 73 74 81 84 87 90 94 95 97 99 95 100 94 85 95 92 71 93 83 97 98 86 56 46 38 33 34 33 33 32 32 34 34 37 38 37 42 41 39 44 43
65 61 54 56 49 56 59 58 58 59 66 74 75 77 78 83 87 90 94 98 100 101 103 101 102 99 99 89 93 71 95 92 110 92 97 60 44 40 37 35 34 35 35 34 35 33 34 36 35 38 39 38 36 40
65 55 65 58 55 61 66 67 68 64 68 74 80 80 81 85 88 93 98 101 103 105 108 108 106 105 103 95 102 86 99 102 83 98 90 58 47 41 39 39 36 35 36 36 36 32 31 33 32 34 35 35 37 35
60 64 62 59 63 66 64 66 70 68 68 76 81 82 83 87 92 96 100 105 107 110 112 108 108 100 105 109 106 109 100 93 94 111 95 71 52 48 46 42 40 37 36 38 38 33 30 32 32 31 32 33 34 34
68 65 64 63 65 68 70 73 74 73 73 77 83 87 88 90 94 101 105 108 111 110 113 110 113 110 112 112 113 99 97 110 82 89 79 88 63 50 49 46 44 40 37 36 40 37 32 32 32 29 31 33 34 40
68 65 66 70 71 72 73 76 75 77 78 80 85 88 89 93 100 103 106 111 115 118 113 114 112 108 118 119 121 112 102 98 91 85 72 63 62 58 53 50 47 44 39 37 37 39 35 33 34 31 31 34 35 40
68 71 74 77 77 77 79 79 79 82 83 86 90 94 99 100 100 105 111 113 117 115 117 114 111 120 117 120 123 104 111 102 99 75 62 42 50 54 55 54 48 47 43 39 37 39 38 36 35 34 33 33 36 39
74 73 81 84 82 84 84 85 85 89 91 94 96 97 98 101 104 109 114 116 120 115 117 115 118 120 119 122 126 108 102 81 93 81 64 44 46 51 54 55 49 48 47 43 40 37 39 39 37 37 35 35 35 37
83 81 83 86 87 87 88 89 92 93 95 98 99 100 105 107 111 114 116 119 117 120 119 122 118 124 123 126 116 109 96 99 76 87 65 47 47 51 55 55 52 47 47 43 41 38 39 39 40 38 37 37 36 35
86 86 90 89 88 90 91 94 95 97 99 102 104 107 109 113 114 117 119 117 122 121 123 118 124 122 124 124 106 99 106 74 75 64 63 59 50 51 51 53 50 44 43 42 39 39 38 39 39 41 40 39 38 37
95 94 95 95 96 96 97 98 101 102 106 109 112 114 114 115 115 121 119 121 123 125 113 122 124 127 124 118 105 102 77 77 67 57 58 61 54 49 47 47 46 42 41 42 39 38 37 38 38 42 41 40 40 39
95 96 98 100 100 100 100 105 109 110 110 111 114 114 114 118 121 118 122 124 123 109 123 125 129 124 124 115 113 84 79 70 63 61 58 53 51 47 42 44 42 39 38 39 40 37 37 37 39 40 43 42 43 42
98 98 101 105 106 107 106 110 113 113 113 114 114 115 121 117 120 122 125 126 110 122 123 127 124 126 110 100 87 78 69 65 61 58 53 49 48 44 40 39 41 39 37 37 39 38 36 37 39 40 40 43 43 42
104 103 106 109 108 109 113 115 116 116 117 116 119 117 118 119 119 121 125 118 120 124 125 125 125 94 98 82 70 67 63 61 60 54 48 45 43 41 38 36 38 38 38 36 37 37 35 36 38 39 40 40 42 42
108 108 111 112 112 111 115 118 122 121 119 119 118 116 115 117 117 119 120 121 121 121 127 112 92 91 77 70 67 63 58 57 57 53 43 43 41 37 35 35 34 33 34 34 36 37 35 35 36 38 39 39 40 41
113 112 110 110 116 121 122 121 120 117 116 114 112 113 119 118 118 123 118 119 123 118 110 97 83 74 71 66 62 58 54 52 54 50 42 39 39 35 32 35 32 28 31 29 31 34 35 34 34 34 36 37 39 42
109 108 112 114 115 116 113 113 113 111 108 109 117 117 112 117 120 117 120 117 111 101 97 85 75 68 61 58 57 55 50 44 45 46 42 36 35 34 33 33 32 27 30 27 26 28 32 34 32 32 34 35 37 40
109 109 107 107 110 115 115 112 111 112 118 123 120 120 121 123 123 115 108 102 94 87 76 72 66 56 53 50 52 51 49 40 40 42 39 35 30 30 31 33 33 30 29 26 24 24 27 30 30 29 30 33 35 38
115 115 113 111 112 114 117 118 119 120 116 116 118 118 118 121 107 94 96 85 78 71 70 60 55 52 52 52 51 47 41 40 38 38 38 37 32 31 31 29 27 29 29 24 22 21 23 24 25 26 26 29 31 33
110 113 114 117 119 119 120 118 112 113 112 110 111 114 107 105 96 75 77 75 68 63 57 51 48 48 48 48 47 39 36 37 37 38 35 35 33 31 29 22 20 23 24 21 19 19 20 20 21 22 23 24 26 29
120 119 118 116 113 114 112 113 109 110 114 115 104 99 84 74 77 75 73 63 57 52 50 50 47 44 41 37 36 36 35 38 37 32 29 26 27 23 16 13 14 19 20 18 17 17 17 18 19 19 19 20 21 22
109 114 118 117 115 117 120 122 118 112 115 107 92 80 69 60 57 62 57 52 50 47 45 45 42 36 33 32 33 34 33 28 25 24 22 18 15 16 15 12 12 15 15 15 15 15 15 15 15 14 15 15 16 17
116 111 106 102 101 100 99 96 91 87 81 75 72 67 59 48 48 48 46 44 43 41 39 35 31 29 28 29 29 26 22 19 18 17 17 17 17 13 11 11 10 11 12 12 12 12 11 12 11 11 11 12 13 15

GFSWCAN_250_spd_057.txt.gz
Wind_Speed
57 48 42 40 37 42 43 42 40 39 42 41 40 43 47 44 46 48 48 50 50 52 59 65 71 75 82 82 80 74 73 65 58 55 42 33 26 24 20 20 23 26 27 28 30 33 31 29 31 31 33 34 33 33
58 48 43 39 34 39 38 38 38 40 41 40 41 44 44 45 47 47 48 48 50 54 60 65 72 74 81 83 78 67 60 72 61 49 46 40 30 26 24 22 24 24 25 27 28 30 30 28 30 33 34 34 35 34
58 49 44 39 34 32 36 39 39 40 40 40 41 45 44 46 48 47 49 50 53 56 60 66 70 73 77 83 79 74 58 60 61 50 49 41 34 29 26 25 24 24 23 25 28 28 31 31 30 32 34 34 35 35
59 52 47 39 34 33 36 38 40 37 40 40 40 42 46 48 49 47 51 51 55 60 62 68 71 75 76 82 83 73 65 62 54 57 52 46 39 31 27 25 23 22 24 27 30 28 28 31 31 31 32 33 34 35
60 53 46 43 36 36 37 34 34 38 41 41 42 42 46 49 48 49 51 52 56 60 63 67 70 73 79 84 85 76 80 70 63 62 58 51 42 39 30 24 22 22 26 30 33 30 34 34 33 35 36 35 37 36
59 53 48 45 42 35 32 28 31 35 40 41 42 43 48 50 49 50 53 54 57 61 65 68 70 74 76 81 85 83 82 76 67 65 68 61 49 46 38 27 26 26 30 32 35 36 37 37 37 37 40 41 40 41
61 56 52 50 44 39 32 29 30 35 39 41 43 45 49 49 50 50 53 52 57 62 67 70 74 77 81 84 87 83 81 84 79 79 72 66 54 48 44 36 32 31 32 32 35 38 40 40 44 41 42 45 47 49
62 59 57 54 48 40 34 30 32 37 43 42 43 47 48 51 53 54 55 56 60 65 69 73 75 79 83 85 87 89 87 83 86 84 81 75 60 58 39 36 32 32 35 34 32 36 40 44 42 43 44 47 51 53
63 61 59 55 49 43 36 34 35 40 45 45 47 49 53 54 54 58 59 62 64 65 70 75 76 80 85 86 89 96 81 81 93 86 89 78 81 68 52 38 33 33 35 37 36 34 38 42 45 45 47 49 50 51
65 62 59 55 54 44 40 38 42 42 46 49 47 51 54 56 56 57 61 64 68 69 74 77 78 80 85 88 91 98 82 92 89 89 82 91 97 86 57 44 37 33 34 38 40 38 41 44 45 47 50 49 45 43
68 64 61 56 51 44 42 43 48 49 50 49 52 54 57 59 59 61 65 68 72 75 77 80 82 85 87 91 95 98 96 88 83 82 69 78 98 90 77 51 37 34 34 35 40 40 41 45 44 45 45 44 42 40
67 64 60 56 50 48 45 49 51 52 50 51 53 56 59 62 63 64 67 71 74 77 81 83 86 90 93 96 103 106 105 94 83 73 61 92 95 114 81 47 40 38 35 36 38 40 41 42 44 45 42 40 40 39
68 64 61 57 54 51 52 52 54 54 54 52 55 54 59 62 65 68 73 77 78 81 84 87 93 96 95 100 108 108 112 100 92 81 71 84 93 109 80 58 44 36 35 36 36 38 41 40 41 45 43 39 39 38
69 65 62 59 55 54 57 58 55 57 55 55 57 60 63 64 67 72 77 80 82 86 89 92 96 97 102 105 111 111 110 104 96 95 92 96 85 93 75 55 48 47 38 35 38 36 37 39 39 42 42 41 38 38
68 64 62 58 57 55 54 54 54 57 57 60 63 63 65 67 72 74 78 82 86 90 94 97 100 100 107 111 114 116 111 109 100 104 102 100 88 87 72 57 52 47 47 40 38 38 36 37 38 40 40 41 40 38
66 63 59 58 57 54 53 52 55 60 60 62 64 69 69 71 75 77 81 84 90 93 97 99 102 106 110 116 117 118 116 106 103 102 103 101 79 83 71 57 52 50 49 46 42 40 37 38 37 37 40 39 41 40
60 57 55 55 57 53 52 55 58 61 62 64 69 73 73 76 77 79 83 88 94 97 99 100 106 110 111 118 119 117 112 112 109 109 111 104 84 74 66 58 55 51 50 48 44 42 38 37 38 36 38 39 42 42
58 56 59 61 59 57 53 59 63 67 67 70 73 76 78 79 81 82 88 93 97 100 101 105 108 113 117 119 124 112 111 106 111 104 108 85 81 68 61 56 52 50 46 45 43 41 36 34 37 36 36 38 40 44
61 62 61 62 62 61 58 61 69 76 76 72 73 74 77 82 85 87 91 95 98 104 106 109 113 116 118 122 117 115 109 117 105 118 104 95 73 66 62 57 54 47 43 41 39 39 36 33 32 36 35 37 38 42
65 63 56 60 70 65 58 65 76 77 76 80 85 85 85 86 91 94 96 99 102 109 111 112 117 120 123 125 113 111 121 113 107 97 94 86 69 64 59 57 53 48 43 38 37 37 36 32 30 34 35 37 38 39
62 63 63 71 73 71 69 76 78 80 84 88 90 89 89 93 96 98 101 103 107 111 111 116 122 123 126 109 112 113 116 123 97 86 72 67 66 61 57 53 49 47 45 39 36 36 33 30 29 31 34 36 39 39
72 72 73 80 83 83 79 82 81 83 85 85 86 89 96 99 100 102 104 108 110 111 116 122 123 128 118 113 115 117 125 104 101 84 69 64 62 60 54 49 48 45 43 40 38 34 29 26 28 30 31 34 38 39
78 82 86 83 83 86 84 85 88 89 89 90 93 99 101 103 105 106 110 112 112 116 120 123 129 120 117 113 115 122 106 92 80 73 67 63 61 56 49 44 44 42 41 39 37 33 29 26 26 29 30 32 35 38
84 85 87 87 88 90 91 92 91 91 93 96 100 103 106 108 109 112 115 116 117 121 124 132 120 118 107 113 117 113 89 78 71 71 64 56 56 46 42 41 41 39 41 37 34 31 30 27 25 27 29 30 33 35
89 91 93 95 95 92 93 95 97 98 100 102 105 109 110 112 112 114 117 121 124 129 128 114 113 111 110 117 118 93 82 74 66 61 61 50 48 44 40 40 40 37 38 36 30 32 29 29 27 26 27 29 31 33
96 98 98 99 99 101 102 101 102 103 105 108 109 111 112 114 117 120 122 126 129 120 112 118 113 114 124 112 85 73 70 70 67 62 56 47 44 43 43 40 39 34 35 36 27 30 30 29 28 26 24 27 30 32
100 102 104 105 105 105 105 105 107 109 111 112 112 114 116 119 123 123 128 126 117 113 117 116 115 113 96 78 65 62 59 57 56 54 49 47 43 39 40 42 37 34 33 33 27 27 29 28 28 27 25 25 28 31
102 103 105 106 107 107 108 109 111 113 114 115 117 119 122 122 124 122 113 112 115 110 113 107 96 89 74 64 60 56 53 50 52 47 44 43 39 38 41 44 37 32 31 31 28 24 25 26 25 26 25 24 26 29
109 108 107 108 110 111 112 114 115 118 118 120 119 122 125 120 109 108 110 107 103 107 98 93 81 72 65 61 56 49 43 42 47 48 41 39 38 35 36 32 28 28 27 28 25 20 21 22 23 23 22 23 24 26
112 112 113 114 115 116 118 119 121 124 125 124 116 116 113 111 108 104 105 107 110 97 78 71 64 60 57 56 55 49 44 42 41 42 41 37 35 33 31 29 24 25 25 27 21 16 18 20 20 19 20 21 22 24
116 117 117 118 119 120 122 119 115 114 113 113 112 114 112 113 115 110 105 100 85 70 65 59 55 52 51 49 48 47 43 38 39 38 37 35 31 28 27 24 24 25 24 22 16 12 15 18 18 18 18 18 20 22
118 115 113 111 110 111 110 110 111 111 112 112 111 112 115 110 104 87 82 74 66 61 55 53 52 51 47 44 43 40 38 37 37 35 32 29 27 24 23 23 22 19 16 15 13 12 13 15 16 16 17 18 18 19
113 113 112 110 110 109 110 106 103 108 117 121 114 96 80 70 67 66 65 60 53 51 49 47 46 43 39 37 34 32 32 32 32 30 27 24 22 21 20 18 17 15 15 14 14 13 13 13 13 13 14 15 16 17

GFSWCAN_250_spd_060.txt.gz
Wind_Speed
79 72 63 54 45 41 34 32 36 38 39 39 39 34 32 32 36 35 35 38 37 39 41 46 49 55 61 66 72 76 78 82 72 60 62 55 56 46 38 28 23 23 24 27 32 34 31 35 37 37 38 38 38 37
79 73 64 55 44 40 34 33 36 38 37 39 40 34 33 34 35 35 36 36 36 39 41 44 49 54 60 63 71 73 80 82 83 71 56 56 56 43 38 32 26 24 25 27 31 33 35 35 37 38 38 39 42 41
78 70 63 54 46 40 34 34 40 39 39 42 41 34 33 35 34 35 36 33 38 41 41 44 49 54 59 64 68 73 79 82 84 74 57 51 39 38 37 32 27 26 27 31 34 32 35 36 36 36 40 41 40 41
76 71 63 55 47 42 37 34 37 39 40 40 38 33 35 33 35 35 38 34 37 39 40 45 48 54 59 64 68 73 77 85 86 67 52 48 44 47 40 33 26 28 31 32 34 33 35 38 38 39 40 41 41 40
80 73 66 57 49 44 37 34 35 38 39 38 36 36 35 32 33 37 37 37 39 40 44 45 49 54 59 61 67 74 77 83 87 84 64 51 44 48 43 45 31 27 35 37 36 36 38 37 37 39 41 39 40 41
78 72 65 58 53 46 36 32 33 38 38 36 36 36 37 36 36 39 38 39 41 42 45 47 51 55 58 63 68 74 78 83 91 93 79 67 57 51 55 50 41 31 28 31 39 41 42 42 38 41 45 44 44 45
76 71 63 58 53 46 38 33 34 34 34 36 35 36 35 34 36 40 39 41 42 44 47 51 52 57 61 66 69 76 78 85 87 91 84 79 77 68 58 54 50 41 32 29 33 41 45 46 46 43 43 47 49 52
79 72 66 59 52 46 41 35 33 34 36 35 34 33 32 34 39 42 42 41 44 45 50 52 54 59 62 67 70 76 79 84 86 92 84 81 76 82 74 64 64 48 36 34 31 35 41 48 47 48 47 49 53 55
79 74 68 61 56 49 43 37 35 35 34 34 33 32 32 39 42 44 44 42 44 48 51 53 56 61 65 68 72 78 80 84 90 91 88 90 77 82 82 74 70 66 44 39 34 34 37 41 47 49 50 51 53 55
78 71 67 63 59 51 45 40 38 35 36 35 33 31 37 42 42 44 44 45 49 51 51 55 58 62 65 68 73 78 81 85 91 90 91 89 72 79 80 79 84 96 62 44 43 41 39 39 42 47 49 50 50 53
78 73 69 64 56 52 46 43 40 37 36 34 32 33 41 46 44 46 45 47 50 53 57 58 60 64 66 71 77 81 82 87 92 90 96 91 80 74 70 67 66 83 70 58 47 39 42 46 45 43 46 48 48 49
78 74 67 62 58 54 49 45 42 39 38 36 36 39 47 47 47 48 49 52 53 55 59 61 64 68 71 75 81 83 87 93 95 96 99 104 90 86 75 72 67 66 62 53 52 51 47 45 48 47 44 42 42 45
77 72 67 63 59 55 52 47 42 41 39 39 41 43 48 49 51 53 57 57 57 60 63 65 68 71 75 80 86 89 94 98 100 104 107 107 102 98 98 86 85 85 67 52 49 52 52 49 47 46 44 43 41 42
75 69 66 63 59 56 52 44 44 44 42 42 42 45 47 51 56 56 57 58 60 63 66 69 70 72 78 83 88 92 95 99 103 108 113 111 115 101 97 98 94 89 73 60 52 51 53 52 48 44 44 39 41 42
74 72 68 63 58 55 46 43 45 45 44 44 47 48 53 55 55 56 58 60 64 67 70 71 72 76 83 88 93 95 98 103 105 109 112 117 108 98 102 102 94 88 75 63 58 54 50 52 48 43 42 40 37 40
75 71 65 60 56 49 49 47 48 46 48 48 49 53 54 55 57 58 60 63 69 72 75 75 76 83 90 92 97 100 103 107 110 114 117 123 107 101 107 101 94 79 70 64 60 55 51 50 49 42 40 42 37 38
70 62 58 56 53 51 49 49 48 48 51 54 55 53 54 58 59 59 62 68 70 75 79 78 81 90 92 94 99 103 106 110 114 119 122 122 112 114 109 101 85 73 65 63 60 54 48 47 46 41 39 42 37 38
66 62 60 60 55 51 51 52 53 54 56 58 57 56 58 61 63 62 64 72 76 78 77 80 87 90 92 97 102 106 110 113 119 122 127 120 121 111 103 91 82 71 64 62 58 52 46 44 43 39 37 39 35 36
61 61 60 57 56 56 56 55 55 56 56 57 58 64 66 64 61 63 68 76 76 75 77 86 88 91 97 102 106 109 114 116 120 125 130 123 114 104 96 85 75 69 64 62 55 50 44 42 39 36 36 36 32 33
65 61 58 58 59 59 59 56 55 52 56 61 65 65 67 67 65 68 72 73 77 81 84 88 94 98 103 106 110 115 117 122 120 125 126 115 107 105 93 80 73 67 62 60 54 51 44 40 34 33 34 33 30 32
64 62 61 59 58 56 54 56 59 61 64 67 66 66 68 73 77 77 76 81 84 84 89 95 100 103 107 110 114 116 120 120 125 124 111 106 104 95 85 74 68 60 56 54 50 47 43 36 31 30 31 30 29 31
64 63 62 62 63 57 59 61 65 69 69 67 66 68 68 72 77 82 87 89 89 92 96 100 104 107 112 115 116 117 116 120 125 118 105 102 91 84 76 67 61 56 52 50 49 44 40 34 29 29 29 29 30 32
66 67 67 67 65 63 67 72 73 73 72 70 71 73 76 78 81 82 86 89 93 97 100 103 107 112 116 118 116 115 116 119 119 106 102 89 79 73 63 59 53 50 47 46 47 42 37 35 29 29 28 29 30 32
69 68 68 68 70 72 76 78 78 77 76 74 73 78 82 83 85 89 90 93 97 101 105 108 112 116 120 118 116 112 108 119 104 100 91 80 72 66 60 55 50 44 44 46 42 39 37 34 30 29 29 30 31 31
72 74 77 78 78 78 78 80 81 81 79 78 81 83 84 87 91 94 97 100 104 108 112 113 115 120 117 113 115 120 126 106 101 88 80 70 63 60 60 53 48 43 41 42 38 38 36 33 31 29 28 30 31 32
80 81 82 82 82 79 79 80 79 78 80 83 85 86 89 92 96 99 102 106 109 112 116 117 121 122 118 113 116 128 116 100 83 74 72 65 59 54 53 51 44 41 42 46 39 36 36 35 29 29 26 28 30 30
80 83 83 82 81 82 82 82 82 84 86 88 90 92 95 98 100 103 106 109 113 116 116 116 120 112 112 122 114 100 91 79 73 67 62 58 52 49 49 48 47 43 39 41 36 30 30 31 28 29 26 25 28 28
87 87 86 87 88 89 88 89 90 91 92 95 97 99 101 103 106 109 113 114 116 115 114 119 117 111 113 101 97 85 78 73 68 62 57 48 43 48 49 47 45 41 37 37 34 26 26 26 24 26 25 22 23 25
93 92 92 92 91 91 93 95 97 98 99 101 103 105 107 110 112 114 116 115 115 116 116 113 104 101 106 99 80 70 68 62 59 56 50 47 47 46 45 43 40 37 32 29 28 24 23 22 22 22 21 20 20 22
97 95 94 94 95 97 99 101 102 103 105 106 108 112 113 115 117 116 115 115 109 112 107 113 103 107 96 82 73 68 61 54 52 50 48 49 46 42 40 38 35 33 30 28 26 24 22 20 22 22 17 16 19 22
98 98 98 100 103 105 106 107 108 109 111 112 114 118 119 119 118 117 116 114 109 105 104 107 99 86 78 68 67 61 54 49 46 44 44 43 41 38 36 34 32 30 28 25 22 19 18 18 18 16 11 11 15 18
104 105 105 107 108 109 109 110 112 114 116 117 119 121 120 121 119 116 104 101 101 105 109 95 86 72 65 63 57 53 49 46 43 42 40 38 35 34 33 32 29 27 25 22 18 16 14 13 12 10 10 11 12 14
111 110 111 112 113 112 113 115 117 117 118 117 115 114 111 100 92 94 97 106 109 98 85 72 63 59 59 53 48 45 43 42 41 39 37 35 32 30 30 29 27 25 24 22 20 18 16 15 14 13 12 12 12 12

GFSWCAN_250_spd_063.txt.gz
Wind_Speed
85 86 80 75 68 59 54 53 45 41 39 38 40 40 33 26 26 27 23 23 26 29 30 32 36 39 44 45 48 55 61 66 73 79 81 72 63 60 52 44 45 39 27 28 29 29 31 38 39 39 39 40 43 44
87 85 77 72 69 60 53 50 44 42 40 41 43 41 34 28 27 26 26 25 25 29 30 32 35 40 40 45 51 52 57 61 68 67 78 79 74 67 59 53 46 38 38 33 33 35 35 37 39 40 41 43 45 45
87 85 82 80 74 66 57 48 42 40 44 44 43 39 34 28 28 26 28 26 28 28 30 31 35 39 40 45 49 52 58 61 65 68 73 77 70 67 59 59 55 43 36 37 35 35 36 38 41 41 42 44 45 46
89 85 82 75 67 58 58 49 43 43 45 44 41 39 36 32 32 28 29 26 27 25 30 29 33 38 42 45 49 53 56 61 65 70 73 76 71 65 62 55 52 45 42 37 36 34 36 38 40 42 43 44 45 46
89 84 77 71 66 57 49 45 45 44 45 45 43 43 38 35 32 29 28 28 25 27 31 30 36 39 43 46 51 55 57 60 66 70 72 76 77 68 73 57 47 49 47 46 37 35 37 36 38 42 45 46 46 48
92 86 79 75 69 60 55 49 43 41 43 46 46 41 38 36 33 30 29 29 26 28 33 32 38 40 43 47 51 56 58 63 69 70 74 76 81 85 86 73 65 58 59 56 51 42 40 41 40 40 44 48 49 51
94 89 84 77 72 64 54 50 45 39 41 45 44 43 39 37 33 29 30 29 27 32 33 35 38 40 44 47 51 57 60 64 70 73 76 81 85 86 92 86 72 73 70 65 57 58 45 42 43 44 44 45 49 52
94 89 83 75 67 62 56 50 44 42 42 44 43 40 38 36 33 32 30 29 30 33 33 37 39 41 46 48 52 58 61 65 70 76 80 81 87 90 93 91 88 84 89 87 66 63 48 42 41 43 44 47 49 50
90 81 75 71 66 59 55 50 44 41 41 42 40 39 38 37 37 34 31 29 32 31 33 38 38 42 46 50 55 60 62 66 73 76 80 81 84 88 95 88 90 93 89 86 81 79 70 44 43 44 44 46 48 52
89 83 79 76 70 65 58 52 46 43 42 42 42 42 39 38 37 33 28 29 34 32 35 40 41 45 49 52 57 62 65 69 76 78 81 84 88 87 96 95 99 97 90 90 85 80 72 71 51 38 45 49 50 50
90 87 83 76 69 62 57 52 47 45 44 43 44 42 39 39 36 33 30 35 35 37 40 42 45 50 50 53 58 63 67 70 77 78 81 84 88 88 97 95 105 101 93 93 86 81 76 64 60 56 48 40 42 48
92 86 79 73 68 63 57 53 50 45 43 43 43 39 38 36 37 34 35 37 41 43 43 45 51 50 52 57 61 68 70 72 80 84 86 91 95 93 99 104 109 111 100 102 93 89 79 65 55 53 52 51 45 39
89 83 75 72 69 66 63 58 52 46 44 41 39 42 39 37 36 37 38 41 44 47 47 51 52 51 54 60 63 69 69 74 84 87 91 95 97 98 100 109 111 109 114 109 101 94 84 65 55 51 51 51 49 44
90 83 77 74 71 66 60 53 48 47 43 42 44 42 40 40 41 41 42 46 47 48 51 54 52 52 58 62 67 67 70 79 86 89 95 98 102 101 109 105 116 117 123 114 101 94 79 63 54 52 49 50 49 45
89 83 79 76 71 64 59 54 52 48 47 46 44 41 41 42 42 43 46 48 50 51 56 55 55 57 62 65 70 73 78 85 89 92 96 101 104 106 109 108 119 122 126 111 96 89 73 62 56 51 48 47 46 44
89 84 80 75 69 64 59 56 52 50 49 44 44 42 43 45 45 47 50 52 52 56 57 58 60 62 66 67 72 78 84 90 94 99 102 105 106 110 107 117 121 128 118 100 93 77 66 59 55 49 47 45 43 40
88 81 77 73 70 64 60 56 51 46 46 43 42 45 46 47 50 53 54 57 59 58 59 61 62 63 70 73 78 84 91 93 97 102 107 109 108 113 117 118 129 123 104 92 82 71 62 56 50 46 45 41 40 36
83 78 73 68 63 60 56 51 45 43 44 45 45 48 50 50 54 58 59 59 60 61 60 62 66 72 73 76 81 88 91 95 100 106 110 111 107 116 113 123 125 110 99 86 77 69 60 52 46 42 41 39 37 34
78 71 69 66 61 57 54 48 45 47 48 49 52 52 51 55 59 60 62 63 62 62 62 66 69 72 77 82 86 90 94 99 105 110 112 111 117 122 122 121 110 103 89 79 72 65 57 51 45 40 39 37 34 33
79 76 71 65 61 57 53 49 50 49 51 55 58 55 58 62 62 62 64 64 63 63 66 68 72 78 82 86 90 96 100 104 109 111 114 116 121 120 116 111 104 93 85 76 67 61 57 51 45 39 37 35 34 33
80 74 68 65 61 56 54 53 53 54 57 61 61 62 64 63 63 64 64 65 64 68 70 71 77 81 85 91 95 99 103 107 110 113 117 110 113 118 117 107 96 85 77 69 64 56 53 50 45 39 35 34 33 32
73 70 64 61 60 58 57 58 56 58 62 62 65 66 65 67 65 64 63 65 69 72 73 78 82 86 90 95 99 102 106 110 113 117 104 108 117 112 108 94 81 75 69 64 60 55 50 46 40 36 33 33 31 31
72 68 65 62 59 60 59 57 58 60 62 67 69 69 69 66 65 65 69 71 74 77 81 84 87 92 96 99 102 107 109 113 113 110 102 110 125 110 95 83 72 64 64 59 54 51 48 44 38 34 32 32 30 29
72 69 65 64 62 59 59 60 64 66 70 71 72 71 70 69 69 71 72 74 79 83 86 88 92 96 99 104 107 111 114 107 113 99 107 113 110 98 88 75 64 57 56 56 51 48 46 43 41 37 33 31 30 28
68 67 64 60 60 63 67 68 70 73 74 74 72 72 73 73 72 72 75 79 83 85 88 91 95 99 103 108 113 114 112 115 108 112 111 108 96 87 80 70 61 53 54 56 51 46 44 40 37 34 31 29 27 26
66 62 62 65 70 72 74 77 77 76 74 74 74 74 74 74 76 77 79 83 85 88 92 96 100 105 110 112 113 119 120 112 105 105 107 96 86 76 70 63 59 55 51 51 49 42 38 38 34 34 32 27 25 24
72 73 75 79 82 84 82 78 75 74 74 74 75 76 79 79 81 83 84 86 91 96 99 102 106 110 114 114 119 110 104 106 105 103 95 87 77 67 61 58 56 53 50 46 44 41 36 36 35 31 29 24 22 22
82 82 82 83 82 79 75 73 74 75 77 78 80 82 83 85 87 87 88 94 98 101 103 108 111 116 116 113 109 114 109 101 101 96 85 73 64 60 57 54 52 49 46 42 39 37 34 35 34 28 25 22 20 21
81 81 81 80 78 78 80 80 81 81 82 84 85 85 86 87 90 92 96 100 103 106 110 112 115 116 114 112 104 96 95 95 88 80 73 65 60 56 52 49 46 44 41 39 37 35 34 34 31 26 23 21 19 19
85 87 86 86 86 85 84 84 84 85 87 89 88 89 91 93 96 100 103 105 106 109 113 116 113 114 103 99 93 96 91 87 79 72 67 61 58 53 50 46 43 41 38 36 35 34 33 32 31 26 23 21 19 19
94 94 92 90 89 88 89 91 93 94 93 93 95 96 97 100 104 107 108 111 111 113 114 105 98 94 97 88 91 81 78 77 68 62 59 56 52 49 46 43 40 39 38 35 34 33 30 27 26 24 22 20 18 16
97 95 94 93 94 95 97 98 98 98 98 98 99 102 105 107 109 110 113 114 108 105 107 103 97 93 89 86 79 78 73 67 60 55 52 49 46 44 41 39 37 36 36 35 33 31 29 26 23 21 19 17 16 14
99 98 99 100 100 101 102 102 102 103 104 105 106 109 111 113 114 115 109 110 110 104 97 94 89 88 79 73 69 66 62 58 54 51 48 44 42 40 38 37 37 36 35 32 31 29 27 25 23 21 19 17 14 13

GFSWCAN_250_spd_066.txt.gz
Wind_Speed
71 76 74 84 82 80 76 67 60 58 49 44 38 37 33 31 30 27 23 18 14 14 20 24 26 24 27 31 36 38 43 47 48 52 49 63 67 66 61 54 54 52 46 43 40 37 33 32 36 40 40 42 45 47
77 76 79 83 79 74 68 61 61 53 50 47 42 40 35 32 29 26 24 19 16 16 21 24 23 23 28 33 35 38 42 47 45 50 49 53 60 65 57 64 56 55 51 46 43 36 35 34 35 36 41 45 46 48
72 78 81 82 85 77 72 66 56 53 48 43 41 42 38 35 29 28 26 21 18 19 21 22 24 24 27 33 35 40 42 44 51 49 53 53 59 56 65 72 64 57 55 52 47 45 42 38 33 31 37 40 44 47
71 76 85 81 78 78 71 65 60 54 50 45 44 43 39 35 29 28 24 21 22 21 21 21 24 27 28 33 38 41 45 49 51 54 54 58 61 64 66 63 75 65 57 53 55 49 46 43 40 33 31 36 41 44
79 86 88 83 79 76 69 62 54 55 53 50 46 43 40 35 31 28 24 24 25 23 23 24 24 26 28 33 36 40 46 50 53 56 56 62 66 67 69 65 71 68 63 63 60 63 47 43 45 44 37 33 35 41
82 90 87 84 78 73 71 60 55 51 47 45 44 43 42 36 34 30 29 29 28 25 25 23 24 29 32 34 37 42 48 49 54 56 57 62 69 70 72 75 72 80 70 77 68 69 74 59 59 57 49 38 37 37
86 91 89 82 77 74 66 60 60 54 50 48 45 42 41 39 36 32 32 30 27 24 25 23 25 29 31 33 39 43 47 51 55 60 60 62 70 74 78 80 77 85 79 84 79 82 87 85 73 67 65 48 37 36
86 91 88 81 81 74 67 65 60 56 51 47 43 42 43 40 35 33 31 27 24 25 24 26 27 28 29 34 39 43 48 53 55 61 62 66 72 77 78 83 86 95 88 96 97 100 98 92 91 81 73 59 44 37
91 92 89 87 83 78 73 68 62 55 52 47 43 42 42 38 35 35 28 26 26 26 27 28 26 28 30 35 40 47 49 54 57 62 63 67 73 78 80 86 86 93 93 94 104 97 108 100 99 87 79 69 53 41
94 95 90 86 83 78 72 66 60 56 51 48 44 42 39 37 36 35 32 30 26 27 29 29 28 30 33 37 41 50 52 54 60 63 65 68 74 78 82 87 87 96 94 101 96 94 103 101 99 88 74 64 57 54
97 92 89 84 79 71 65 59 56 53 49 45 40 35 37 39 40 37 33 29 29 30 32 31 30 31 34 39 43 50 53 57 60 65 67 72 77 78 84 88 86 93 94 98 98 102 105 103 99 87 71 60 53 49
99 93 90 86 80 73 70 62 55 52 48 46 44 41 40 41 38 36 35 34 33 34 35 33 31 35 39 41 44 51 56 58 62 68 71 74 79 83 87 87 95 97 100 102 103 114 110 106 93 80 68 59 53 50
98 92 91 87 81 76 70 65 63 57 49 47 44 43 41 40 39 41 41 38 36 36 37 35 35 39 42 42 46 52 57 61 67 73 75 78 83 87 92 93 100 97 99 109 111 117 107 103 90 74 65 59 53 50
98 94 92 85 83 75 72 68 62 54 51 49 46 43 43 44 44 44 41 40 39 40 38 36 38 42 43 46 52 55 59 65 72 75 80 82 86 88 95 97 103 98 110 108 120 112 107 97 84 70 60 54 51 48
98 95 90 88 80 77 73 66 59 59 53 47 42 42 43 45 46 44 42 41 43 43 41 39 42 45 46 50 55 58 64 71 74 78 82 84 89 92 98 102 100 106 112 115 116 110 98 86 73 65 57 52 47 44
96 96 89 84 84 77 71 65 62 56 51 46 44 44 44 45 45 44 45 45 45 45 42 44 46 49 52 55 59 62 69 74 79 82 85 89 93 96 101 104 107 113 111 111 108 104 89 77 66 59 54 48 44 41
98 92 90 90 84 77 73 66 62 57 50 46 45 46 46 44 45 48 49 48 47 44 45 48 50 53 55 59 63 67 74 79 83 86 90 93 98 100 106 108 112 113 110 112 101 97 79 68 61 56 51 45 40 38
98 93 90 85 81 77 72 65 60 54 50 48 46 44 43 45 49 52 51 47 44 46 48 50 53 56 59 65 67 71 76 81 86 91 94 98 102 107 108 111 116 108 110 106 99 86 73 65 59 52 47 44 39 37
96 87 83 77 76 74 68 61 57 52 49 49 47 46 47 50 54 51 49 46 47 50 53 55 56 60 64 68 70 73 81 86 90 94 98 102 106 111 113 119 115 106 108 102 92 80 70 61 56 51 48 45 41 38
93 88 82 80 77 74 69 61 56 53 50 48 47 47 49 55 54 54 47 47 53 56 56 57 61 63 67 72 75 80 86 90 93 97 101 107 110 113 119 116 110 107 100 98 85 73 66 61 55 51 48 46 43 39
95 89 82 79 76 70 63 56 54 54 53 53 53 53 58 61 57 52 52 54 57 60 60 61 63 66 71 76 79 85 88 91 95 99 103 109 110 114 116 112 105 104 99 88 78 71 64 61 56 49 45 43 42 40
86 80 78 76 72 68 64 62 58 55 54 56 56 62 66 62 56 52 53 58 61 64 64 65 66 71 76 81 85 88 91 95 100 103 107 111 114 115 116 104 108 100 96 80 70 63 61 57 54 48 44 39 38 37
80 77 75 73 70 69 67 64 59 55 54 56 64 69 67 59 55 55 61 62 65 66 68 70 72 77 79 86 89 92 94 99 105 108 110 112 113 110 108 106 101 92 84 76 68 61 57 55 51 45 41 39 36 33
83 79 76 74 71 69 67 62 59 58 62 67 69 67 63 59 57 61 64 64 64 68 72 74 78 80 85 89 92 95 99 104 108 112 107 110 109 114 111 105 98 83 72 66 61 58 54 51 48 43 37 35 34 31
82 81 78 74 72 70 67 65 64 64 70 71 67 65 62 60 62 65 65 65 68 72 76 79 81 84 89 93 97 100 104 107 109 111 113 114 106 108 106 103 92 78 68 60 57 55 49 47 46 42 38 35 34 32
80 77 73 70 69 67 66 67 69 74 73 70 68 65 63 64 64 66 68 70 74 78 79 82 85 90 93 95 99 104 108 109 111 114 116 104 103 104 101 94 81 76 66 58 54 51 46 44 43 40 35 33 31 30
72 70 68 67 67 68 70 75 76 73 70 68 66 65 66 66 67 71 73 76 78 81 83 86 89 93 96 100 105 108 109 111 111 118 108 101 101 96 94 80 73 66 60 56 51 47 44 42 40 37 33 30 28 27
67 67 68 70 72 77 75 74 71 70 70 69 68 67 68 70 72 74 78 81 82 85 88 91 95 98 101 105 108 110 110 112 119 115 101 100 94 89 78 69 62 57 54 52 48 44 41 39 38 35 34 30 27 26
73 74 75 78 77 75 72 71 71 71 69 69 70 71 73 74 77 80 84 85 87 89 93 96 99 102 106 110 113 109 108 112 106 96 98 96 91 79 70 62 56 51 50 47 43 41 40 38 35 32 31 29 26 24
83 80 78 78 75 73 73 71 70 70 72 72 74 76 78 80 84 85 87 90 92 95 98 101 103 108 110 112 112 106 109 104 95 95 93 87 77 71 64 58 53 49 47 44 40 38 37 35 32 29 28 26 25 22
81 82 80 77 76 75 74 73 74 75 78 80 81 82 85 87 90 92 94 96 98 100 102 106 109 110 110 110 104 109 99 95 96 90 82 74 69 63 58 54 50 47 43 42 39 37 35 33 31 28 26 25 22 21
83 81 80 80 79 79 79 80 82 84 85 85 86 89 91 94 96 98 99 102 103 106 108 109 110 112 103 102 103 96 93 94 85 78 71 64 59 55 53 50 48 44 42 41 39 36 36 34 32 29 26 23 22 20
85 84 82 82 82 84 86 88 88 88 90 92 93 94 96 99 102 103 104 106 107 108 109 108 106 102 102 96 90 91 91 82 75 68 62 57 54 51 48 47 42 41 40 39 38 36 34 32 30 28 25 23 21 18

GFSWCAN_250_spd_069.txt.gz
Wind_Speed
16 42 52 61 65 66 63 72 68 67 62 59 55 45 41 38 36 35 32 26 20 17 8 7 9 13 14 18 24 30 34 35 37 37 43 46 50 50 45 53 53 45 44 42 43 45 47 31 32 32 31 31 33 39
27 47 60 62 66 66 72 73 73 65 62 56 49 48 45 42 37 33 30 26 22 15 10 8 10 11 15 19 23 28 31 37 39 41 39 42 46 46 52 44 56 58 52 52 53 49 46 43 32 29 32 31 34 40
35 52 63 70 72 72 74 71 69 66 64 55 48 43 41 39 38 36 31 27 23 17 13 9 11 11 14 16 20 28 33 35 41 43 45 46 48 49 50 55 48 64 56 54 57 53 53 51 42 46 43 40 33 30
43 59 67 74 75 77 73 69 66 65 62 55 47 43 41 36 37 36 29 27 22 18 14 9 12 13 15 15 21 25 32 36 41 45 47 49 50 53 57 58 57 63 63 59 56 56 67 58 63 61 58 52 39 32
51 64 70 80 78 79 75 69 70 67 61 54 51 47 42 40 38 34 33 27 22 21 13 13 15 16 16 16 20 25 30 38 43 46 50 52 54 56 59 61 63 60 68 65 60 63 69 65 69 68 65 61 53 40
50 60 73 76 80 82 75 76 72 62 58 54 52 46 40 40 39 37 34 30 26 19 17 17 18 18 18 17 19 24 29 38 43 47 52 55 57 61 62 66 67 71 73 72 71 73 75 75 72 76 77 74 64 51
45 66 74 82 87 78 74 71 66 65 59 52 48 42 35 39 39 38 33 30 25 22 20 20 19 20 19 19 22 25 32 40 44 46 53 56 60 64 66 69 71 76 77 83 84 86 83 91 82 87 86 83 73 61
60 75 85 85 82 77 74 67 70 65 55 53 47 41 35 37 38 36 34 32 29 27 22 22 21 19 19 21 22 27 31 38 44 47 53 58 61 66 69 73 76 80 81 88 90 95 92 89 87 88 89 86 85 69
73 78 86 89 83 79 75 72 67 61 58 53 48 40 40 37 37 38 37 33 29 25 23 22 19 19 22 22 24 26 30 38 43 48 54 60 63 68 71 75 75 79 82 87 91 96 95 92 91 92 91 88 87 75
79 82 86 90 86 78 73 71 65 60 57 53 48 43 41 38 36 34 33 31 29 25 23 21 20 22 23 23 25 28 32 40 44 49 56 60 64 69 72 76 78 84 87 91 93 100 93 92 94 98 91 91 79 68
82 79 82 90 83 80 79 75 64 60 57 53 52 49 47 42 35 32 31 28 26 25 23 23 22 24 25 26 30 31 35 40 45 50 57 62 66 71 76 81 83 86 89 94 97 99 98 93 101 99 93 87 71 61
82 74 84 88 82 83 81 70 63 58 56 55 53 48 42 36 34 33 31 31 28 27 24 24 25 26 29 31 34 34 37 44 49 53 60 65 70 74 78 84 86 89 94 98 98 99 99 102 101 93 89 79 67 61
78 81 90 89 85 83 77 72 65 62 59 52 47 43 36 33 35 38 38 37 33 29 29 29 29 29 31 34 37 38 41 46 51 55 62 68 72 76 81 86 89 92 96 103 103 101 101 103 101 92 85 73 63 59
82 91 95 92 86 83 78 76 72 65 55 48 46 41 38 37 40 42 40 39 36 34 32 31 32 33 35 39 40 42 46 50 54 59 63 70 75 79 85 89 93 98 102 105 105 106 109 103 101 90 79 66 59 57
88 94 93 93 90 82 82 79 71 64 56 48 45 41 40 43 44 43 44 42 41 38 33 33 34 36 39 43 44 47 50 53 58 63 67 72 78 84 89 93 98 102 102 102 107 108 104 103 94 86 74 63 57 54
91 94 96 96 90 85 84 78 68 62 57 51 50 47 47 45 46 46 46 46 45 42 37 36 36 40 44 47 48 49 54 58 63 67 72 76 82 87 91 97 100 104 100 102 108 112 105 100 88 80 70 60 54 52
91 93 96 98 91 86 83 77 71 64 61 53 50 52 49 46 46 47 48 50 48 42 39 39 40 45 47 51 51 54 59 63 67 71 75 80 86 91 96 100 104 102 106 112 110 112 106 92 85 72 66 58 52 50
93 96 98 97 90 86 80 79 73 66 60 53 54 53 49 47 46 48 50 50 44 40 41 41 44 47 51 51 54 58 62 67 70 73 79 84 90 95 99 105 108 105 111 113 112 108 97 89 77 69 63 58 53 51
92 98 99 95 86 82 78 77 71 62 59 57 56 52 47 46 46 50 53 48 39 40 41 44 47 51 52 55 58 62 66 70 74 77 82 89 93 100 103 106 108 110 114 116 108 103 87 81 71 66 62 57 53 49
99 99 97 94 89 84 80 73 69 63 57 56 55 53 50 49 51 53 51 44 41 42 43 47 52 55 56 59 63 67 72 74 78 81 87 93 97 103 107 108 116 109 112 111 107 96 87 76 67 62 60 57 52 48
101 99 99 95 88 82 75 72 70 66 61 57 54 53 51 53 57 56 50 46 45 45 47 51 54 56 57 62 67 71 75 78 82 85 89 95 102 107 108 114 111 110 108 102 100 93 81 70 64 61 57 53 49 47
91 96 97 92 85 80 76 72 64 61 60 58 57 56 56 60 59 56 52 50 50 51 53 56 56 58 62 66 70 74 78 83 86 88 93 98 104 106 112 113 107 110 106 101 90 82 72 66 61 58 54 51 47 44
98 99 95 89 82 80 75 69 66 64 61 60 61 60 63 60 56 55 56 56 55 56 58 59 61 63 67 70 73 78 83 87 90 94 97 103 106 111 108 112 111 106 101 93 83 73 67 62 58 54 50 48 46 42
102 99 94 88 80 76 71 66 61 59 61 62 64 66 60 57 56 59 60 57 57 59 59 61 65 68 71 75 78 82 86 90 95 100 102 105 109 109 116 114 107 102 94 86 76 67 61 57 54 49 46 45 43 41
102 96 90 84 77 74 68 66 66 65 64 70 69 64 61 59 61 61 61 60 62 62 63 67 70 73 77 80 83 86 91 94 98 102 106 110 110 116 115 110 107 98 87 78 70 64 58 53 50 45 43 44 42 39
95 89 86 82 76 71 67 64 63 66 71 70 67 66 64 64 64 64 63 63 63 65 68 71 75 78 81 84 87 92 95 97 101 108 110 109 109 112 106 103 104 95 82 72 66 61 56 51 48 45 43 43 41 37
91 85 78 74 71 68 65 64 68 75 73 70 69 67 65 65 67 67 67 68 68 70 74 77 81 82 85 87 91 94 97 101 105 109 107 108 110 107 100 99 91 81 73 67 62 57 54 50 46 44 42 40 38 34
85 78 75 73 68 66 66 73 81 77 74 71 67 66 67 69 69 68 69 71 73 76 78 81 83 86 89 93 94 98 102 106 108 108 110 108 103 100 96 90 80 71 64 60 57 53 50 47 44 40 38 36 35 33
81 78 74 71 72 74 80 79 76 72 69 66 68 70 71 71 71 70 72 75 77 78 82 85 87 91 93 96 98 101 104 107 108 114 111 109 107 99 93 82 74 67 61 55 51 47 46 44 39 35 34 33 32 30
79 79 78 81 83 82 79 74 70 68 66 68 69 69 70 71 71 72 75 78 80 83 86 88 93 96 98 101 103 104 102 104 106 105 104 104 99 96 85 77 70 63 56 52 49 47 44 42 38 33 31 29 28 26
81 84 87 85 80 74 70 68 65 65 67 68 69 70 71 73 75 77 79 81 84 87 89 93 95 98 102 103 105 107 108 107 107 104 100 98 96 86 77 72 65 59 54 51 49 46 42 39 36 33 31 29 26 24
88 87 84 77 72 68 66 66 66 68 68 68 70 73 75 77 79 80 83 85 89 91 94 96 100 102 103 105 106 105 103 104 101 96 97 94 85 75 70 63 57 52 50 49 46 43 40 38 37 35 32 29 27 24
83 78 73 69 66 65 65 67 68 68 70 73 75 77 79 81 83 85 88 91 93 95 98 101 104 105 107 107 105 101 98 96 94 95 93 85 75 70 64 57 52 49 48 46 43 40 39 38 37 35 32 29 26 23

GFSWCAN_250_spd_072.txt.gz
Wind_Speed
6 6 27 41 43 43 47 52 55 67 69 63 58 57 52 47 44 39 39 35 30 23 20 15 7 1 2 5 10 16 22 27 32 36 40 41 45 45 47 45 48 49 53 48 49 50 52 50 49 46 43 42 41 33
3 18 39 41 47 55 49 59 63 69 68 64 59 57 48 45 44 40 40 36 31 25 22 16 9 3 1 4 8 14 19 24 30 34 39 43 46 50 47 48 50 48 50 54 54 57 60 54 54 53 50 49 50 48
13 30 45 53 58 54 58 59 65 66 67 62 56 53 50 45 44 41 40 36 31 27 24 17 11 6 3 3 7 12 16 20 26 32 36 41 45 49 50 56 54 51 55 58 59 62 65 65 65 58 54 50 51 47
21 34 49 58 57 58 65 60 65 64 61 60 59 54 50 43 43 40 38 35 30 29 24 18 13 7 6 7 8 11 16 22 26 30 35 39 44 49 54 56 59 59 61 64 63 68 72 71 74 68 69 67 62 53
27 38 55 57 60 63 68 66 67 63 63 61 58 52 49 42 41 41 38 34 31 27 24 18 14 10 9 10 11 13 16 22 27 30 34 37 44 48 53 57 60 63 65 68 66 70 74 79 76 75 72 76 74 65
31 41 55 67 68 59 68 66 66 64 63 60 56 49 47 45 41 40 38 36 32 29 26 20 16 13 12 13 15 14 19 23 27 28 33 39 44 47 51 57 62 65 70 74 73 76 83 80 83 83 82 84 81 75
33 44 59 66 72 70 70 72 70 64 63 61 58 53 49 45 44 42 34 32 30 25 23 23 18 16 14 15 17 16 19 25 27 29 33 38 42 47 52 57 64 68 73 76 81 83 87 83 86 93 94 92 88 84
39 47 61 69 75 73 72 72 69 66 61 61 57 50 46 45 44 43 37 34 30 29 26 25 21 17 15 17 17 19 23 27 30 31 34 39 44 49 54 59 65 69 74 79 81 87 89 85 90 97 102 95 94 83
41 51 65 68 70 74 74 74 69 66 63 61 52 46 46 46 47 43 40 36 34 33 30 26 20 19 17 18 20 21 24 29 32 35 38 43 47 52 56 61 65 69 75 82 84 89 93 95 94 103 104 94 93 88
44 53 58 54 77 77 77 74 70 66 64 59 52 48 48 47 46 43 42 40 35 31 27 24 22 20 19 19 19 22 28 34 38 41 43 46 48 52 56 63 68 72 78 83 89 93 96 96 99 105 104 98 91 90
50 57 62 66 76 78 79 76 68 67 60 54 52 49 50 50 48 45 42 41 36 32 29 26 24 22 21 21 20 25 30 36 39 43 45 50 52 57 61 65 71 75 79 85 90 96 98 97 105 104 106 105 97 92
52 61 63 69 78 79 80 74 70 69 61 54 52 50 47 44 45 42 34 31 30 30 27 25 24 22 24 24 24 29 34 38 42 45 49 54 56 60 65 69 73 79 83 88 92 99 102 101 107 102 103 102 94 84
58 68 72 73 77 80 84 79 74 70 61 60 53 49 44 40 38 36 37 32 29 27 26 26 25 24 26 27 29 33 37 40 44 46 50 55 59 63 68 73 77 81 85 92 97 101 103 104 107 105 102 97 86 76
64 73 83 79 81 84 84 81 76 71 64 58 53 50 46 43 42 42 38 31 29 27 27 24 24 25 26 31 33 37 38 43 47 51 55 59 62 67 72 76 81 84 89 94 101 104 105 112 109 105 102 91 80 69
68 76 90 87 83 81 86 80 77 70 65 59 53 49 47 48 44 37 35 34 33 33 32 31 30 29 31 34 38 39 42 46 50 54 58 62 65 70 75 79 84 87 93 99 103 105 111 112 108 109 99 87 76 65
70 79 90 89 88 86 86 83 76 72 66 63 57 51 53 50 43 41 39 37 35 35 37 36 35 35 36 40 41 41 45 49 53 57 60 66 70 74 79 83 88 92 99 102 106 108 115 111 110 106 95 82 72 63
69 83 90 85 84 86 88 84 79 76 66 63 60 57 55 47 44 40 37 38 39 40 42 38 38 41 43 46 45 47 50 53 56 59 64 70 74 78 83 87 91 99 103 107 107 114 115 113 108 99 89 77 67 60
78 87 91 84 86 86 90 86 81 74 70 67 64 62 55 49 46 42 43 44 44 43 41 40 41 43 45 47 49 50 54 56 58 61 67 73 78 82 87 91 97 103 105 108 111 116 114 112 105 91 79 70 64 59
80 81 87 79 82 90 90 86 79 76 74 71 66 64 57 53 48 46 48 49 46 42 38 41 43 44 47 50 51 53 57 59 61 67 72 77 82 87 90 94 101 103 109 110 117 115 111 110 96 82 71 66 62 58
77 82 88 91 95 97 90 84 79 76 75 72 67 62 53 51 51 51 53 51 47 42 41 43 44 47 50 52 54 57 59 63 65 72 77 81 85 91 94 99 103 108 111 111 117 114 109 107 90 77 67 62 59 58
84 89 98 98 97 96 90 85 82 79 77 72 69 60 53 50 50 53 53 51 48 45 46 46 47 50 53 57 59 61 65 64 68 74 81 88 92 96 99 105 108 112 107 115 114 112 109 95 82 73 66 61 58 55
90 95 97 98 98 94 93 87 85 83 78 73 68 65 59 54 54 55 53 53 50 51 51 51 52 54 58 61 62 65 67 68 74 78 84 90 93 97 101 106 109 109 111 114 111 105 100 85 76 68 63 60 57 53
91 95 101 102 98 97 94 90 87 82 75 73 69 64 59 60 62 57 54 49 51 54 53 53 54 57 60 62 65 68 69 74 78 83 87 92 97 99 103 107 108 106 114 110 110 102 90 78 70 64 61 57 54 53
92 96 96 96 97 97 94 87 83 77 72 68 64 61 63 65 61 57 55 53 54 56 58 57 57 59 61 64 67 68 74 79 84 88 90 95 99 103 110 109 107 111 114 109 104 95 82 73 67 63 59 55 53 52
92 96 95 97 93 93 89 83 77 73 68 66 65 65 69 63 58 56 56 59 60 62 63 61 61 63 65 67 70 73 78 83 89 93 95 99 102 108 111 111 106 112 109 107 103 86 74 68 64 61 56 53 51 48
87 88 94 101 98 91 85 79 74 71 70 69 70 68 65 63 60 58 61 62 64 66 65 65 66 67 70 71 73 77 82 87 92 94 96 101 106 109 111 105 108 113 108 103 90 78 70 65 62 58 53 50 49 46
87 86 86 94 95 91 83 77 74 73 73 71 68 66 64 63 61 64 64 66 65 65 65 66 67 70 72 74 77 82 86 91 95 97 100 104 107 104 106 100 108 106 102 92 79 72 67 63 60 55 52 50 47 44
81 84 88 89 91 86 82 76 72 73 73 71 67 63 61 63 64 63 66 65 66 66 67 67 71 73 75 77 82 87 91 94 96 99 102 104 103 101 98 102 104 100 94 82 73 67 63 59 56 53 50 46 43 40
86 88 90 88 85 81 79 77 78 77 73 69 66 64 64 63 63 64 64 64 66 67 68 69 71 74 78 82 88 92 94 97 99 104 106 107 100 99 96 102 99 94 85 73 67 63 59 56 54 51 48 44 39 36
90 89 86 82 80 77 79 82 81 77 72 68 66 64 64 64 64 64 63 64 66 69 71 72 73 78 84 88 92 94 97 99 100 102 105 104 94 95 102 102 94 89 77 69 64 62 58 53 51 49 46 42 38 35
89 87 84 80 79 83 86 82 76 72 69 66 66 67 66 65 65 64 65 68 70 72 72 74 79 85 88 93 94 97 98 100 102 100 97 93 96 95 103 95 91 79 71 65 61 58 54 50 48 47 43 39 35 32
88 85 84 86 87 84 78 74 72 69 67 67 67 65 66 67 67 69 70 72 74 75 77 81 85 88 92 96 98 98 103 103 96 99 90 95 92 98 94 90 78 70 65 61 58 55 52 48 46 43 40 36 33 32
86 90 91 87 82 78 76 74 71 69 69 68 67 68 71 72 71 72 74 76 78 82 85 87 90 93 97 97 99 102 99 94 96 93 92 94 95 93 90 81 71 66 62 58 54 52 50 47 44 42 38 34 31 28

GFSWCAN_250_spd_075.txt.gz
Wind_Speed
41 26 6 3 28 36 47 48 46 46 51 56 58 58 49 47 46 43 44 38 31 23 19 16 13 10 8 5 6 10 15 19 24 27 31 37 41 43 47 49 51 51 52 54 55 56 61 58 60 59 54 54 57 51
39 23 4 11 23 29 39 40 48 51 53 57 55 51 47 45 42 42 41 39 32 22 19 16 13 9 6 4 4 8 13 18 23 27 29 32 35 38 41 44 48 50 52 54 56 61 62 63 65 61 66 68 70 66
39 24 12 18 28 34 38 44 48 44 58 59 57 51 46 42 39 39 38 38 33 21 19 18 13 9 5 2 2 7 11 15 20 24 27 31 33 36 38 42 46 50 53 56 59 63 64 67 70 71 72 70 74 72
35 26 18 25 35 44 44 41 55 56 59 56 53 49 46 42 40 41 39 37 33 23 22 21 15 11 7 4 3 7 11 15 19 23 26 30 33 36 39 42 44 47 52 57 60 62 66 69 72 76 80 79 80 83
31 24 25 28 43 48 49 53 57 61 60 58 56 51 47 45 42 41 39 37 32 29 27 22 17 13 10 8 6 8 12 15 18 22 25 29 33 37 41 43 46 50 53 57 60 64 69 73 76 81 82 87 87 91
32 24 31 32 45 51 57 58 55 61 58 54 52 51 49 47 42 38 35 36 34 32 30 24 19 16 12 11 8 10 14 16 18 23 26 29 34 38 42 46 49 52 56 59 63 68 71 75 79 84 84 89 91 95
34 27 30 37 43 55 58 60 58 62 57 54 53 51 48 46 42 42 41 37 35 31 27 24 22 19 15 12 12 14 17 19 21 23 27 31 37 40 44 48 52 55 58 61 66 71 75 79 81 87 88 94 98 100
36 27 30 40 47 55 60 61 61 63 59 55 54 52 47 46 43 42 40 39 37 33 31 28 25 21 18 13 14 18 20 22 22 26 30 35 39 42 45 49 52 57 62 67 71 75 79 81 86 91 95 100 102 101
39 30 31 43 48 54 63 58 67 65 62 57 56 52 49 49 45 41 39 38 37 37 35 29 24 22 19 15 16 20 22 23 25 29 33 36 41 45 47 51 55 60 65 69 74 79 83 86 91 95 100 108 101 104
43 33 35 42 51 53 65 65 69 69 64 61 57 55 51 50 47 41 38 40 34 34 36 29 26 22 22 18 19 23 26 27 28 31 36 39 43 47 50 54 58 64 69 74 78 84 87 91 96 101 104 112 107 107
46 36 38 45 56 56 65 69 71 69 65 61 61 58 53 51 49 44 42 41 38 35 34 30 25 24 23 22 24 25 28 31 32 33 39 43 47 50 53 56 60 66 72 77 82 87 89 97 100 103 114 116 114 108
47 38 40 49 57 61 66 73 74 73 70 67 65 61 57 55 52 48 46 45 44 41 35 32 30 26 25 26 26 27 29 33 38 37 40 45 49 53 55 60 65 70 75 80 85 90 94 99 103 107 116 115 111 111
48 41 40 48 61 64 68 77 76 74 71 70 67 62 58 56 54 49 48 49 49 45 41 36 30 29 28 28 29 29 31 36 40 39 43 48 52 55 58 63 68 73 79 83 87 93 98 104 106 114 116 113 111 104
48 42 43 48 63 65 73 77 79 76 73 70 66 63 59 53 50 50 50 48 45 38 33 33 30 29 30 30 31 30 35 38 40 43 45 50 53 57 61 65 71 76 81 86 90 96 101 105 109 118 115 114 109 94
48 43 46 50 65 72 78 77 80 78 76 73 66 62 61 57 54 54 50 44 41 37 38 34 30 29 29 29 32 37 40 41 43 45 49 52 56 60 65 69 76 80 84 90 94 98 105 106 113 118 116 114 103 87
46 44 49 54 68 75 80 78 79 79 82 75 66 61 61 59 57 51 44 46 44 41 36 31 29 28 29 35 39 41 45 45 46 49 53 55 59 63 68 73 78 84 88 93 98 102 110 111 117 118 115 112 97 82
47 46 51 58 69 82 84 84 78 83 82 72 68 66 62 58 55 50 44 39 36 34 33 32 32 32 36 40 42 45 48 48 49 53 55 59 62 67 72 76 82 87 91 96 100 106 113 117 118 117 115 107 92 79
48 45 53 60 72 80 84 85 77 79 77 75 70 69 66 62 56 51 47 43 38 35 37 35 35 37 40 42 45 47 50 52 53 55 58 62 66 71 75 81 86 90 95 100 103 111 115 116 116 115 112 101 88 77
45 47 55 60 68 80 82 81 79 77 81 80 74 73 69 64 58 55 51 45 41 38 33 33 36 40 44 46 48 50 53 55 55 58 62 65 69 73 78 84 89 94 99 103 106 114 113 116 113 113 107 94 84 74
46 50 56 62 68 83 86 86 82 83 83 82 76 74 71 65 61 56 53 52 48 37 34 36 40 45 48 50 52 54 57 58 59 62 64 66 71 77 82 87 92 96 102 107 113 113 112 113 114 114 99 86 77 68
48 53 59 64 69 84 86 87 86 86 84 81 77 75 71 67 62 60 60 55 48 42 42 44 48 48 48 50 56 60 62 61 62 64 67 72 75 81 86 90 96 100 104 108 114 108 110 112 113 107 94 84 75 64
51 52 58 64 68 82 86 88 86 90 88 82 79 77 74 68 64 63 58 53 47 47 46 51 51 49 52 54 56 61 62 62 62 66 71 76 80 85 89 94 98 103 108 114 105 104 110 111 112 98 88 79 70 61
53 58 61 65 69 80 87 89 89 91 89 85 82 79 73 69 64 62 59 55 50 47 51 51 50 50 52 55 58 60 61 63 66 72 75 78 81 86 90 95 100 105 110 112 104 107 107 112 104 93 82 73 65 59
56 59 58 66 72 81 86 86 88 86 88 85 80 76 73 69 66 64 62 56 51 52 54 51 53 55 56 58 59 60 62 65 70 73 77 81 85 90 96 99 104 108 111 106 103 107 109 108 98 86 76 68 61 58
57 58 64 69 70 81 85 87 92 89 85 82 78 75 73 72 70 67 60 54 54 55 56 56 56 57 59 60 61 63 65 69 73 76 79 83 89 96 100 103 105 109 109 105 104 107 107 103 92 80 69 63 58 54
54 54 61 63 73 78 85 93 96 90 84 81 77 75 75 74 73 67 58 56 57 57 56 57 58 61 62 64 66 67 68 72 75 79 83 87 94 98 101 107 112 112 102 105 105 107 105 97 85 74 65 60 56 52
49 56 64 61 73 80 86 93 95 90 85 80 76 74 73 71 67 64 62 63 61 58 59 60 61 64 67 68 68 67 70 72 79 83 86 92 96 99 104 106 111 105 100 108 105 104 100 88 78 68 61 58 55 51
53 63 66 72 82 86 90 93 92 88 84 79 75 72 68 64 65 63 63 59 57 57 58 60 62 64 65 65 67 70 75 79 82 86 90 95 99 102 104 106 102 98 102 102 105 100 91 81 72 63 59 57 54 49
65 66 73 82 86 88 90 92 90 85 80 78 75 70 68 66 63 61 58 56 56 56 58 60 60 62 66 69 72 75 78 82 87 91 96 98 100 102 107 94 93 97 99 101 96 93 82 73 65 59 56 55 52 49
68 72 77 82 85 87 89 89 89 86 82 78 75 71 67 64 60 57 58 56 57 57 58 59 62 67 70 72 76 79 83 88 91 96 98 102 106 105 91 92 94 101 100 98 93 84 75 66 60 56 53 52 50 49
74 77 79 80 82 85 86 86 85 84 83 79 75 71 68 63 60 58 57 58 59 59 61 63 67 68 72 76 79 83 88 91 95 97 101 106 100 95 91 96 97 100 98 92 85 75 67 61 56 54 51 50 49 47
76 77 77 78 80 83 85 87 89 84 77 72 69 67 65 63 61 60 61 63 63 64 65 67 68 70 75 80 83 87 90 95 98 102 103 103 96 95 93 97 98 96 90 85 76 69 62 57 54 52 50 48 47 45
78 79 81 82 84 89 89 84 81 79 75 69 68 68 66 65 66 67 66 66 66 67 69 70 73 77 80 84 88 91 94 99 102 101 99 95 91 94 93 96 93 89 84 75 69 63 57 53 51 49 48 47 45 42

GFSWCAN_250_spd_078.txt.gz
Wind_Speed
88 61 46 21 8 20 15 23 22 17 23 38 47 48 45 44 41 40 30 26 23 23 19 17 15 14 12 11 12 14 16 21 24 26 30 33 35 38 40 41 43 45 47 48 50 52 55 54 56 57 61 60 64 65
97 64 53 27 11 21 22 23 23 25 27 33 50 46 45 44 41 39 31 25 21 18 16 14 11 10 8 7 9 9 13 16 20 22 25 29 32 35 37 39 42 44 44 47 50 52 54 57 58 60 63 63 68 69
93 91 61 39 23 20 27 27 29 35 34 39 46 44 43 40 40 38 29 25 22 16 13 11 9 8 6 4 4 6 10 14 17 20 24 27 29 32 35 37 39 41 45 48 51 54 56 60 63 65 67 70 71 75
86 100 75 51 31 21 16 35 38 42 39 43 42 43 42 41 38 38 31 25 21 17 15 12 9 7 6 3 1 5 8 11 14 17 22 24 27 30 33 35 39 42 45 48 51 54 57 62 66 68 70 72 77 79
86 86 74 46 42 25 18 33 45 43 43 45 41 42 42 41 40 36 36 31 23 18 16 15 14 12 8 6 4 7 9 11 13 16 18 22 26 30 34 37 39 42 46 49 53 57 60 64 69 73 75 80 81 84
85 80 66 48 36 29 21 33 53 47 50 48 45 42 40 43 41 39 38 35 28 21 16 17 17 15 14 12 9 9 11 13 15 17 19 23 27 31 35 39 41 43 47 50 54 59 62 66 71 75 78 82 86 88
106 81 63 49 34 27 26 34 50 54 55 51 48 43 41 44 43 40 38 35 34 29 17 21 19 19 20 18 14 11 14 16 18 20 21 24 29 33 37 40 44 47 49 52 57 61 66 69 73 78 81 84 90 92
106 81 67 46 36 27 28 39 49 58 54 55 53 50 45 44 44 43 39 38 36 34 23 23 23 22 22 22 19 16 16 20 22 22 23 26 31 35 39 43 46 51 51 56 60 64 69 72 77 82 85 90 94 102
105 94 82 49 33 30 29 44 51 48 58 60 57 53 48 45 45 42 42 40 36 36 30 29 26 26 26 23 22 21 19 23 28 28 26 29 34 38 41 45 49 52 55 58 63 68 73 77 81 87 90 94 99 107
101 108 81 54 35 30 30 47 51 55 61 63 58 54 52 48 46 43 44 41 37 37 34 33 32 30 28 26 24 24 24 27 31 32 32 31 36 41 44 47 52 55 58 61 66 71 76 81 87 93 96 99 107 111
102 100 84 56 35 30 31 43 53 61 64 66 62 59 57 52 50 47 42 41 40 40 40 39 35 34 32 28 26 26 28 32 35 36 37 37 39 43 46 49 53 57 61 65 70 75 80 84 90 96 100 107 111 115
116 103 92 56 37 32 30 40 57 61 66 71 69 63 59 55 53 50 46 42 41 40 38 37 35 32 30 29 29 29 32 34 38 41 39 40 42 45 48 52 55 60 64 68 73 78 84 88 93 98 102 110 112 117
124 119 81 54 40 36 31 41 61 62 67 71 74 70 63 58 54 50 48 47 46 46 43 39 36 34 34 33 33 34 35 38 42 43 43 43 44 46 49 54 58 63 68 71 76 81 86 91 97 101 108 112 115 118
130 112 72 50 41 39 34 41 59 66 67 71 74 71 68 61 55 54 53 53 51 48 42 39 39 40 38 35 37 39 39 43 44 44 44 43 45 47 51 56 62 65 70 73 78 84 89 94 100 108 111 116 116 120
126 93 67 50 42 41 36 43 55 68 69 69 75 75 68 63 62 62 59 56 53 51 47 44 42 42 38 36 38 42 47 45 42 41 42 44 46 50 54 59 64 67 72 76 80 86 92 97 103 110 116 119 120 119
112 85 62 48 47 44 37 44 54 66 73 70 72 76 71 68 66 65 64 60 56 54 51 47 43 40 37 40 44 47 49 48 43 43 44 46 48 53 59 63 68 70 74 79 84 89 95 101 105 111 121 121 119 118
116 74 55 50 50 47 40 45 54 64 77 68 69 78 77 73 69 67 68 65 60 57 53 48 43 43 40 40 44 44 44 41 42 46 49 51 55 61 66 69 71 73 78 81 87 93 98 104 107 117 117 119 120 118
97 61 54 52 51 45 42 46 53 59 72 69 74 81 83 78 72 70 69 66 63 59 52 43 45 41 41 41 43 40 39 40 44 48 52 54 58 64 68 71 74 78 80 83 91 95 101 105 112 120 117 119 117 112
78 54 56 54 50 45 41 47 51 53 71 78 79 82 83 76 74 73 69 64 63 60 56 50 50 47 38 40 41 39 40 44 48 51 54 58 61 65 68 71 74 79 82 87 93 99 104 109 116 114 116 117 115 107
67 55 52 56 50 45 41 45 48 60 78 82 83 82 83 78 74 72 68 65 61 56 53 49 44 38 41 45 42 40 46 48 51 53 56 59 62 65 69 71 76 81 85 91 98 103 106 112 118 113 119 114 111 99
63 57 52 55 48 42 41 43 49 59 79 85 82 81 83 81 76 73 70 65 59 55 54 51 46 47 47 51 43 46 50 52 56 56 56 59 61 63 68 73 79 83 88 95 101 106 113 110 112 114 115 115 106 92
63 56 55 53 44 40 40 45 51 62 82 86 84 81 84 81 77 76 74 66 62 59 56 50 52 54 55 55 47 51 54 58 58 57 60 60 61 69 73 78 84 88 93 98 104 107 109 108 109 116 114 112 97 84
63 56 55 50 40 39 43 48 56 64 83 87 87 84 84 83 78 76 73 67 64 60 59 57 58 58 63 58 54 54 57 59 59 59 63 63 69 73 76 81 86 91 96 101 107 105 106 107 111 111 113 104 90 78
64 57 50 43 37 38 45 51 59 66 82 88 86 83 83 82 81 75 71 68 63 62 60 59 57 60 62 60 57 56 58 58 60 63 65 69 72 74 79 84 89 94 98 102 107 109 103 106 111 111 110 97 82 72
61 50 44 37 36 41 48 55 59 66 77 86 86 84 84 82 80 76 72 71 69 63 61 58 59 62 60 58 57 56 55 57 62 65 67 70 73 78 83 88 93 99 103 108 104 115 100 111 109 109 104 90 77 68
51 42 37 34 40 45 52 56 60 67 83 90 88 86 83 81 81 79 74 73 71 66 62 60 63 62 59 57 54 53 58 62 64 65 66 70 76 83 89 93 98 101 105 106 111 100 105 106 108 106 94 83 72 65
40 33 36 40 45 49 54 59 66 77 91 93 89 88 86 82 78 76 77 75 69 67 65 65 63 60 57 56 57 60 62 62 63 65 67 74 80 87 92 97 102 103 109 104 101 100 105 105 105 100 87 77 68 63
33 36 41 48 53 56 60 63 70 80 91 93 92 87 82 80 79 79 79 74 71 69 67 64 59 57 58 59 60 61 60 61 64 67 72 79 85 89 94 99 101 108 100 102 96 102 101 104 103 91 80 71 65 60
36 44 49 54 58 60 62 64 67 81 91 94 91 85 80 76 77 78 76 72 70 67 64 61 59 59 59 58 60 60 62 64 66 71 78 84 88 93 97 101 105 101 97 96 97 97 102 100 92 80 73 66 60 57
44 50 52 53 53 56 60 67 77 88 93 95 91 84 85 81 76 76 73 69 68 66 64 60 59 59 58 60 61 62 65 69 73 77 83 88 92 96 100 103 102 93 98 92 95 97 100 92 81 74 67 61 57 53
49 52 52 51 54 61 66 73 83 89 95 95 88 85 84 83 79 75 71 67 65 64 61 58 58 59 59 62 63 66 69 73 77 82 87 92 95 99 100 99 92 92 92 92 92 98 92 82 73 68 62 57 53 50
50 51 51 54 59 64 69 74 81 87 90 90 88 86 84 80 75 70 68 65 64 61 59 58 60 61 63 65 67 70 72 76 81 87 92 94 96 98 95 91 88 92 92 91 94 90 83 73 68 62 58 54 50 46
51 52 54 58 63 66 69 73 77 80 82 84 85 82 79 76 71 68 66 65 64 62 60 60 62 64 65 67 70 73 78 83 88 91 92 93 95 94 93 84 89 88 90 90 89 81 73 67 62 57 54 51 47 43

GFSWCAN_250_spd_081.txt.gz
Wind_Speed
95 103 109 66 55 41 33 33 30 7 9 15 25 30 28 26 25 25 24 24 20 19 18 19 19 18 15 15 19 21 23 24 25 27 28 31 33 34 34 36 37 38 39 40 42 42 44 46 48 49 49 52 53 58
93 96 100 95 77 48 35 30 26 18 14 17 26 28 28 25 24 22 20 21 17 13 14 12 11 11 11 12 14 16 19 20 22 22 23 25 27 29 31 33 34 37 37 38 41 42 44 46 48 51 54 56 57 60
92 91 92 96 94 65 50 33 33 25 22 21 32 29 30 29 23 21 20 18 14 9 10 10 9 10 9 9 10 12 13 15 17 18 19 21 23 26 29 31 33 36 38 39 40 43 45 48 50 52 56 59 61 63
89 88 92 94 96 91 62 34 27 32 28 33 32 33 34 33 29 23 19 17 16 8 5 5 4 4 2 4 5 7 8 11 13 15 18 19 22 26 29 31 33 35 38 40 42 44 46 48 53 56 58 62 65 67
89 92 95 92 101 102 89 33 25 29 33 32 37 37 38 34 32 27 19 20 16 12 9 7 6 4 4 5 6 8 9 10 12 14 16 19 21 24 28 31 35 38 39 41 43 45 48 51 54 58 61 65 70 73
87 92 94 98 99 101 99 44 26 29 36 39 46 45 41 38 36 32 30 22 19 16 11 12 11 11 9 9 10 11 11 13 15 16 19 21 23 24 28 31 35 39 40 43 45 47 50 53 57 61 65 70 76 78
92 93 94 96 101 103 99 61 30 31 35 42 43 47 43 44 41 40 37 31 27 22 20 16 15 15 17 15 16 17 16 18 19 20 20 22 25 27 30 33 36 40 42 44 47 50 54 57 60 64 69 74 79 84
93 96 94 94 94 100 107 83 35 33 38 43 51 52 50 46 45 43 40 36 34 28 24 23 19 17 19 21 20 19 21 24 24 26 26 26 28 30 33 36 38 42 44 46 49 53 56 60 64 68 74 79 83 89
91 97 94 93 99 101 103 101 44 32 39 44 51 58 54 52 46 46 44 39 37 36 33 30 26 23 25 25 24 22 21 24 27 29 32 31 32 35 36 39 41 43 44 48 51 55 59 63 67 72 77 82 87 89
95 94 92 96 100 102 108 95 57 32 36 44 54 59 56 59 52 49 48 44 40 38 38 36 36 34 31 30 28 26 25 27 30 32 35 35 35 39 40 42 45 44 46 50 55 58 63 67 73 77 83 85 93 94
97 96 96 97 98 103 106 105 65 35 34 41 50 56 58 61 57 53 47 45 43 43 42 39 39 36 35 31 32 31 31 35 34 36 39 41 42 42 44 46 45 45 48 53 57 60 65 71 76 80 85 90 99 101
97 96 96 96 99 101 104 106 77 39 37 39 49 54 58 63 59 59 50 45 47 47 49 45 42 40 38 36 33 32 32 33 36 39 42 47 47 47 48 45 44 46 50 55 59 65 69 73 77 83 87 93 99 106
97 100 98 99 102 106 104 108 94 47 40 39 45 56 59 59 58 59 56 56 51 50 50 47 46 43 40 36 35 36 34 35 39 43 45 47 47 49 49 45 45 50 55 58 63 67 70 75 80 86 92 99 102 108
98 97 98 100 99 104 104 105 102 66 42 41 43 51 61 56 56 64 63 59 55 50 48 47 46 44 39 37 37 37 36 39 43 43 45 48 51 47 45 47 49 54 60 63 65 71 73 77 83 91 95 99 104 111
97 100 104 103 99 106 104 111 109 67 41 40 40 48 56 65 67 68 68 64 60 54 52 50 48 46 43 41 41 38 37 43 46 45 46 47 43 44 47 49 52 58 64 67 68 73 75 81 87 93 98 106 109 115
101 103 105 101 103 101 105 110 101 57 41 38 37 43 61 73 75 74 72 69 65 59 55 52 50 47 46 42 41 41 45 50 50 47 51 45 41 46 49 53 57 61 65 69 70 74 79 85 89 99 102 112 110 114
104 106 106 114 107 104 105 106 81 53 42 39 39 44 61 75 79 79 76 72 70 67 62 56 53 50 47 45 47 48 51 53 48 50 47 41 42 46 49 55 59 64 69 69 73 79 83 89 94 99 104 114 113 119
107 112 106 107 110 107 117 107 73 50 46 43 43 47 62 77 82 80 80 75 72 71 66 60 57 53 51 51 53 53 56 56 48 51 51 45 44 49 53 58 65 68 71 73 77 80 85 92 97 102 107 116 113 117
112 127 114 115 111 107 114 109 65 49 46 47 46 51 63 76 82 82 83 81 75 73 70 65 61 58 56 56 55 55 54 54 54 55 54 46 48 54 56 62 68 71 72 77 81 84 90 95 99 104 109 113 115 116
120 112 123 106 114 121 111 96 57 48 49 49 48 51 61 72 80 84 85 84 79 73 70 66 64 63 62 61 61 60 60 59 55 51 48 50 55 57 60 66 71 74 77 80 83 87 93 98 104 107 116 115 114 114
128 128 118 112 111 112 104 69 51 49 49 47 49 52 58 69 79 82 84 87 80 71 71 70 69 67 66 65 65 64 61 60 58 51 53 58 59 61 64 69 72 75 78 82 85 91 96 102 106 109 117 115 114 113
130 128 117 107 106 89 80 58 48 51 49 47 48 52 58 66 76 83 85 82 79 77 73 71 69 65 63 62 61 58 56 57 55 56 58 60 62 65 68 70 74 76 79 82 88 94 100 103 106 110 113 113 110 110
125 131 131 110 87 77 68 55 48 52 49 46 49 53 60 65 74 84 82 78 80 81 77 73 67 64 64 62 59 54 56 58 59 60 61 60 62 67 69 72 75 77 80 85 91 97 103 106 109 109 108 105 110 106
144 119 107 89 73 63 58 54 50 53 48 46 49 53 61 65 73 76 77 78 80 80 78 74 68 65 61 58 58 58 59 59 61 63 61 61 66 68 71 73 76 79 83 89 95 100 103 108 106 106 105 104 108 98
114 100 79 65 67 61 59 56 52 52 48 48 51 56 61 66 71 73 80 80 78 77 75 71 68 65 64 64 64 62 62 63 63 62 62 65 68 71 72 74 77 81 87 92 97 101 105 100 104 105 103 106 103 92
87 65 58 62 61 61 63 57 54 53 49 49 53 58 62 65 67 75 82 81 77 75 75 71 67 65 65 66 64 64 65 64 62 61 64 68 70 71 72 75 80 84 89 96 100 102 104 102 103 101 102 105 96 86
63 52 55 59 63 65 62 57 54 53 49 51 55 60 61 61 64 79 83 80 78 77 75 71 66 65 65 63 62 65 66 63 62 63 66 69 71 71 73 78 82 87 92 96 99 102 108 97 98 98 103 101 90 81
58 56 60 65 64 59 52 50 50 48 48 52 56 56 55 56 71 82 85 83 80 77 73 69 67 66 65 64 65 66 63 62 62 65 68 70 70 72 76 80 85 89 94 97 103 101 101 96 95 99 101 94 83 74
65 69 67 64 60 51 49 46 48 51 53 54 56 58 60 67 79 85 87 84 80 75 72 70 68 68 67 68 68 65 63 63 65 67 67 67 70 74 78 83 86 92 95 101 98 104 97 93 96 98 95 85 76 68
67 63 59 57 54 48 45 46 51 53 52 56 59 62 65 72 81 84 84 82 78 76 74 70 69 70 71 69 65 63 63 65 66 65 66 68 72 76 81 85 90 92 96 97 102 100 93 91 95 95 87 78 70 63
57 53 50 51 50 45 46 47 50 52 54 56 58 61 66 73 81 84 85 82 80 74 70 70 69 68 66 63 61 63 64 63 63 63 65 70 75 79 82 87 91 95 96 99 99 92 88 90 91 87 78 71 63 56
48 48 50 50 50 47 45 46 49 51 54 57 60 62 67 75 81 84 84 82 78 74 70 67 68 66 62 61 60 59 61 62 62 64 67 74 77 80 85 90 94 95 96 99 87 86 88 89 88 79 72 64 57 53
47 46 48 49 47 43 43 45 48 52 55 57 59 63 70 75 80 82 81 76 71 69 72 70 65 62 61 58 59 61 62 63 65 68 73 75 78 84 88 92 94 92 93 83 81 85 87 87 79 71 64 58 52 49

GFSWCAN_250_spd_084.txt.gz
Wind_Speed
71 72 76 78 79 83 80 69 27 24 15 7 4 3 3 2 3 6 9 14 15 14 15 17 17 18 19 20 21 21 22 23 25 26 28 30 30 31 31 32 32 32 32 33 32 31 32 32 32 34 35 37 40 44
66 73 72 71 73 75 90 71 37 11 20 20 14 12 11 8 5 1 2 3 7 9 7 7 11 12 13 14 15 17 16 18 18 20 22 24 26 25 26 28 29 30 29 29 29 29 31 33 34 34 37 41 44 47
70 71 76 70 78 75 76 87 68 17 13 22 24 22 19 17 13 8 5 3 2 4 4 4 4 7 7 8 9 10 11 12 14 16 18 20 20 20 21 23 24 25 25 27 27 29 31 33 35 38 41 43 47 51
73 71 76 77 72 74 79 73 86 58 20 18 31 26 28 26 23 18 12 10 7 4 3 0 1 2 4 6 7 9 11 11 13 15 16 17 18 20 21 23 25 26 27 27 28 29 32 36 38 41 43 47 49 53
71 75 80 79 77 76 76 80 80 83 35 23 27 37 35 34 31 26 22 18 15 12 9 6 6 7 4 3 6 8 11 13 14 14 15 16 18 20 23 24 27 29 31 33 31 31 34 38 40 42 46 50 52 55
71 80 82 87 81 84 73 76 80 89 57 21 24 31 33 44 41 35 32 26 23 20 17 14 12 10 13 13 11 12 12 14 18 18 19 20 21 23 26 27 30 32 34 37 36 35 37 40 43 45 49 53 56 61
76 78 82 86 82 73 72 72 75 81 90 42 23 26 38 36 49 45 41 37 32 26 23 21 19 18 16 17 17 17 16 16 18 20 22 24 24 26 29 31 34 36 37 40 38 37 39 42 47 50 54 59 62 68
77 82 81 85 81 85 78 78 74 77 78 82 48 30 33 41 44 51 50 46 42 37 32 29 27 25 23 19 20 21 19 17 19 21 23 26 28 29 31 35 38 40 41 41 38 39 42 46 51 55 60 63 66 72
75 78 78 82 88 89 80 75 78 79 82 84 80 49 34 42 48 53 53 53 50 46 42 40 37 34 32 27 24 25 26 22 22 24 27 31 30 32 33 37 40 42 44 43 41 43 46 51 56 60 64 67 70 77
77 82 79 80 90 87 85 78 76 75 81 86 79 62 32 32 48 53 55 55 55 52 49 46 44 41 38 37 33 31 30 26 26 27 31 32 30 34 36 37 44 47 49 46 46 50 52 56 61 65 69 71 77 85
77 83 86 83 88 92 89 85 73 77 82 83 85 79 33 27 34 54 57 58 57 57 55 53 50 46 45 42 40 38 35 32 33 32 33 34 31 35 35 38 45 44 46 47 50 54 57 60 65 69 74 77 82 89
79 84 86 84 91 95 88 87 81 78 84 81 88 80 39 29 30 39 55 63 62 63 62 57 53 50 48 46 43 42 38 34 36 37 38 38 34 34 36 41 43 44 49 50 52 55 59 64 68 72 77 80 86 94
85 89 83 89 95 86 92 90 90 79 78 85 86 90 57 37 31 35 51 64 67 67 62 60 57 55 52 51 49 48 43 38 39 41 44 39 36 35 39 45 50 48 51 52 54 59 63 68 71 74 80 86 89 95
88 87 87 90 94 93 94 94 92 82 84 86 87 87 81 56 38 37 49 62 62 64 66 64 59 58 57 55 52 50 44 42 42 46 45 41 36 37 45 50 54 52 53 55 57 62 66 72 76 79 84 89 92 98
91 91 92 100 94 102 96 97 96 88 84 87 93 92 87 69 43 44 47 58 66 64 64 62 63 62 56 54 53 50 46 43 47 47 43 42 38 43 49 55 58 60 62 60 60 65 69 75 78 84 88 93 98 105
90 98 101 103 95 102 103 104 96 99 94 95 100 86 94 80 42 43 47 54 63 67 66 64 63 63 62 55 52 49 46 47 48 45 46 45 44 50 54 58 60 64 64 62 64 68 71 79 82 88 92 95 102 107
93 104 103 99 107 107 103 102 97 109 104 99 99 103 91 85 43 41 45 50 58 67 70 67 67 65 62 59 53 50 51 49 46 46 46 48 48 53 58 59 62 65 63 63 68 72 75 81 84 88 93 98 105 110
105 107 103 103 106 105 106 99 110 104 103 101 115 99 95 76 43 42 44 47 53 63 71 70 70 68 65 61 60 57 53 51 48 47 51 54 52 56 59 62 65 67 67 66 70 73 78 84 87 90 96 104 107 111
103 110 111 109 110 115 110 102 105 98 109 109 113 104 97 68 43 42 45 47 49 60 69 73 69 70 71 69 64 61 58 55 52 53 55 57 58 59 61 64 68 70 70 69 73 74 79 85 89 93 99 103 109 112
117 115 110 118 116 113 100 112 116 114 115 115 113 103 82 58 46 44 45 48 51 53 61 72 74 75 75 74 72 67 64 60 57 58 61 62 61 62 64 68 72 69 70 72 76 79 82 87 91 96 101 106 108 111
116 122 124 118 123 101 116 116 117 120 121 119 120 86 71 54 48 47 47 47 49 49 60 75 82 80 77 74 73 72 69 66 64 63 62 62 63 66 68 70 69 69 69 73 77 79 85 89 94 99 103 108 105 111
125 127 122 122 119 114 115 122 120 118 117 118 114 76 63 52 49 49 49 45 45 52 64 77 84 85 81 77 73 70 69 67 66 66 66 66 69 67 68 65 71 69 70 74 78 81 86 91 94 100 102 106 103 113
125 121 129 130 111 116 121 128 121 118 116 117 106 71 56 51 49 49 45 46 48 55 64 75 83 85 83 79 74 72 69 67 66 68 66 67 67 66 66 67 69 69 71 76 78 82 87 91 95 100 102 102 106 111
126 136 130 121 119 128 122 123 121 115 120 120 99 68 54 51 47 45 44 49 53 56 61 70 79 85 85 82 77 72 69 65 66 67 68 67 61 64 66 68 70 69 72 78 79 84 88 91 97 99 101 104 109 106
139 133 125 127 128 124 116 118 118 108 104 97 79 62 53 49 41 40 45 52 52 54 59 65 78 84 86 84 76 70 66 63 65 67 66 60 62 66 69 71 71 70 74 78 81 85 87 91 96 98 100 107 106 103
133 132 128 120 118 117 116 112 102 96 89 76 65 58 52 48 40 40 48 53 51 53 57 66 80 84 84 82 79 71 67 68 69 64 58 62 67 69 69 71 71 72 75 78 82 84 87 90 96 96 103 105 102 102
120 113 108 108 114 111 100 94 90 84 72 65 61 55 50 48 43 45 51 53 50 54 58 65 77 83 82 77 74 72 72 71 64 61 63 65 67 69 68 68 70 72 76 79 82 83 86 91 93 98 102 102 100 100
96 95 97 100 96 94 86 80 76 70 66 61 57 53 51 48 48 47 53 54 51 54 57 65 74 80 78 74 72 70 70 67 64 61 63 64 66 67 67 68 70 73 77 80 82 82 87 91 95 98 101 98 97 98
86 86 86 84 86 80 74 69 68 65 64 59 54 52 50 49 49 49 52 49 53 56 57 63 70 75 77 75 70 69 65 62 59 62 63 64 66 66 67 69 71 75 77 79 80 84 88 92 96 97 95 95 94 93
84 83 80 80 72 66 62 60 61 62 59 52 50 48 48 51 51 50 50 50 54 56 58 64 71 77 77 74 71 68 66 62 64 64 65 65 64 66 68 69 71 74 76 78 82 86 91 95 94 95 92 90 93 85
76 74 69 66 63 61 59 57 56 53 50 49 47 45 48 52 50 50 50 52 54 55 58 63 69 72 75 75 72 67 65 63 62 63 64 62 63 64 67 68 69 73 76 80 84 89 93 93 95 88 88 89 83 74
58 58 59 58 58 57 54 52 49 46 46 47 44 44 49 51 50 48 49 52 54 54 57 62 67 73 74 71 67 65 63 61 62 63 60 60 61 63 65 66 71 74 79 83 87 91 93 92 87 86 85 83 73 67
54 55 55 55 53 50 49 46 43 43 42 40 40 45 49 48 46 47 49 53 54 54 59 64 67 69 71 69 66 63 61 63 61 58 58 58 59 63 65 70 74 77 82 85 89 92 90 86 83 82 81 72 66 60

GFSWCAN_250_spd_087.txt.gz
Wind_Speed
67 64 69 71 65 69 76 72 70 73 56 21 9 10 15 15 17 13 10 11 12 12 10 11 13 13 13 15 16 16 17 19 20 22 22 22 23 24 24 24 24 23 22 22 21 21 20 22 23 23 25 26 28 28
63 65 64 72 68 68 70 66 71 65 76 51 23 15 18 18 17 17 11 8 9 9 9 7 6 6 7 9 10 11 13 14 16 17 17 17 18 19 20 21 23 23 24 22 20 20 21 22 24 25 27 30 33 33
63 63 64 66 68 66 71 67 66 68 68 71 47 25 19 23 23 21 19 13 9 9 8 7 5 5 5 5 7 9 11 12 14 15 16 16 17 19 20 22 23 24 25 26 24 22 21 23 25 27 30 34 37 39
62 64 67 65 62 65 66 66 73 60 65 69 71 42 29 28 28 26 27 23 18 13 11 10 9 8 7 6 6 7 8 9 11 13 14 16 17 18 19 21 23 25 25 27 29 27 26 27 30 32 35 38 41 45
58 61 61 65 64 60 66 68 69 58 65 67 67 71 35 30 34 33 30 32 28 23 19 16 15 14 13 11 10 11 12 13 12 12 12 14 17 20 21 21 23 25 26 30 34 31 30 32 34 36 39 42 46 49
54 58 66 64 63 59 64 68 66 68 67 60 63 64 73 29 28 38 40 37 35 34 29 25 22 20 21 19 17 16 15 14 13 15 15 15 16 18 20 21 24 26 29 31 34 37 36 34 37 40 43 46 50 54
58 60 58 62 59 61 63 63 71 67 71 68 70 63 67 59 25 26 41 44 43 39 37 35 31 27 25 24 25 25 22 19 17 17 18 20 21 22 23 22 24 24 34 35 37 39 39 40 43 46 47 50 54 59
60 62 58 62 65 67 65 61 71 67 70 75 64 62 66 70 43 25 29 45 50 50 46 45 41 36 32 31 31 32 27 25 22 20 20 22 22 26 25 24 25 25 30 35 39 43 44 48 49 50 52 57 60 63
60 57 61 66 68 63 69 64 67 68 71 74 75 63 64 71 58 43 32 34 49 54 55 53 52 48 41 40 39 38 36 33 27 23 23 25 25 28 30 28 27 26 28 36 44 49 50 54 55 57 60 65 68 70
65 61 63 70 68 71 68 69 67 72 70 74 70 65 54 68 64 53 51 37 39 55 64 64 61 57 56 51 49 46 44 40 38 35 31 32 31 31 35 35 32 26 30 38 46 51 53 55 60 62 66 70 73 77
68 66 67 65 66 69 74 73 66 68 73 75 74 67 52 66 63 65 55 48 36 46 60 67 65 65 61 59 58 52 48 45 43 40 39 40 38 35 39 39 37 32 31 39 47 54 57 63 66 67 70 73 76 80
70 67 66 65 70 70 72 73 77 70 76 77 74 62 64 62 69 70 71 68 43 40 51 58 64 66 68 64 61 60 55 49 48 45 43 47 43 42 44 44 42 41 35 38 48 56 61 65 70 69 69 77 79 83
68 68 69 74 74 74 75 77 80 77 76 79 84 62 64 67 65 73 73 81 50 31 40 50 59 65 67 69 66 61 58 55 54 50 50 54 50 49 48 45 44 44 42 43 50 58 65 66 71 72 74 80 83 87
79 77 73 73 77 77 76 80 77 79 80 83 83 83 78 74 65 77 81 82 72 39 36 38 50 63 69 66 68 66 58 57 57 56 59 57 56 55 52 49 47 47 47 48 52 60 66 70 74 76 79 82 86 89
83 84 83 79 80 88 85 84 80 84 85 87 85 92 89 83 71 70 78 85 81 47 43 40 40 52 66 70 68 67 65 60 59 64 65 63 61 59 56 53 50 50 50 52 56 61 68 73 77 80 82 85 89 92
86 84 86 87 87 89 89 86 83 87 86 86 93 93 93 71 81 87 94 78 86 63 43 42 42 42 55 66 70 70 68 68 69 67 64 62 62 62 59 53 52 52 50 53 58 63 71 76 78 83 84 86 90 95
86 90 94 90 87 92 92 90 87 83 85 89 92 102 96 96 91 87 78 88 78 76 51 43 42 43 44 59 70 73 75 74 72 68 64 61 61 62 61 54 55 53 54 57 61 67 72 76 81 85 86 88 92 97
92 94 97 97 93 93 92 89 83 85 90 92 92 96 98 106 90 83 86 103 92 68 47 45 43 41 41 49 66 72 74 73 72 70 67 63 62 61 59 58 57 56 58 59 66 69 72 78 84 86 87 88 93 99
99 100 100 99 98 96 98 89 86 89 91 92 90 94 110 104 99 101 86 100 95 76 45 42 42 42 45 49 57 69 75 74 73 69 66 65 63 61 60 59 60 62 61 65 69 68 74 80 85 86 88 90 95 102
104 102 98 101 101 100 97 90 94 95 92 89 90 98 105 105 102 108 97 96 83 69 51 42 45 50 52 48 53 63 72 76 76 73 68 65 65 63 62 64 63 64 66 69 71 71 76 83 86 87 90 92 96 101
106 102 109 104 100 101 98 94 97 101 98 90 94 95 108 101 101 101 95 93 82 66 55 45 48 52 50 51 53 58 67 75 77 77 74 69 67 67 68 69 69 70 71 71 74 75 80 83 86 88 89 93 96 101
106 105 105 100 96 97 97 98 101 103 99 92 96 103 104 113 114 108 99 96 74 59 56 51 50 51 50 52 56 57 63 73 78 77 77 75 74 72 71 69 68 68 71 73 75 75 79 83 86 88 90 92 95 99
101 100 101 103 103 101 102 101 105 105 100 101 102 109 113 113 121 107 88 92 72 49 48 51 55 53 55 55 54 57 61 69 77 80 75 74 73 73 72 68 67 69 72 73 72 72 79 83 86 88 88 92 95 98
99 102 107 108 107 103 102 105 108 108 102 103 111 116 118 121 114 92 82 86 74 45 44 50 55 56 56 55 53 57 60 64 74 82 80 73 69 72 68 67 69 69 71 71 71 73 80 83 85 87 89 92 95 98
116 113 112 112 106 104 108 109 104 102 107 116 124 123 121 117 98 90 86 86 66 42 41 47 56 59 57 56 54 54 57 62 71 78 81 75 73 70 68 68 67 69 70 70 72 76 80 81 84 87 89 91 95 97
117 114 111 109 108 110 111 111 112 114 118 121 121 120 116 102 95 82 81 84 66 47 46 48 53 56 58 56 53 54 57 60 66 73 77 78 76 71 68 69 67 70 71 70 73 76 77 80 83 86 89 91 94 95
114 112 112 113 113 116 117 115 118 122 124 118 112 105 103 92 77 77 77 74 69 60 51 50 54 53 55 55 53 52 54 58 65 71 75 77 75 71 69 68 69 71 71 71 73 73 77 79 83 85 89 90 93 93
113 116 118 121 124 121 121 122 118 111 107 102 101 97 88 78 75 74 72 71 67 59 55 53 55 50 51 53 50 48 53 58 62 70 73 72 73 70 69 69 70 71 70 72 75 77 77 79 82 84 88 89 90 91
116 120 115 116 122 119 111 106 102 101 99 93 88 84 80 76 75 73 70 68 64 57 56 56 57 49 49 49 47 48 52 57 64 69 72 71 68 66 66 66 70 71 71 72 73 73 75 77 81 84 86 87 87 90
98 102 106 106 102 96 92 89 89 89 83 81 82 80 76 73 69 66 65 64 62 59 58 58 55 47 47 48 48 48 51 56 61 65 67 64 65 66 65 67 67 66 67 68 68 70 71 77 80 84 84 85 87 91
92 90 88 84 82 84 87 87 83 81 79 79 78 73 70 67 61 60 62 63 62 62 59 55 52 46 47 48 47 48 51 54 59 63 64 64 66 64 64 64 64 65 67 68 68 67 72 76 81 83 82 85 88 90
78 79 82 81 79 79 79 77 77 78 77 73 69 65 61 58 57 61 65 63 62 61 53 50 47 46 47 46 45 45 48 52 56 57 60 62 62 63 65 63 63 67 68 65 66 68 73 77 81 80 82 84 87 83
75 75 73 72 72 74 75 74 74 73 70 65 62 61 59 57 58 61 61 60 56 51 46 45 43 45 44 42 44 46 48 49 51 52 54 56 59 63 62 61 64 66 64 65 67 71 75 78 80 80 81 84 82 77

GFSWCAN_250_spd_090.txt.gz
Wind_Speed
44 46 53 60 64 64 63 62 64 71 70 75 62 63 50 32 30 20 16 16 22 22 17 14 11 11 10 10 11 11 12 13 14 15 15 16 16 17 17 16 14 14 16 16 16 16 15 16 18 18 18 19 21 22
48 40 46 54 56 61 62 59 70 66 64 68 70 66 62 46 30 31 24 19 15 18 22 18 13 10 9 9 9 9 9 10 9 9 10 11 12 12 12 12 12 14 14 13 15 17 18 19 20 22 24 25 24 25
53 39 41 47 50 55 58 61 64 63 65 64 68 66 63 59 42 29 28 28 25 17 17 22 22 18 14 10 9 10 10 9 9 9 10 10 11 12 13 14 15 17 17 18 20 20 20 23 23 25 28 29 30 32
42 41 43 43 49 51 53 60 58 62 68 66 64 60 66 54 54 42 29 27 30 30 25 20 21 24 24 20 16 11 9 9 9 9 10 11 12 12 12 13 14 16 18 20 22 25 26 27 27 29 32 36 36 38
47 49 50 47 48 52 51 57 58 60 63 68 58 58 62 62 51 45 39 31 29 34 34 34 27 24 26 29 26 24 20 15 13 12 12 13 14 14 15 16 16 17 17 22 25 27 30 33 34 34 38 39 42 46
49 46 47 49 50 50 52 52 57 62 57 62 61 56 55 54 62 49 45 38 32 32 37 41 41 37 31 30 33 31 29 28 23 20 17 17 17 19 21 21 19 20 20 16 21 27 30 35 38 40 41 44 49 52
51 54 52 51 53 52 49 55 60 54 60 62 64 56 58 56 61 57 58 52 47 39 34 41 45 45 45 40 35 35 34 35 34 29 26 21 20 21 25 24 24 23 24 23 19 23 30 36 40 44 46 49 54 59
61 58 50 52 50 50 50 54 59 55 56 60 65 56 59 60 59 61 54 55 54 59 44 37 42 49 51 50 49 41 37 38 41 39 33 25 24 24 28 28 30 29 28 30 29 27 31 38 42 47 52 54 58 60
57 57 60 57 58 55 54 56 57 52 58 62 64 55 56 60 64 66 58 49 58 67 55 52 46 42 47 56 58 54 47 43 42 45 44 34 43 40 33 37 37 37 35 35 36 37 36 36 42 50 55 58 63 64
59 57 57 59 62 59 57 58 53 57 59 65 67 65 73 75 61 66 62 64 53 60 59 61 46 47 51 51 57 63 59 55 49 50 49 45 52 49 40 42 44 42 41 43 42 44 43 43 43 48 57 63 67 67
66 58 56 59 61 54 56 59 55 59 63 64 67 77 72 74 75 68 64 69 62 52 65 67 59 51 47 52 52 55 65 64 58 58 56 51 63 54 52 48 47 49 49 49 47 48 48 49 50 50 55 65 71 72
69 65 62 62 62 61 63 63 64 64 67 69 73 72 74 74 73 71 66 69 66 59 68 72 65 51 48 47 53 50 57 64 66 63 62 66 69 62 58 54 52 53 55 52 52 53 55 56 56 57 57 65 73 76
73 69 71 69 68 69 71 68 71 67 68 72 74 75 80 72 69 71 69 72 70 77 69 75 76 70 57 50 49 53 48 55 65 68 69 75 72 69 65 60 58 58 58 58 58 59 60 62 62 61 60 66 72 81
76 74 74 74 77 75 74 73 74 72 73 76 75 79 81 75 78 80 80 72 78 75 74 75 70 79 74 56 52 50 51 49 57 70 76 76 74 72 70 67 63 62 62 63 63 67 66 66 65 64 64 68 72 83
83 82 82 81 78 79 76 78 76 75 75 78 79 82 82 81 83 85 83 77 78 80 79 79 78 84 79 61 53 49 49 51 53 63 72 76 76 76 72 70 68 65 65 64 66 65 64 66 67 67 67 71 74 83
89 88 83 82 84 89 89 83 78 78 80 83 84 88 86 86 83 86 85 79 77 74 81 80 76 82 81 66 55 49 50 53 54 57 67 75 77 77 76 74 72 71 69 68 70 67 65 66 67 66 67 74 76 84
98 86 91 92 90 91 89 87 83 82 78 81 88 91 89 90 91 91 90 78 78 81 82 79 71 81 88 73 60 52 49 54 56 56 60 69 76 77 76 76 75 75 73 70 70 68 68 67 67 67 70 75 82 87
97 95 97 96 96 92 90 90 89 82 79 85 91 95 94 96 90 92 84 80 83 81 85 79 70 88 91 79 64 57 51 51 55 58 60 62 68 74 79 79 75 74 73 72 73 72 68 68 70 70 74 78 81 86
100 102 104 105 108 107 100 91 86 83 86 90 95 96 95 95 95 95 89 82 84 87 89 80 76 89 88 86 71 59 52 51 52 55 58 60 63 67 72 74 75 75 73 72 71 71 70 69 71 72 73 77 81 88
109 109 111 109 106 102 101 95 91 86 85 92 98 96 95 99 99 101 90 79 87 90 85 74 88 91 88 86 75 63 54 52 52 51 55 58 59 63 68 70 70 69 70 71 70 70 69 70 70 73 72 78 84 88
112 110 114 113 109 106 104 102 98 97 93 92 97 99 100 103 107 97 93 81 90 95 81 74 90 95 89 83 77 65 59 53 54 52 52 54 56 59 62 66 67 67 71 71 71 71 73 74 74 76 75 80 84 87
123 123 124 121 120 121 115 105 97 96 96 93 100 102 99 104 104 97 94 91 95 99 85 83 94 95 92 82 77 64 61 53 54 55 53 53 57 56 59 63 63 65 69 68 67 66 68 70 73 73 77 81 83 88
129 128 126 128 129 123 112 104 99 94 98 98 102 104 103 100 96 100 90 97 102 102 91 91 96 94 90 82 76 66 62 57 53 55 54 53 54 56 57 60 63 65 66 64 65 65 68 69 69 72 76 80 84 88
125 133 137 137 133 122 113 106 99 99 101 102 103 106 100 97 99 95 93 100 108 104 84 94 93 94 91 83 75 66 58 60 55 55 55 52 54 56 55 59 62 66 65 63 64 67 69 71 68 72 77 81 86 88
121 125 126 127 124 119 109 99 100 105 107 107 109 106 100 100 101 91 98 108 118 87 99 102 99 98 92 82 76 67 57 57 57 55 56 53 51 55 54 55 62 66 65 64 65 68 69 69 70 74 78 81 83 85
121 119 118 114 116 114 103 103 103 105 109 108 105 108 110 107 97 98 103 110 94 103 106 110 107 98 88 79 74 65 55 55 56 57 57 53 50 50 52 53 62 64 63 64 67 66 67 68 70 74 76 79 82 89
115 110 107 106 104 103 105 101 101 107 109 110 109 109 110 106 95 96 104 88 107 109 112 107 101 92 84 80 71 64 55 54 56 56 55 51 49 51 52 54 57 60 61 62 63 62 63 66 72 73 76 79 85 89
108 104 99 98 103 107 106 105 106 106 106 107 110 109 100 91 99 102 101 107 108 110 105 100 93 88 83 76 68 60 54 54 55 55 52 50 49 48 49 50 53 56 57 58 57 58 64 68 69 70 75 80 84 88
93 89 90 92 95 97 99 103 104 107 108 106 105 101 95 100 108 109 105 105 100 98 97 92 89 85 79 72 64 55 55 54 54 54 52 49 48 48 47 48 50 52 54 54 56 61 63 65 65 68 75 81 83 83
81 87 94 99 102 103 104 105 103 104 104 104 105 104 104 104 106 110 109 101 95 90 88 85 82 78 72 66 59 55 57 54 53 53 51 48 45 45 45 45 47 49 50 53 57 58 60 61 66 71 76 78 80 80
86 92 99 103 103 103 106 106 102 102 102 102 101 99 99 99 98 96 96 93 90 87 84 79 74 69 64 61 57 57 58 54 51 50 49 46 44 43 42 44 46 47 48 52 53 54 56 61 66 72 74 77 79 79
91 93 97 98 100 102 102 103 103 101 99 97 97 97 96 93 90 90 90 89 85 81 76 69 65 62 61 60 57 57 55 51 49 48 46 42 39 39 41 42 43 43 43 43 48 53 59 64 66 71 72 76 75 77
87 87 87 88 91 94 95 95 93 87 84 84 85 87 87 86 83 84 84 77 74 72 67 63 61 61 59 57 55 53 49 47 47 46 41 36 35 36 39 41 40 38 41 45 51 54 55 60 64 68 71 72 74 72

GFSWCAN_250_spd_093.txt.gz
Wind_Speed
32 37 41 41 48 50 49 51 53 62 63 65 66 67 66 68 71 65 60 44 27 18 20 17 19 21 15 14 15 15 15 15 14 12 11 10 10 11 11 12 12 12 12 12 12 12 11 11 13 13 14 14 15 15
42 36 39 44 41 46 45 48 50 53 58 61 61 59 61 66 65 70 63 62 48 33 21 21 20 18 18 20 17 15 14 14 13 12 12 12 9 9 8 9 10 11 10 10 11 11 12 13 14 14 15 18 18 19
50 43 40 41 44 46 45 45 48 46 51 56 57 57 48 55 68 67 63 66 58 54 42 30 26 25 24 22 18 18 18 16 15 15 14 14 13 14 14 14 14 15 15 16 16 15 14 15 16 18 19 20 24 29
41 45 42 47 49 47 44 48 48 46 46 53 51 55 53 53 57 68 59 65 62 58 52 49 38 30 32 31 30 28 23 22 22 22 21 20 18 17 16 17 18 18 18 18 18 18 19 21 23 23 24 25 28 32
51 46 47 47 45 46 45 46 44 47 44 49 51 52 56 54 55 65 57 62 60 58 58 53 48 44 37 33 37 38 36 35 32 28 25 24 24 24 23 21 21 20 20 21 22 22 21 24 26 29 32 34 34 35
53 50 46 47 50 49 50 50 47 49 48 48 52 50 51 55 59 64 64 62 55 57 64 57 60 46 41 39 37 36 41 43 41 41 39 33 26 28 30 26 23 27 24 25 25 26 26 28 30 33 36 39 41 44
57 55 54 50 59 55 48 47 45 49 48 49 48 50 49 52 58 61 64 62 53 59 52 52 52 57 51 41 38 40 40 43 46 44 43 44 43 35 38 32 21 29 26 29 30 32 34 33 33 37 40 43 44 47
61 61 55 56 55 53 55 52 46 44 45 45 43 48 50 53 59 56 61 65 61 58 64 59 50 52 53 56 46 43 45 46 47 50 51 48 45 48 49 40 34 39 36 35 35 35 37 39 40 43 44 45 48 52
64 66 64 56 56 57 52 53 47 45 48 51 44 49 52 54 54 59 58 62 61 62 68 68 61 62 56 53 46 43 46 50 49 51 55 55 54 55 57 55 52 49 42 39 40 41 43 45 47 47 49 52 56 59
69 68 66 68 57 61 58 56 51 53 50 49 52 53 53 52 54 59 60 63 63 68 72 71 67 67 66 62 52 49 52 56 57 51 51 57 63 64 61 59 59 59 55 51 47 44 46 50 52 52 54 56 59 64
76 77 74 69 71 65 63 64 60 58 53 52 56 56 58 59 58 57 59 63 66 72 73 74 72 63 64 68 66 58 50 57 54 56 50 53 64 66 65 65 67 64 63 63 61 60 56 54 56 56 58 60 62 67
85 83 81 76 74 74 72 70 64 64 59 60 59 58 61 61 59 60 62 65 67 72 75 77 76 66 67 74 68 69 63 63 61 57 52 48 51 61 67 67 69 70 68 67 67 66 65 64 62 62 63 65 67 70
92 87 85 84 80 76 73 69 66 63 65 65 62 61 60 61 65 69 65 66 67 70 73 75 82 73 80 81 72 68 64 63 65 60 56 52 50 54 62 69 71 72 72 72 72 70 69 68 68 64 66 68 70 74
97 92 90 89 87 84 76 72 72 69 68 68 68 68 65 67 66 65 68 69 70 69 75 80 81 74 79 78 75 72 67 65 64 67 59 54 50 51 54 61 68 71 75 77 77 75 73 71 69 69 69 69 72 75
107 103 99 94 90 91 83 77 74 76 75 75 72 70 71 72 74 71 70 72 74 72 75 75 77 73 77 79 83 82 74 68 64 67 65 58 54 52 55 56 57 65 72 75 77 76 75 74 72 71 72 73 75 77
113 109 103 95 95 93 90 88 85 81 76 78 76 71 73 78 74 68 72 74 75 74 78 78 83 80 82 87 80 86 83 70 69 66 69 62 57 55 54 55 57 56 59 71 76 76 76 76 74 74 74 75 77 76
125 121 114 107 106 105 98 94 91 91 83 76 77 80 79 82 79 79 83 80 79 83 80 78 81 80 80 86 85 86 84 74 73 70 69 69 63 58 56 55 54 57 56 56 65 77 78 78 77 78 78 76 74 74
127 118 115 112 109 111 108 102 96 93 85 80 84 85 85 84 81 82 86 85 86 85 86 87 87 82 83 86 83 86 88 76 81 75 78 73 69 63 58 56 55 55 55 56 56 61 71 76 79 79 77 73 72 74
125 121 121 120 117 119 117 109 101 96 92 86 87 88 85 84 85 87 86 82 82 84 91 91 86 84 88 80 79 90 93 79 82 86 76 74 69 68 63 58 56 55 55 55 54 56 64 73 75 76 75 73 72 73
118 116 122 121 125 121 121 115 106 99 96 88 89 91 89 88 87 89 88 83 83 87 94 93 91 81 84 85 96 98 89 79 84 90 83 74 69 69 67 61 57 55 55 56 54 53 60 66 66 68 67 67 68 68
116 113 117 123 122 125 123 120 113 105 99 89 90 94 92 92 92 92 90 92 93 95 101 99 96 89 93 93 98 91 85 82 93 93 92 80 71 67 68 61 58 57 55 55 56 55 58 60 63 66 63 64 64 65
113 108 111 120 124 124 120 115 113 106 100 96 101 100 98 99 98 93 95 97 95 103 107 102 97 93 95 96 96 92 91 89 93 91 92 81 77 73 73 64 58 55 55 56 56 58 57 56 60 63 61 61 62 61
110 108 112 116 119 119 123 119 113 108 105 106 105 103 101 103 104 104 102 100 102 109 110 104 96 92 97 98 101 99 93 91 92 94 91 80 78 74 72 69 59 55 55 57 59 57 56 53 57 60 58 57 59 59
106 110 112 113 117 116 114 115 113 112 108 107 108 108 106 106 108 108 105 100 111 119 120 105 99 94 98 103 105 102 94 96 99 98 93 85 79 73 69 66 62 57 57 58 59 56 54 52 54 57 58 58 59 59
110 115 118 113 107 107 111 113 113 114 112 107 112 115 113 111 109 108 105 103 112 116 106 101 99 101 101 102 102 100 92 95 99 94 92 86 82 74 68 63 61 58 58 58 58 56 52 50 51 55 58 59 60 60
114 114 111 106 103 103 103 104 105 107 107 106 107 107 105 107 108 105 105 109 109 102 99 99 100 99 101 103 101 97 93 97 93 91 86 82 80 73 65 58 58 57 57 55 54 51 51 49 49 51 55 57 58 61
112 106 101 96 94 94 95 97 99 101 102 102 99 102 104 103 101 93 97 99 95 93 93 95 97 103 104 100 94 91 95 94 89 89 82 81 78 72 65 58 58 56 54 53 49 48 48 48 46 47 50 56 57 57
101 94 91 90 92 94 97 99 99 97 94 95 96 98 101 97 92 94 94 92 88 90 92 97 98 98 96 94 91 95 95 92 91 84 79 77 75 69 62 58 58 55 52 49 46 45 45 45 43 45 50 51 51 53
93 90 92 94 95 96 98 99 100 94 87 86 86 88 88 89 93 94 91 87 86 87 90 91 91 91 89 86 89 92 93 92 88 78 77 74 70 65 62 58 56 53 50 46 43 43 42 42 43 42 43 45 49 52
92 93 93 93 97 101 101 99 95 89 85 84 84 82 83 85 87 86 85 85 88 89 88 89 85 83 82 88 93 93 90 86 79 76 75 70 66 63 61 57 55 50 47 43 40 39 39 40 39 39 40 42 46 50
92 94 96 98 99 99 98 96 90 84 81 81 80 80 81 81 79 81 85 86 85 85 84 80 77 83 88 89 88 87 84 76 73 72 68 64 63 61 59 56 53 46 43 40 37 36 36 35 37 36 39 43 45 49
89 91 94 95 93 91 88 83 80 78 79 79 79 77 77 77 79 82 86 83 80 77 77 80 83 86 86 84 82 77 75 70 70 66 63 62 62 59 56 52 47 42 40 36 35 33 33 35 35 38 38 38 45 50
85 87 84 78 75 76 78 80 80 80 79 78 79 80 81 82 83 85 83 79 79 79 80 81 84 84 81 79 75 73 69 66 64 61 60 59 56 53 49 45 41 38 36 34 33 33 33 35 35 34 37 42 46 47

GFSWCAN_250_spd_096.txt.gz
Wind_Speed
40 39 39 41 39 41 40 46 49 45 51 54 55 57 59 62 62 65 69 58 58 57 50 47 39 25 23 25 26 28 29 29 29 28 27 24 22 22 21 21 19 20 18 16 15 14 14 12 12 11 11 11 10 10
44 40 38 36 36 39 43 42 44 48 50 51 51 51 52 56 56 64 59 66 60 62 56 52 44 40 34 26 22 22 25 27 29 31 31 30 28 26 24 21 21 20 20 19 16 15 15 14 13 13 13 12 12 15
47 45 41 38 37 42 46 36 41 46 45 44 46 47 49 50 52 56 58 58 60 59 62 59 63 51 41 36 35 33 27 25 27 30 31 33 34 29 28 28 28 26 25 22 22 22 20 21 23 22 20 22 24 25
53 48 43 38 39 40 40 42 36 48 46 42 41 41 43 46 49 50 53 56 59 57 60 59 61 66 57 50 42 35 34 35 34 32 34 36 37 38 37 32 29 31 29 29 26 26 24 26 27 29 31 33 35 38
55 52 44 42 47 43 42 45 41 44 47 41 40 38 42 43 43 47 48 51 55 57 56 61 61 64 67 56 52 45 41 38 37 39 42 40 42 37 40 43 40 32 35 32 30 28 28 27 29 30 32 33 34 37
55 59 58 52 48 46 40 39 44 46 42 44 39 34 37 42 45 49 45 49 52 51 53 57 62 63 65 61 66 59 56 41 36 46 51 48 49 45 41 46 63 24 37 38 35 33 32 32 32 31 32 33 36 39
59 56 58 53 49 46 46 44 44 45 43 47 45 38 35 40 46 46 47 48 49 48 51 57 58 59 60 62 72 68 70 65 52 47 48 49 52 47 43 52 61 47 39 44 42 40 41 40 40 40 40 41 43 46
69 67 60 57 55 52 55 53 47 44 47 48 45 42 43 43 42 47 47 48 48 48 52 56 56 59 61 65 67 68 69 66 71 62 54 58 53 59 47 46 57 57 55 56 57 52 49 48 46 46 46 47 49 50
77 72 73 69 62 62 62 51 54 55 52 49 49 49 47 45 44 46 48 48 49 48 51 53 55 60 63 65 67 66 68 75 79 70 58 55 65 52 47 42 46 54 57 60 61 62 61 58 54 54 55 55 54 56
86 85 78 78 75 72 67 71 57 56 58 58 60 55 51 51 51 50 50 52 49 53 53 54 55 58 61 65 69 67 71 73 78 80 75 69 59 60 58 48 44 44 54 61 63 66 67 66 64 64 64 63 64 64
91 86 85 79 80 77 72 71 71 66 60 62 62 60 56 54 52 50 51 52 53 57 59 57 57 55 61 66 68 72 71 70 76 81 79 70 64 65 57 51 52 45 46 51 56 64 70 71 70 69 68 66 68 70
99 94 94 88 83 84 84 77 76 77 74 64 67 66 61 57 55 53 54 55 56 62 62 58 57 58 62 68 70 75 76 76 77 80 78 76 67 66 68 59 52 50 44 47 49 50 57 66 73 74 73 72 73 75
106 103 98 95 89 88 87 85 81 80 80 74 69 64 70 65 59 58 61 59 60 60 60 60 60 67 67 67 69 73 78 81 79 78 77 76 85 66 63 68 59 54 50 45 44 48 48 50 58 69 76 75 77 78
111 111 106 102 96 96 97 94 89 87 85 83 76 72 68 67 62 66 62 62 62 65 65 65 68 70 65 68 69 70 77 81 81 79 80 84 80 70 65 63 64 59 54 51 47 46 48 50 50 53 60 70 78 82
118 114 114 111 107 103 103 101 98 97 92 84 84 74 75 77 75 74 72 72 71 72 69 70 70 72 70 72 72 72 77 79 83 84 85 88 85 76 75 67 63 65 61 56 52 49 48 49 51 53 54 58 66 75
120 118 117 113 112 104 107 107 104 103 101 93 82 78 78 82 82 81 76 73 73 76 74 74 74 75 75 76 73 75 81 84 88 92 93 90 83 92 78 76 68 65 66 60 58 54 49 47 50 53 56 56 59 67
122 126 117 114 115 111 112 116 111 108 107 99 88 82 79 86 86 85 87 85 80 78 74 76 79 81 81 80 75 78 83 86 89 94 96 93 92 89 92 76 81 68 64 64 61 57 52 48 48 51 54 58 60 60
124 122 118 117 122 123 125 123 122 118 108 107 101 97 90 92 98 100 97 91 85 84 79 76 79 82 87 82 80 83 87 90 92 95 100 95 101 94 97 83 79 84 71 65 62 59 55 50 47 49 53 57 59 59
113 122 126 127 127 128 127 126 124 121 115 114 109 111 109 101 101 102 96 91 89 89 85 78 81 90 93 87 86 90 92 97 99 97 100 101 102 93 93 91 84 82 74 69 64 62 56 53 50 51 53 56 56 58
113 114 115 119 127 129 130 133 131 125 119 119 115 103 109 106 107 106 100 96 96 93 84 82 91 94 93 88 86 93 97 101 101 99 104 101 95 94 90 94 89 82 77 73 69 66 60 55 53 52 53 55 56 56
110 110 111 115 117 122 124 123 116 115 114 111 107 103 109 108 106 106 104 102 99 86 87 95 99 99 100 94 92 96 97 100 98 98 102 98 91 92 91 97 90 82 78 73 73 71 66 59 54 53 54 56 55 54
107 107 107 113 117 120 122 116 114 111 109 101 102 107 108 108 107 107 105 102 89 85 95 102 101 101 103 96 98 100 102 104 102 99 103 95 90 89 92 96 92 82 79 76 75 70 70 65 55 53 54 57 55 52
107 108 106 110 113 114 115 111 110 108 108 104 101 101 99 101 105 103 101 90 88 89 95 101 101 103 99 95 99 99 103 99 95 102 97 88 89 86 93 95 88 82 80 76 74 69 67 64 60 56 56 56 53 49
102 107 109 108 110 112 109 109 108 105 102 96 91 95 96 94 93 95 92 86 86 94 99 102 103 101 100 98 96 101 98 93 97 93 90 84 85 89 90 89 83 81 78 76 73 67 63 60 59 57 57 56 51 45
103 102 105 109 108 102 101 101 101 103 100 96 90 85 86 87 90 88 84 85 89 91 96 99 96 98 96 95 97 95 90 92 92 92 90 83 84 85 88 85 82 80 76 74 73 67 59 56 57 56 55 53 49 44
100 99 99 98 97 96 96 99 101 100 97 93 90 85 87 89 90 87 84 87 91 95 96 94 94 94 93 92 90 87 88 88 90 91 87 83 83 86 83 82 80 76 74 72 71 66 60 58 57 55 53 49 44 41
94 89 88 90 92 93 92 93 91 91 91 87 83 84 88 89 84 79 82 85 88 88 87 87 85 85 85 83 83 84 86 87 88 87 85 82 84 81 79 78 78 75 71 71 67 64 60 59 57 54 51 46 41 37
83 76 79 81 83 86 88 85 84 84 85 85 85 81 81 80 82 86 87 84 82 82 81 79 79 79 79 80 82 82 83 85 86 84 83 83 79 78 76 78 78 74 71 68 64 61 60 60 57 53 49 43 38 34
71 71 75 76 77 79 80 81 83 83 80 81 82 83 83 85 88 89 84 77 77 74 74 77 75 76 77 78 79 80 81 82 82 82 80 78 78 74 74 75 73 71 69 64 61 60 59 58 54 50 45 39 35 32
63 66 70 72 72 72 75 77 79 80 80 80 82 81 83 87 89 87 80 74 75 75 76 76 76 75 74 74 73 73 75 77 76 77 77 76 73 71 72 71 70 68 63 60 60 59 57 53 48 45 41 36 32 30
60 61 65 68 68 67 70 74 78 78 77 79 83 85 86 87 84 84 78 72 73 74 74 75 74 74 72 70 73 75 75 74 75 75 73 71 70 69 68 67 64 61 59 59 58 56 51 46 43 41 37 32 30 29
59 62 64 62 59 62 69 74 77 77 77 78 79 82 83 83 80 78 75 73 70 70 71 70 69 71 72 73 74 74 74 72 72 72 70 67 65 64 64 61 57 57 57 56 54 49 43 40 38 36 33 30 29 28
61 62 61 61 62 64 68 73 75 75 77 79 79 80 79 76 73 73 76 68 64 64 66 67 69 70 71 73 72 72 71 70 70 68 64 63 61 61 59 55 54 55 52 49 44 39 37 35 33 31 29 28 27 29

GFSWCAN_250_spd_099.txt.gz
Wind_Speed
50 48 47 45 40 40 33 32 37 40 39 45 48 44 43 42 45 51 51 53 58 58 60 64 62 59 66 60 63 65 54 52 46 50 45 43 40 39 37 35 35 36 33 28 26 23 21 19 18 17 18 18 16 14
49 49 48 45 44 43 38 38 35 36 38 39 42 43 42 38 41 47 47 48 52 51 55 59 58 56 61 63 62 63 64 64 55 52 51 52 52 49 45 42 40 39 35 33 33 28 24 23 22 20 18 17 18 19
52 50 47 39 39 41 41 42 39 41 33 37 39 42 40 37 37 41 43 46 49 50 49 54 56 59 59 60 62 59 62 63 66 66 59 57 57 56 54 53 50 48 41 40 35 34 35 31 27 25 25 26 25 25
51 52 46 41 42 39 42 40 44 41 32 32 35 36 40 43 39 40 38 43 44 45 46 52 53 55 58 56 58 59 59 62 61 65 68 64 61 57 59 55 60 63 51 41 43 41 36 38 35 33 30 29 29 31
56 54 54 54 51 43 42 41 45 43 35 35 34 33 41 40 40 40 42 41 41 43 44 45 48 52 54 55 58 60 61 61 59 63 67 69 68 65 62 60 69 58 55 43 44 51 42 43 38 37 38 38 37 37
64 64 53 49 52 49 44 50 41 40 38 37 37 33 35 32 36 39 44 47 46 41 43 44 48 51 54 51 52 57 59 62 64 63 65 66 60 64 77 70 74 67 55 48 43 54 57 50 47 43 44 47 48 48
71 69 67 58 57 57 58 54 50 45 43 37 39 41 38 36 35 38 40 45 48 45 45 44 46 49 52 50 48 53 58 59 61 64 66 63 64 64 75 76 72 69 67 56 50 44 54 66 58 54 53 53 55 57
79 75 73 70 63 60 60 55 55 53 53 46 44 46 45 42 42 44 47 46 44 45 45 44 44 47 50 50 50 55 59 57 59 63 67 68 67 66 70 75 75 75 73 65 63 51 44 52 63 66 65 65 64 65
86 83 81 79 75 65 65 62 59 58 59 58 60 56 53 51 45 44 43 44 45 44 43 44 43 46 48 48 50 53 58 57 59 64 66 69 73 74 76 77 69 78 78 75 65 58 52 49 48 57 61 67 71 70
98 91 87 81 76 75 74 73 70 72 72 67 66 61 55 52 52 48 51 50 47 47 43 45 49 49 46 48 51 55 59 58 63 66 66 66 73 78 81 84 82 70 78 72 75 65 63 55 52 51 52 57 60 63
103 97 93 92 89 87 82 81 74 73 74 74 70 69 65 61 56 55 51 53 51 48 49 46 50 52 52 50 52 54 56 59 62 68 70 71 73 75 79 83 91 86 88 74 79 75 72 61 57 52 50 50 54 57
104 106 101 100 98 93 88 85 81 78 78 79 77 73 70 66 62 59 57 60 62 58 56 54 55 55 55 56 56 57 58 62 64 70 74 75 75 77 78 83 90 91 95 79 79 77 77 73 62 58 52 50 50 51
118 113 112 107 108 106 101 96 90 88 88 87 83 80 75 71 66 62 64 69 69 66 63 60 60 62 63 59 61 62 61 60 66 72 75 76 78 80 84 87 90 94 91 93 79 76 80 77 70 63 58 53 50 51
126 117 113 115 113 117 111 108 105 101 100 95 95 90 85 77 68 69 73 76 77 73 67 65 64 62 64 68 69 69 71 69 69 72 75 77 78 80 81 84 88 95 92 94 83 81 80 80 75 67 62 58 54 51
120 119 115 113 116 118 115 118 113 106 106 103 98 94 87 80 80 77 78 81 81 79 76 73 71 70 66 69 70 78 77 73 74 78 79 80 79 81 82 84 92 93 97 93 93 83 77 81 78 74 65 61 57 54
121 125 120 118 119 122 124 128 126 119 120 111 102 93 90 87 87 90 92 88 86 84 81 79 77 76 79 77 78 80 80 75 80 86 86 86 86 85 87 90 92 94 98 90 97 82 78 82 79 76 71 65 61 56
110 107 116 113 119 124 128 135 132 128 130 122 100 98 98 94 94 95 94 92 91 89 86 85 79 81 81 87 90 95 89 81 87 89 91 91 90 91 93 96 96 97 96 94 94 82 80 84 80 75 72 68 64 59
103 102 108 116 117 116 127 129 132 137 132 120 109 105 106 104 103 101 98 93 91 92 90 87 86 81 85 89 91 98 95 89 91 94 91 92 93 94 94 95 95 94 92 92 90 85 82 84 82 78 76 70 64 60
102 103 105 114 112 117 124 127 129 132 126 120 113 110 109 107 107 108 104 100 96 97 99 91 83 79 90 94 101 100 93 92 91 95 94 93 92 93 93 92 95 94 93 90 88 86 83 84 82 79 77 73 69 60
102 99 101 111 114 117 127 133 133 130 123 111 99 95 100 104 106 109 107 102 101 102 97 88 83 92 97 96 98 99 94 90 93 96 94 92 90 91 94 95 93 92 89 88 85 87 83 84 81 78 76 73 72 67
94 96 103 108 113 118 123 124 124 122 119 110 104 112 109 106 104 105 108 108 107 101 89 85 97 103 101 97 96 94 92 91 92 94 91 88 88 92 93 91 91 88 87 88 85 89 86 86 81 77 73 70 69 66
89 95 100 103 106 112 123 120 113 114 114 105 109 109 105 106 104 106 109 111 104 92 90 94 101 101 97 93 91 90 91 92 95 93 89 85 88 88 85 87 85 85 86 85 86 89 87 85 82 76 71 68 66 63
90 93 96 102 106 109 109 110 109 110 112 106 110 111 104 99 97 100 105 97 94 92 93 97 99 95 91 88 86 88 90 89 85 87 85 85 84 83 84 83 82 83 84 83 86 89 88 85 82 76 71 67 62 59
88 95 98 101 103 104 103 102 97 98 101 104 103 99 94 94 91 94 92 83 81 88 93 96 95 93 89 86 85 86 85 83 81 82 82 83 81 82 81 81 80 81 82 82 86 89 86 83 82 75 72 69 63 59
92 92 94 96 96 97 95 93 94 96 96 96 97 95 91 94 97 90 81 77 82 88 91 91 89 89 85 85 84 82 80 78 80 80 82 77 75 78 80 78 78 80 80 82 86 86 84 81 78 73 72 68 64 61
89 90 90 88 86 86 83 85 86 86 87 85 89 89 88 86 83 74 70 77 82 86 88 88 87 84 79 81 79 76 77 80 80 79 77 75 75 76 75 73 74 78 78 82 85 84 80 78 72 70 70 65 63 61
84 82 79 77 76 77 75 75 76 80 83 83 81 82 81 78 75 71 76 78 79 85 87 87 84 80 78 75 74 78 79 78 76 75 76 75 74 74 72 72 74 77 79 82 83 81 77 72 68 68 66 63 62 59
74 69 67 64 65 67 68 69 71 75 77 75 74 73 73 72 72 76 76 77 78 83 84 84 82 77 74 75 76 75 76 73 73 75 77 77 74 74 73 73 75 78 80 83 82 77 71 67 67 66 63 62 61 56
59 55 55 60 60 60 56 56 58 61 66 68 67 68 69 75 78 76 71 71 74 77 78 79 77 73 75 72 72 73 69 71 76 77 76 75 75 75 75 75 77 79 83 82 78 73 68 67 67 64 62 61 57 52
48 51 52 50 50 51 54 56 59 60 61 64 66 67 70 72 71 71 71 71 74 71 72 72 74 74 73 71 70 67 70 73 74 74 76 76 75 75 75 77 78 81 80 77 70 67 67 68 66 63 60 56 51 46
48 49 48 49 49 53 55 56 57 59 60 61 62 62 64 64 65 66 68 71 69 65 64 68 69 69 69 68 65 68 71 70 70 71 72 73 73 75 77 77 79 77 73 67 64 65 66 65 63 58 54 49 44 41
46 45 46 46 49 52 52 51 53 54 55 55 55 55 57 59 61 64 67 68 66 65 63 64 65 64 61 61 63 62 62 63 63 65 69 71 72 73 74 74 71 66 62 61 63 63 62 59 54 50 46 43 40 37
44 45 47 47 45 45 49 50 50 51 52 52 52 53 56 59 59 62 66 64 60 59 60 57 55 55 54 54 55 55 58 60 62 66 66 66 67 68 66 62 59 58 59 60 61 59 54 49 45 42 41 38 36 35

GFSWCAN_250_spd_102.txt.gz
Wind_Speed
46 39 42 42 44 41 41 34 32 33 39 37 32 33 31 34 41 37 39 41 44 46 50 51 54 56 56 58 60 61 61 62 64 63 61 63 66 68 72 72 69 67 63 59 47 37 32 30 29 28 29 30 27 23
50 48 43 37 43 41 39 32 30 31 38 33 35 30 32 31 31 35 37 37 39 43 42 46 49 51 49 49 52 57 55 56 58 58 60 61 65 68 73 69 73 73 70 66 62 60 49 33 36 35 33 32 31 31
54 53 50 43 40 43 39 35 32 33 36 31 34 34 29 25 31 28 32 33 34 36 38 39 41 43 45 49 50 51 55 55 51 56 55 58 61 64 67 69 69 73 72 74 70 68 58 48 47 43 40 41 36 37
59 58 54 54 42 47 44 43 37 41 36 33 36 32 32 28 29 34 28 28 33 35 38 36 37 39 39 44 48 51 52 50 50 51 51 51 54 60 62 63 69 73 74 72 76 75 73 64 55 53 46 44 47 45
67 62 64 58 54 50 49 47 44 39 39 39 39 34 35 32 39 34 31 31 30 35 38 36 36 36 36 40 43 47 48 49 50 48 49 52 54 56 58 60 61 68 73 71 78 73 73 74 65 60 54 47 49 53
73 67 67 63 63 62 53 56 51 50 44 49 41 49 44 37 35 34 38 38 39 36 34 34 37 34 34 36 38 41 44 45 45 49 51 53 55 59 58 60 63 69 70 72 82 82 81 76 73 68 63 56 50 51
84 81 76 72 66 66 67 64 56 55 51 48 48 50 44 42 41 41 40 45 41 38 37 36 39 40 35 37 41 39 39 43 45 46 48 51 54 59 61 61 65 69 69 69 74 79 86 78 73 72 72 67 56 53
90 91 87 81 80 78 75 74 70 62 60 59 52 51 51 47 46 42 43 44 42 40 42 44 40 40 38 36 41 43 45 43 47 50 53 53 57 60 60 62 66 70 72 71 73 79 83 84 78 74 69 70 67 59
96 97 94 93 89 86 83 80 81 76 69 65 62 58 53 55 52 52 53 52 49 47 46 49 45 43 45 44 40 42 45 45 51 53 55 58 61 63 64 67 69 70 73 78 79 83 87 87 78 81 68 65 68 66
102 100 101 101 97 94 92 91 87 87 79 76 73 65 62 62 60 54 56 55 55 54 53 54 51 51 50 52 52 53 52 49 50 54 55 59 62 66 67 68 71 74 77 78 83 84 87 88 85 83 79 69 69 68
112 108 103 106 107 106 106 102 99 94 89 84 79 76 70 69 64 63 56 55 53 59 57 60 57 55 57 56 60 61 59 58 55 56 59 63 68 69 69 69 72 77 81 83 83 86 82 85 86 84 82 75 72 72
123 118 115 113 113 115 115 114 110 105 98 97 92 87 81 77 75 67 57 52 60 61 62 65 63 63 62 63 62 60 60 60 60 62 68 69 71 74 77 80 81 81 83 84 84 84 81 83 87 85 81 78 74 75
132 127 123 123 123 124 119 118 117 117 110 105 102 97 94 86 80 69 63 58 69 71 71 69 69 69 67 66 61 63 64 64 64 66 68 71 75 74 78 79 81 83 86 84 86 83 81 86 84 87 80 79 75 76
136 132 130 129 127 130 128 124 124 123 121 120 113 106 100 96 84 78 79 77 74 78 78 76 74 74 73 73 74 74 73 72 68 72 72 76 79 81 81 85 85 84 83 85 87 84 82 84 83 86 83 80 78 76
129 125 124 124 125 127 130 129 127 130 129 130 127 122 100 94 92 86 88 88 85 86 87 81 79 81 81 79 76 75 76 76 75 75 71 77 83 85 86 87 86 87 85 86 87 83 81 82 83 84 83 82 79 78
116 119 117 120 122 129 131 133 133 136 140 139 136 124 108 100 96 98 98 98 95 93 94 90 86 85 85 84 80 78 78 79 78 77 78 82 86 86 89 91 89 88 86 85 86 85 83 82 80 84 83 82 81 79
111 106 115 122 124 129 133 138 135 136 140 143 135 122 113 107 104 104 105 104 104 103 100 100 96 95 90 86 83 82 86 85 88 85 81 84 87 89 93 97 95 95 89 84 87 83 84 82 81 83 84 82 82 82
100 107 112 112 118 125 134 137 134 135 137 131 130 122 120 115 112 109 109 109 113 108 108 104 104 100 93 90 89 93 95 95 96 90 86 84 86 91 94 99 98 96 88 85 86 82 82 81 82 81 85 83 82 83
97 98 104 110 116 123 123 131 136 132 131 124 131 128 125 122 120 116 115 115 115 112 115 113 109 97 94 98 98 100 102 103 100 95 89 87 87 91 95 99 96 92 86 85 84 81 81 83 80 81 84 83 82 83
92 96 98 102 107 112 119 122 122 123 122 121 122 122 125 123 124 123 122 119 120 120 118 110 103 105 104 103 105 103 105 105 102 98 93 93 90 92 95 95 93 91 85 84 82 79 81 82 81 83 83 82 81 82
88 91 95 99 101 106 111 115 111 108 105 113 115 118 120 116 117 120 123 123 124 123 119 109 106 107 108 106 108 107 106 106 101 96 94 94 93 93 94 95 92 89 84 82 80 80 81 81 82 82 81 81 81 80
84 89 91 96 96 99 102 104 102 100 102 101 107 112 112 113 113 113 116 122 118 109 97 101 104 102 104 102 105 103 101 100 99 95 95 95 95 96 94 93 90 86 83 80 80 79 80 81 83 81 81 80 81 81
81 85 86 89 94 97 95 94 96 92 96 96 102 104 102 98 98 104 112 108 103 94 96 99 103 103 99 98 100 96 94 95 95 93 92 92 92 92 91 90 87 83 81 81 79 77 79 81 82 82 81 82 82 82
80 82 82 84 90 92 87 86 87 85 85 82 87 92 94 93 93 103 99 96 87 91 94 98 98 101 99 94 92 97 96 93 91 90 90 87 85 86 85 85 83 80 79 79 79 78 79 81 81 82 82 83 82 83
78 80 82 82 83 83 80 79 78 78 72 76 80 84 86 89 93 93 83 81 87 89 89 90 91 91 90 88 87 86 87 85 85 83 81 81 82 80 81 82 80 78 78 79 79 78 80 80 81 82 83 82 82 83
76 76 77 72 70 73 72 69 70 73 71 70 73 74 74 77 81 72 69 76 83 85 84 87 89 85 84 84 82 83 83 79 79 77 81 79 78 77 78 79 78 77 76 78 77 78 79 79 82 82 83 80 82 82
73 67 63 62 62 63 65 67 65 64 65 68 68 69 68 67 64 61 72 75 75 77 79 77 77 78 79 79 79 79 78 78 75 76 77 77 77 74 75 75 76 76 76 76 77 79 79 80 81 82 79 79 81 79
52 52 50 56 59 60 60 59 57 56 55 57 58 60 60 59 61 69 72 75 75 72 67 72 74 75 77 77 74 73 73 72 74 74 74 74 74 75 72 72 73 74 74 75 77 78 79 81 80 78 78 80 78 75
43 45 52 53 55 56 53 50 49 50 53 58 59 59 60 63 65 64 64 63 62 62 66 69 68 69 71 70 70 69 69 69 71 72 72 72 73 69 68 69 71 72 73 74 75 78 80 77 76 77 77 76 73 69
41 47 49 49 50 49 51 50 52 55 55 56 55 55 56 61 61 57 57 57 59 61 61 63 65 67 68 67 66 64 64 64 67 68 68 69 67 67 67 68 69 70 71 73 77 79 75 73 74 73 73 71 67 65
46 46 46 47 47 51 49 50 53 53 51 53 54 55 57 55 53 52 53 55 57 59 60 61 60 60 60 59 58 59 62 64 63 63 64 62 62 64 65 66 66 67 71 76 75 72 72 71 70 69 68 65 63 61
46 45 47 48 49 48 47 47 47 48 50 51 52 50 48 46 48 50 53 52 53 54 53 52 53 54 52 53 57 60 61 60 59 59 58 60 62 62 61 61 65 72 73 70 68 68 67 68 67 65 62 60 59 57
44 45 46 46 46 46 46 47 48 47 46 46 47 46 44 44 47 51 51 47 46 47 47 47 47 50 53 55 57 56 55 56 55 55 56 57 54 56 62 68 69 68 66 64 64 64 64 63 61 59 57 56 54 49

GFSWCAN_250_spd_105.txt.gz
Wind_Speed
41 36 36 35 35 37 37 33 33 35 28 25 29 29 25 26 26 28 33 25 31 33 37 38 37 36 39 42 45 48 48 50 50 52 54 55 53 55 55 58 59 60 60 58 65 67 67 63 58 54 48 45 36 33
50 45 41 38 35 33 37 28 30 38 27 31 31 29 24 25 23 21 31 26 25 30 31 33 33 33 31 37 38 39 43 42 42 45 47 49 50 52 52 53 56 62 65 61 64 68 66 69 63 61 55 50 48 40
59 51 47 45 45 40 36 36 34 37 38 43 32 29 28 28 36 29 30 30 26 32 29 32 30 32 31 30 33 36 34 36 36 38 41 44 47 48 52 53 53 55 59 62 64 69 70 68 68 65 61 55 50 47
67 67 59 57 56 54 47 44 43 37 41 45 33 31 28 32 35 29 31 31 28 29 33 34 31 28 32 32 33 35 35 32 35 35 39 42 44 46 49 50 52 54 56 59 63 65 69 68 68 65 65 62 55 49
73 74 72 66 64 62 61 52 48 47 42 42 39 40 40 34 39 41 33 32 34 35 32 34 35 32 34 34 32 33 35 34 35 37 40 41 43 47 53 50 55 55 58 61 63 66 69 69 68 67 66 67 62 56
82 80 80 77 74 71 67 65 56 55 52 48 44 43 43 39 41 43 44 33 31 39 35 37 40 40 36 35 31 34 36 34 37 40 43 47 44 45 54 56 57 58 61 65 67 67 69 69 72 69 67 69 67 61
90 90 90 87 83 81 78 76 70 66 63 58 55 52 52 52 50 48 47 41 35 35 41 45 43 43 44 42 40 41 38 39 41 46 45 48 47 49 53 51 55 56 58 61 67 69 70 69 71 72 66 68 68 69
100 97 98 96 92 90 88 87 84 81 75 73 67 65 62 60 59 53 52 48 44 44 43 47 48 47 47 46 46 45 43 45 46 48 52 51 51 51 53 54 57 58 61 64 68 72 74 74 73 75 71 68 68 70
112 110 105 103 101 100 98 97 94 92 88 81 78 73 70 69 68 63 58 53 53 50 46 51 54 53 50 49 48 47 48 47 50 53 55 54 55 55 57 59 62 66 67 68 70 73 76 77 78 75 78 73 72 71
117 117 112 110 109 106 102 101 102 98 95 91 87 84 80 81 77 71 65 61 57 57 55 57 61 62 56 55 51 50 51 52 53 54 54 55 61 64 64 66 69 69 67 67 71 74 79 83 85 82 77 78 75 74
124 123 121 118 119 115 113 110 110 110 104 100 99 95 91 90 87 80 71 67 64 63 67 71 70 64 64 58 55 55 52 54 57 58 59 60 66 63 65 68 67 69 70 72 74 76 79 82 87 88 80 81 78 75
136 132 130 126 127 125 124 122 122 118 118 113 109 108 105 98 95 91 80 75 73 74 78 76 77 75 71 68 68 61 58 57 57 61 63 63 68 68 70 70 68 70 73 76 78 77 80 82 87 89 85 81 81 78
147 139 141 141 138 134 132 132 132 131 128 125 122 119 113 111 104 92 87 83 87 87 86 85 82 81 78 78 75 73 68 63 62 61 64 69 71 74 75 76 74 75 77 76 81 81 82 84 86 89 87 81 84 80
136 134 138 142 140 140 141 140 140 136 138 135 133 129 125 116 106 100 98 99 97 97 97 93 91 89 85 81 82 81 77 74 69 68 73 77 76 80 82 84 84 85 84 84 86 85 86 87 88 89 91 85 84 82
129 125 127 129 130 137 138 141 139 134 141 143 144 138 129 118 114 109 109 107 108 109 107 105 102 98 95 90 85 83 81 78 76 78 79 82 81 84 86 90 92 89 89 90 91 91 89 90 89 92 92 90 87 85
116 117 115 118 122 125 131 137 138 133 137 140 144 141 121 118 118 119 119 121 119 118 117 114 113 112 103 99 93 86 82 80 88 86 91 90 90 90 89 92 94 95 92 93 94 94 94 90 89 93 93 92 90 86
110 104 110 112 117 123 127 132 135 134 137 136 131 131 126 119 121 128 132 133 130 126 121 124 124 121 117 109 98 92 89 97 93 89 95 95 95 94 91 93 96 97 96 98 98 97 96 94 90 93 92 93 91 87
97 102 104 108 113 115 119 126 133 132 127 124 121 117 118 115 116 122 131 137 136 133 132 130 125 125 120 111 104 104 104 104 100 96 93 95 97 97 96 95 95 99 101 98 99 100 99 97 92 92 92 93 92 87
92 95 98 103 107 109 116 119 123 122 116 120 109 113 114 114 116 122 128 134 135 131 127 123 123 118 113 111 111 113 109 107 104 100 97 99 98 98 97 96 94 96 100 102 101 103 100 96 93 90 91 91 91 86
89 91 92 97 102 103 108 109 111 112 102 102 104 106 111 114 115 115 119 121 121 120 116 117 113 110 111 112 113 112 111 110 104 102 103 102 100 100 102 102 99 98 98 97 99 97 96 95 91 90 89 89 89 85
84 86 90 95 96 98 102 101 99 99 92 91 94 97 101 105 106 107 111 113 109 108 109 108 108 111 107 105 105 107 108 109 110 106 102 102 102 104 106 104 102 99 97 98 96 94 93 92 92 87 87 88 87 84
80 86 87 92 90 93 94 91 90 88 87 83 88 89 87 91 96 100 104 100 97 99 100 106 104 105 107 107 108 107 101 103 105 105 104 102 101 103 104 102 97 97 96 94 93 94 91 89 85 85 85 86 85 83
80 82 82 88 89 88 85 82 84 80 79 77 79 79 78 81 83 86 90 91 89 92 102 99 101 102 104 106 103 96 98 100 100 101 99 99 99 99 98 95 94 93 93 92 91 89 87 84 83 82 84 83 82 82
78 79 79 83 84 82 75 76 73 70 70 69 69 69 70 75 77 77 77 78 84 89 90 94 97 95 94 93 91 93 96 93 92 92 94 91 87 88 90 91 91 91 87 79 79 80 80 80 80 80 80 80 82 82
75 77 78 76 77 70 64 62 61 66 61 62 65 67 65 68 68 68 68 74 79 83 86 87 87 88 84 82 85 88 89 88 85 85 86 82 83 85 84 84 84 80 77 76 78 78 79 78 78 78 77 79 80 81
71 71 69 67 64 60 57 57 58 61 58 58 61 60 58 61 66 64 68 75 75 75 77 79 79 78 75 77 77 78 83 81 80 80 85 81 79 78 77 75 75 76 74 75 76 77 77 76 76 76 78 77 79 78
61 54 55 55 52 53 57 59 58 58 56 57 57 58 56 55 56 64 70 67 64 65 66 66 66 68 71 73 71 72 72 70 68 69 71 71 71 71 69 68 69 71 71 71 73 75 75 74 74 75 76 76 77 78
45 45 46 53 55 54 53 53 53 53 52 51 52 52 53 54 60 64 62 59 58 58 58 57 57 57 59 62 64 64 61 59 60 63 66 66 62 60 62 64 67 66 67 71 72 72 70 71 72 72 72 74 78 78
44 52 55 53 51 49 48 48 49 52 53 53 52 50 48 53 56 53 50 51 52 52 52 51 51 52 55 55 55 54 54 55 58 57 56 58 57 60 62 64 63 66 68 70 68 66 68 68 65 67 71 76 75 71
55 54 51 51 51 49 50 52 55 55 52 48 46 44 46 50 50 46 47 49 49 47 47 49 50 49 46 47 50 53 52 51 53 54 54 55 56 59 59 60 63 65 65 62 63 63 61 61 65 71 73 71 67 66
50 48 48 49 49 53 54 55 54 50 46 44 44 44 46 46 43 45 46 45 43 42 42 43 43 44 46 48 48 47 48 50 50 51 53 53 55 56 56 59 61 61 58 59 60 58 58 64 69 68 65 64 64 65
44 44 46 47 50 51 51 47 45 40 38 37 39 40 41 39 42 43 44 41 41 41 40 40 43 44 44 44 44 45 47 48 48 50 53 54 54 53 56 58 56 56 55 56 56 59 65 65 64 61 61 63 64 63
41 41 43 45 45 45 44 41 38 38 38 38 38 38 39 39 41 44 40 39 38 38 41 42 41 40 40 43 44 47 49 49 51 53 51 51 53 53 53 53 55 56 55 56 58 62 62 61 59 60 62 61 60 59

GFSWCAN_250_spd_108.txt.gz
Wind_Speed
44 42 39 38 30 29 28 22 19 18 16 16 23 22 29 22 18 15 27 24 24 28 29 33 30 28 27 29 29 31 31 34 38 39 40 41 45 45 46 48 47 48 50 52 54 55 56 55 55 56 51 48 45 45
54 51 47 43 41 40 40 37 33 28 25 26 17 24 29 20 16 16 25 20 22 25 27 28 31 25 27 26 25 29 28 29 31 34 35 38 39 42 41 42 43 44 46 48 51 55 56 56 58 57 56 53 50 45
60 59 59 55 50 48 47 44 40 40 38 31 28 24 25 24 22 20 24 25 24 24 25 26 27 24 26 30 26 30 28 26 27 31 34 38 40 41 40 39 40 41 47 47 54 57 57 56 58 61 64 60 57 58
67 66 65 66 63 60 59 58 54 52 49 46 41 36 30 31 29 22 27 22 33 29 32 26 29 28 31 35 31 30 29 32 34 31 34 38 41 45 42 40 43 43 47 53 56 56 57 59 62 62 64 67 68 60
76 72 69 68 70 70 67 66 66 63 59 55 51 48 45 37 34 33 31 27 25 36 29 31 35 33 33 37 38 34 31 33 35 35 37 34 38 39 42 43 44 48 52 55 56 55 56 60 64 67 68 69 73 73
83 79 77 75 74 75 76 73 69 69 68 65 63 59 55 53 48 44 38 33 33 34 41 30 45 39 42 42 41 41 40 35 33 35 40 41 44 45 43 46 48 51 51 54 54 57 57 61 65 67 71 73 72 73
87 86 85 86 83 79 80 81 81 78 74 72 73 71 68 63 61 58 51 50 47 37 36 43 44 42 46 42 42 49 44 42 42 42 43 44 46 47 49 48 51 51 51 54 58 61 61 63 70 72 76 78 77 78
94 93 93 91 90 89 86 85 88 86 87 84 81 80 77 76 75 72 67 61 58 56 47 47 48 53 55 50 44 44 42 46 53 50 50 47 48 49 50 51 53 54 56 61 62 64 64 67 74 77 79 82 82 82
103 105 105 110 102 97 96 94 92 94 94 95 94 90 87 84 85 86 79 72 69 62 59 56 63 57 58 58 55 55 55 56 55 57 57 51 53 56 52 51 56 58 61 63 62 66 69 73 79 81 82 84 86 87
114 110 107 114 117 112 107 106 106 106 104 99 98 98 99 95 94 91 88 86 80 73 64 64 73 72 70 67 66 65 62 62 58 59 61 57 58 64 62 62 58 57 60 65 69 71 74 77 82 82 85 85 88 88
123 122 118 119 121 121 113 111 115 114 114 116 114 110 106 106 104 101 96 89 84 79 77 76 79 84 80 76 74 72 70 68 61 60 68 64 66 71 68 71 70 67 65 65 70 73 78 78 81 82 84 88 89 90
134 129 129 131 130 131 131 132 130 126 121 122 123 121 119 117 114 108 101 96 94 91 85 88 90 90 91 90 87 83 81 77 71 66 65 71 79 73 72 72 74 74 73 73 74 77 78 80 80 83 86 90 92 93
138 138 141 136 137 136 135 132 129 133 134 133 132 133 127 128 122 112 106 104 105 108 106 103 99 96 96 98 99 94 89 84 82 78 73 83 83 81 80 78 79 77 78 76 78 79 80 82 84 86 90 91 92 92
149 151 143 150 147 145 151 149 144 139 147 147 141 137 134 132 119 118 117 119 120 117 117 118 117 113 107 106 106 102 101 95 90 86 88 91 88 85 86 86 85 85 85 83 82 82 82 84 87 89 92 93 94 92
136 136 139 136 137 137 142 148 155 149 149 152 147 144 135 126 128 131 133 131 125 127 128 126 126 123 122 119 114 111 106 100 99 101 103 99 97 95 95 92 91 91 90 89 89 89 89 88 90 92 94 94 95 95
129 128 125 130 135 139 143 145 145 144 143 140 139 135 124 127 132 134 134 133 130 129 127 124 126 125 125 126 122 118 112 104 104 110 110 107 103 99 98 99 98 97 95 94 93 94 96 95 94 94 97 96 97 96
125 117 123 124 128 127 129 137 138 136 136 132 119 121 120 115 116 120 124 127 125 125 126 122 121 123 121 120 122 118 112 113 114 113 112 110 108 106 106 99 98 97 96 98 96 95 96 96 97 95 97 95 99 99
108 112 115 117 120 123 124 123 126 126 122 114 110 104 113 110 110 115 119 120 120 121 123 116 112 117 118 117 110 109 113 114 116 116 112 108 104 103 103 102 103 99 95 96 96 96 97 97 99 100 99 97 100 98
101 106 109 110 113 115 116 118 119 111 102 104 99 100 105 105 105 104 107 112 113 112 112 108 108 107 101 108 112 112 111 112 115 114 108 106 106 103 100 101 98 93 91 93 96 96 95 97 100 102 99 97 99 96
96 98 99 103 110 109 107 105 107 104 95 88 91 90 96 96 96 97 98 98 101 103 102 101 99 103 106 112 114 106 103 103 101 99 96 96 107 103 98 97 90 87 89 90 89 90 94 94 96 98 96 95 94 92
91 90 95 98 100 101 101 99 94 91 87 81 81 87 85 83 83 87 89 92 91 92 94 93 97 100 110 108 103 103 100 100 94 92 91 90 96 91 88 87 86 84 82 83 85 86 86 88 92 92 91 90 91 90
85 90 91 95 97 98 90 83 81 83 82 71 74 75 73 72 75 78 83 85 81 83 89 92 92 98 97 89 91 88 89 88 88 85 81 78 83 86 79 80 80 78 78 80 83 84 83 86 86 87 85 87 87 89
87 90 89 92 91 87 74 79 74 71 68 64 70 67 64 67 72 74 72 74 76 84 86 85 87 85 80 81 82 83 86 85 76 74 72 70 68 71 71 70 71 73 73 75 74 76 79 80 81 81 83 84 84 81
84 85 83 82 80 72 68 67 62 62 62 61 64 63 62 65 65 68 64 64 75 79 78 81 75 70 71 71 70 72 77 72 66 67 71 66 64 68 66 64 64 65 67 67 67 71 73 76 75 79 81 80 78 77
77 74 72 71 69 61 59 60 59 62 58 63 63 59 57 61 61 58 55 62 71 73 71 68 66 64 64 66 67 67 66 55 54 59 67 60 60 64 62 59 59 62 62 60 66 70 72 73 74 74 74 72 73 71
65 61 61 61 60 58 57 59 61 62 61 59 57 56 58 59 55 49 57 66 67 60 61 60 60 59 59 59 60 61 59 51 52 56 63 54 57 57 59 58 58 62 60 62 65 66 67 68 68 69 69 67 67 66
48 51 52 55 57 59 60 61 59 57 55 56 55 57 56 52 48 55 60 61 58 56 55 54 53 54 55 53 52 52 50 50 50 52 55 52 54 52 53 56 58 59 59 61 59 58 59 60 64 66 63 62 62 64
46 48 49 56 57 58 55 52 49 49 53 55 55 54 53 52 53 61 56 52 49 49 50 50 48 47 47 47 47 47 47 46 46 49 51 51 48 49 51 53 56 57 58 57 56 56 59 60 59 59 59 59 62 61
51 57 61 63 61 56 51 49 50 53 55 53 52 52 52 53 58 52 49 48 48 47 47 47 45 44 45 45 46 44 43 42 44 46 48 47 47 49 52 52 52 53 52 51 52 53 55 55 56 55 55 59 59 61
58 58 59 55 50 50 54 53 56 54 53 54 55 54 53 54 54 49 47 45 44 45 43 43 44 44 43 42 43 43 41 41 43 45 47 46 46 49 50 49 49 48 47 46 48 51 52 51 52 53 54 56 59 60
50 47 48 47 49 52 50 50 52 52 52 52 52 50 50 46 44 44 45 44 43 42 42 43 42 40 40 40 41 42 42 44 45 45 45 46 47 48 49 48 47 45 46 48 48 47 49 50 51 52 54 56 58 60
43 43 44 45 47 45 44 44 45 44 44 44 44 42 41 40 42 45 47 43 40 40 41 39 40 39 36 37 39 41 43 43 43 44 44 44 45 46 45 44 44 45 46 45 44 45 47 47 49 53 55 57 57 55
34 35 36 37 39 40 41 41 41 40 39 40 38 35 36 37 41 49 49 44 41 37 36 36 37 36 36 37 38 39 40 41 41 41 42 43 42 42 41 42 43 44 42 41 43 44 44 47 51 53 53 52 49 50

GFSWCAN_250_spd_111.txt.gz
Wind_Speed
50 47 41 44 43 38 35 33 29 25 22 23 19 19 13 18 18 18 11 14 21 25 18 18 19 27 21 21 30 28 27 28 32 32 33 35 33 36 37 36 38 41 44 44 45 47 52 53 54 58 60 62 62 63
58 57 54 50 48 48 45 40 40 39 38 33 30 29 28 20 22 17 18 11 16 26 24 31 23 30 20 21 22 25 29 31 33 30 31 33 31 30 35 38 39 41 44 44 43 48 51 53 53 58 60 64 67 67
61 61 59 60 55 50 51 51 48 45 44 43 42 39 39 41 38 30 19 27 22 25 22 28 29 25 21 27 23 25 32 32 30 33 29 32 33 38 39 38 40 43 44 47 48 50 54 54 57 60 64 66 71 73
68 66 65 65 63 61 59 56 55 54 51 51 49 48 48 46 47 44 38 35 29 28 29 31 28 30 31 29 24 32 36 31 30 38 34 33 32 41 47 44 41 44 45 46 48 49 53 55 55 59 61 66 70 74
78 75 76 71 67 68 69 65 63 62 58 57 57 57 55 53 52 52 50 47 41 35 35 33 30 29 32 29 30 30 38 36 38 41 41 42 37 41 52 51 47 44 48 46 46 51 53 54 57 60 63 65 68 71
85 82 83 83 78 74 74 74 73 72 70 65 64 61 58 59 58 59 56 57 54 49 47 48 47 47 39 42 43 35 37 41 31 37 45 44 41 42 53 52 53 52 55 50 52 54 55 56 58 61 64 66 67 71
92 93 92 93 94 87 85 82 80 79 79 77 75 70 66 66 63 63 62 62 61 59 56 58 61 61 59 55 50 49 46 46 46 41 36 45 48 52 56 55 55 55 58 59 59 59 61 60 59 62 66 68 70 72
102 101 101 97 97 94 89 87 88 86 84 85 83 78 76 74 72 73 71 68 67 70 67 64 67 75 72 70 66 62 60 54 53 53 54 53 54 57 53 54 58 58 61 63 63 64 64 65 65 67 70 71 75 75
105 108 108 105 101 103 102 99 94 92 91 89 89 85 83 81 82 83 79 76 74 74 73 72 73 80 79 81 80 77 74 69 64 64 63 59 65 72 66 67 65 63 66 66 67 67 71 72 73 73 73 76 79 81
113 108 112 112 111 112 104 99 100 99 98 95 95 93 92 94 95 93 91 87 82 79 77 77 88 92 92 89 90 90 84 78 72 67 68 65 67 80 72 70 73 75 75 73 72 73 72 75 77 79 80 82 84 86
120 119 109 110 110 110 105 102 106 107 108 105 103 106 101 99 101 99 96 95 96 92 85 87 98 101 103 101 101 101 99 94 85 76 76 71 73 85 82 77 79 82 82 82 83 81 79 77 78 82 83 83 86 88
126 129 124 125 126 124 125 124 119 119 116 116 116 115 114 112 111 107 101 100 104 106 103 105 113 112 110 112 111 108 105 103 101 93 86 79 89 88 88 86 84 84 85 88 90 89 88 86 86 87 87 88 91 91
139 135 136 136 134 137 137 135 138 132 132 131 130 132 124 120 114 111 109 108 113 116 116 118 124 120 115 119 121 116 112 106 104 104 99 98 103 97 95 92 91 91 92 92 92 93 92 92 92 92 91 93 93 93
146 143 142 141 135 132 132 121 124 136 138 142 142 134 128 123 121 119 119 120 123 124 123 125 126 127 125 123 126 127 128 119 112 107 111 114 116 111 103 101 99 98 98 100 99 97 97 96 96 94 94 93 93 95
150 147 143 131 131 128 129 133 136 134 139 146 143 136 129 124 125 129 129 133 136 136 138 138 137 132 132 133 133 132 129 126 121 123 125 115 112 111 110 104 103 103 103 101 102 102 100 97 96 97 94 94 92 93
149 147 141 135 138 138 137 140 142 139 144 144 136 125 125 127 131 133 137 140 141 144 144 140 138 130 126 131 126 124 123 121 120 122 125 120 115 108 110 104 102 103 101 95 94 97 99 97 96 94 94 92 92 91
140 133 135 139 141 139 141 144 143 138 139 139 124 121 122 120 123 130 132 127 125 129 127 134 131 126 125 121 117 119 117 115 120 120 117 111 104 98 100 95 95 93 89 91 89 92 94 94 94 93 92 87 88 88
122 123 128 134 137 137 135 139 142 137 126 117 112 114 121 120 119 118 118 115 122 123 117 115 117 113 110 110 108 109 115 116 115 114 110 101 98 94 84 87 89 81 80 81 82 85 86 88 88 89 86 83 84 85
115 118 119 124 126 128 126 126 128 127 116 106 99 99 104 108 109 108 109 107 107 111 109 105 103 96 101 105 105 104 106 103 98 95 89 88 88 87 80 81 77 73 74 76 78 79 78 79 82 81 81 80 79 80
108 110 113 114 116 118 119 116 112 106 98 98 98 94 98 93 95 99 99 99 98 101 99 94 92 94 94 94 93 91 93 96 94 86 83 81 81 77 76 79 74 73 71 72 74 74 74 75 78 77 76 75 73 76
100 98 103 110 110 107 109 108 100 92 86 84 80 86 89 86 86 89 92 92 91 88 86 88 88 90 89 86 86 82 79 82 79 78 74 74 77 69 70 70 69 67 69 73 74 73 71 69 69 69 68 71 73 70
90 94 97 101 100 99 96 86 80 82 83 75 72 78 79 81 81 80 81 85 82 78 79 81 83 83 81 80 77 74 74 76 75 71 67 63 63 66 65 67 63 62 63 65 66 63 59 60 61 61 62 65 64 66
91 92 91 90 90 87 74 76 74 73 72 69 73 75 72 72 74 75 75 71 68 74 78 78 79 79 74 72 70 70 71 66 60 58 59 57 56 59 61 58 57 56 56 60 57 52 52 56 57 58 59 60 59 61
87 87 85 83 76 68 63 71 73 72 68 65 70 73 67 73 71 66 61 62 67 74 75 76 73 69 66 64 66 68 68 52 52 54 58 53 51 57 55 55 55 53 56 55 50 50 52 55 53 55 57 55 57 59
76 74 71 66 67 65 69 72 72 71 65 71 72 67 70 71 64 59 57 65 74 73 68 68 63 58 60 63 63 60 55 47 49 53 57 47 49 50 48 47 50 53 51 46 47 46 50 53 53 54 54 53 56 56
62 59 57 57 61 66 66 72 68 68 68 67 64 66 66 62 59 52 60 72 67 63 62 64 58 57 57 55 53 50 47 44 46 52 49 45 47 47 48 47 49 50 43 42 44 47 49 51 53 55 54 55 52 51
47 47 54 58 62 64 63 68 69 66 66 66 66 63 60 55 52 59 71 67 63 61 58 52 51 51 49 47 45 46 44 43 45 46 45 44 43 41 41 43 46 48 42 43 45 48 49 49 50 52 53 50 47 50
44 51 55 67 65 66 64 63 63 60 61 62 60 56 54 54 58 66 60 60 58 55 50 48 47 47 47 47 45 43 41 40 41 44 43 41 39 38 38 43 46 44 43 45 47 46 48 47 49 49 46 45 46 48
48 55 59 59 60 55 55 57 57 60 60 56 54 53 53 55 61 59 56 52 50 50 50 48 47 48 47 43 42 41 40 38 40 42 41 41 39 37 41 42 44 46 47 44 43 43 44 45 44 42 42 43 45 45
55 61 56 53 49 50 55 52 53 52 48 47 48 50 51 54 56 54 52 49 48 48 48 47 46 45 44 41 40 36 35 36 38 40 40 40 40 41 42 42 42 42 40 39 40 41 41 41 39 39 40 42 42 42
52 45 43 43 44 49 46 42 42 41 41 41 41 41 47 48 48 49 49 50 49 47 47 48 45 42 40 39 35 34 34 33 36 38 39 39 39 40 40 39 36 36 36 39 41 39 38 37 37 39 40 40 41 43
36 37 39 39 40 37 34 34 36 35 36 36 39 41 41 41 45 48 48 44 44 45 45 42 40 38 33 34 32 33 33 33 34 36 38 37 37 38 35 33 33 34 38 39 35 35 35 34 35 35 36 38 41 42
27 31 34 35 34 32 29 25 24 26 28 34 36 35 35 35 42 52 44 42 40 37 33 32 32 31 32 33 32 33 33 34 36 36 36 35 35 34 33 33 35 36 34 32 31 32 32 32 33 36 38 38 39 39

GFSWCAN_250_spd_114.txt.gz
Wind_Speed
57 52 49 47 45 42 36 36 35 34 31 28 24 23 26 22 21 21 20 24 17 15 22 27 23 18 18 18 18 21 19 29 31 24 29 31 25 26 27 31 40 44 42 41 43 44 46 50 52 54 54 56 58 60
65 62 59 53 50 49 49 48 47 43 41 41 39 37 36 34 34 33 31 33 28 23 29 26 26 24 25 23 21 21 22 25 29 33 28 35 31 39 32 33 39 43 46 43 43 45 47 49 52 53 54 57 58 61
67 66 65 64 60 58 55 52 52 51 48 46 46 43 39 37 40 40 38 39 38 35 37 32 25 30 29 26 27 27 22 26 25 31 35 38 38 36 40 40 39 36 48 52 49 46 47 47 51 55 57 59 61 63
77 76 76 73 69 66 61 59 57 56 53 53 50 50 49 48 47 47 46 46 45 46 43 39 40 38 37 35 32 33 28 33 34 36 34 33 36 34 40 39 41 44 45 51 51 50 50 49 52 51 56 62 63 66
88 89 85 78 72 73 71 70 64 66 65 63 62 59 56 56 54 52 52 55 51 51 51 50 50 49 50 48 43 42 46 40 41 42 44 41 44 40 40 43 49 52 50 50 49 52 52 54 56 57 57 59 62 65
91 86 84 85 83 81 79 78 74 72 73 73 71 65 60 59 61 61 60 58 56 53 49 52 57 57 55 56 57 59 54 53 53 49 48 49 49 49 48 47 51 54 55 55 59 59 62 63 62 62 63 63 64 67
94 93 86 86 89 85 86 83 84 84 81 79 78 77 80 77 73 69 70 70 68 68 65 60 62 66 64 62 65 65 64 65 63 62 61 62 58 54 57 62 62 65 65 66 67 68 68 66 68 70 69 72 74 74
96 99 96 93 93 93 89 89 89 92 94 92 92 90 86 85 85 81 75 76 75 75 73 73 66 67 72 71 72 72 71 70 69 69 70 72 70 74 75 73 73 68 69 72 72 71 69 70 73 73 74 75 77 80
101 100 100 99 98 100 99 95 94 98 97 97 98 99 95 92 91 91 88 77 80 79 75 70 71 75 78 83 84 84 83 81 77 74 75 74 72 82 86 85 88 88 80 77 78 78 79 78 77 78 78 77 81 83
116 112 111 113 108 110 108 102 105 105 103 106 104 103 103 102 98 97 96 94 90 85 85 82 80 82 85 88 87 88 87 90 91 88 84 78 75 92 96 91 92 92 92 90 90 88 85 85 85 85 86 86 88 88
123 120 116 112 112 110 110 108 108 109 107 108 110 110 103 103 102 100 102 99 93 85 84 90 93 92 96 95 96 97 95 96 94 95 98 94 89 104 102 98 95 97 97 97 96 94 93 91 90 91 92 93 91 91
124 130 127 122 116 112 111 112 111 115 118 115 114 110 106 106 107 106 92 92 93 92 98 106 108 108 110 114 112 106 106 105 103 102 102 99 106 110 107 109 110 109 105 106 104 100 98 96 96 95 93 95 95 98
126 128 131 129 120 123 125 122 122 123 120 121 122 119 114 112 113 108 112 106 110 113 116 119 120 122 123 126 121 122 118 114 111 109 110 115 120 116 115 118 118 118 120 117 111 103 99 99 97 97 95 98 100 96
134 132 134 135 128 131 132 130 127 129 129 128 129 125 120 117 112 114 112 119 121 127 125 127 127 121 118 120 124 127 126 125 122 121 123 130 129 126 126 125 122 126 128 114 107 103 102 101 96 95 95 92 88 85
142 142 139 140 137 138 138 139 138 139 137 136 133 129 117 116 118 125 128 131 132 128 129 127 122 121 119 121 124 122 122 119 121 127 134 136 131 131 131 129 118 108 101 106 104 101 98 98 95 90 86 87 81 78
146 144 142 143 145 146 144 145 147 145 144 143 139 129 127 131 130 128 129 129 134 136 133 126 122 122 124 127 127 129 124 120 124 130 130 127 119 118 114 108 99 99 100 95 93 92 89 89 87 84 81 83 76 74
133 131 142 147 150 153 156 157 154 154 157 149 137 137 136 144 145 144 138 148 141 134 135 133 127 126 125 122 117 121 124 128 132 129 119 113 108 104 97 98 97 95 88 85 84 84 80 78 79 81 81 78 72 73
131 132 133 137 139 143 151 147 147 145 139 132 134 139 142 142 142 139 140 133 127 127 129 127 118 116 112 110 113 113 114 116 116 111 104 102 99 95 93 86 85 80 76 79 80 73 71 70 66 71 73 75 70 68
124 125 128 132 136 140 140 142 139 134 128 127 126 128 128 128 128 132 123 124 123 122 123 117 113 100 103 107 103 102 101 98 94 92 91 91 89 85 82 79 74 73 70 70 70 71 68 65 63 64 63 63 62 63
111 113 115 121 127 130 130 127 125 120 114 111 114 116 110 108 110 110 108 107 112 117 108 99 92 94 97 96 97 89 87 87 84 80 79 79 78 79 78 74 68 67 65 62 59 62 64 60 59 61 62 62 58 60
105 104 106 111 116 115 113 112 111 104 102 101 100 100 98 97 99 97 98 97 104 93 87 84 85 84 88 88 88 84 79 80 75 73 68 69 79 73 67 66 65 62 59 59 58 59 55 53 58 59 57 58 59 59
99 101 103 105 106 105 103 97 94 89 88 86 82 83 88 91 88 87 93 94 89 86 83 79 79 83 84 81 79 78 74 72 68 65 66 69 67 67 64 62 58 55 55 58 57 53 51 53 55 57 56 55 54 55
95 97 99 100 101 97 92 83 85 83 82 76 77 79 85 85 85 88 80 75 74 75 80 79 77 79 77 74 72 70 69 63 57 61 67 62 57 60 58 59 56 51 54 57 52 48 50 51 53 53 52 51 50 52
89 93 94 92 87 83 78 79 82 80 80 80 82 81 77 83 84 76 67 65 68 74 74 75 74 71 69 66 64 64 66 57 53 61 60 51 52 56 54 57 51 48 47 47 45 46 49 50 51 52 51 49 50 53
83 83 79 76 72 72 71 73 75 78 78 87 81 69 74 79 72 66 56 68 74 68 67 67 67 65 61 63 62 59 58 53 55 54 52 43 47 51 52 50 50 48 43 43 46 46 47 48 51 50 49 51 52 52
70 64 62 60 61 65 68 71 74 82 80 75 70 71 70 66 59 53 69 69 64 61 61 63 62 58 60 59 58 55 53 52 51 51 46 45 48 48 48 47 46 47 41 44 48 47 44 44 47 47 48 49 50 49
55 52 56 59 61 65 67 70 75 70 65 65 65 63 61 55 50 66 63 61 60 59 57 58 57 55 50 48 47 48 50 48 44 42 44 46 45 44 45 42 43 42 38 41 43 43 43 43 42 42 44 45 43 41
49 54 56 62 61 61 62 64 63 61 63 63 59 52 47 45 54 59 55 54 54 54 55 52 49 46 44 44 47 50 49 42 39 40 43 44 43 43 42 43 41 38 36 37 40 40 39 39 38 38 39 38 37 35
46 51 53 53 54 52 50 56 58 60 58 50 43 42 41 41 50 49 51 52 51 50 49 48 47 44 45 46 46 44 41 39 39 40 40 41 39 40 40 40 36 36 35 36 38 37 35 34 34 33 33 34 33 32
44 43 42 46 43 40 51 50 46 44 36 33 33 35 36 44 49 46 45 46 45 44 43 44 45 43 42 42 41 37 34 34 36 38 38 38 38 39 38 35 34 34 34 33 32 30 29 29 29 29 28 28 29 31
30 29 32 34 34 42 42 39 36 33 29 29 28 29 38 41 39 41 45 45 41 39 40 43 39 35 35 36 34 32 31 31 35 36 37 38 35 35 35 32 31 28 26 25 27 27 27 25 25 24 24 26 27 27
23 24 25 31 33 31 31 29 28 26 26 28 34 37 39 39 47 47 42 37 37 37 34 29 29 30 27 30 34 36 33 32 33 34 35 34 33 32 29 28 26 22 22 23 23 22 24 24 24 24 23 22 23 26
20 17 15 16 18 15 10 13 18 25 29 34 36 34 38 47 47 32 34 34 30 27 23 24 26 26 28 30 30 30 32 30 29 31 31 29 27 25 23 22 23 23 23 22 22 20 19 22 22 22 22 22 24 26

GFSWCAN_250_spd_117.txt.gz
Wind_Speed
56 49 48 49 45 42 45 41 36 35 35 33 30 29 31 23 24 30 26 21 19 24 26 25 25 27 28 21 23 24 25 27 25 19 21 22 25 26 27 26 25 26 30 37 37 38 36 40 38 41 43 47 48 51
61 59 57 54 53 51 49 48 50 47 42 44 43 41 39 38 41 37 36 34 32 32 34 34 31 32 28 27 28 34 27 26 24 29 33 38 35 36 40 43 37 36 41 42 45 48 43 44 45 43 45 49 53 54
68 71 62 60 61 60 61 59 56 53 53 50 50 47 47 47 42 41 41 42 40 42 39 40 41 43 44 43 39 37 36 34 30 33 34 33 37 38 39 39 43 43 44 41 44 46 49 54 52 51 52 56 58 56
75 72 74 74 71 67 67 66 63 60 58 54 52 50 51 51 50 47 48 50 51 51 48 49 49 47 47 47 49 49 48 48 47 44 45 48 47 41 41 45 45 42 44 42 46 49 56 61 60 59 61 60 61 63
76 76 81 80 76 75 75 75 72 69 67 63 68 64 58 58 60 57 58 56 57 57 55 53 53 53 53 52 53 53 54 55 55 57 60 59 57 52 54 59 61 53 53 49 50 52 53 58 60 62 65 68 70 70
85 82 87 83 81 75 76 77 72 72 70 73 73 72 66 67 66 65 63 61 61 61 55 58 61 64 65 64 62 63 63 64 63 59 59 62 63 60 58 65 68 65 68 70 70 71 69 68 71 74 77 78 77 75
90 89 90 85 87 85 81 82 78 79 78 79 78 76 75 74 75 73 71 71 69 68 69 69 73 75 74 74 75 73 71 70 69 65 58 60 65 63 61 74 70 71 72 73 74 74 77 81 78 81 81 77 81 81
99 96 100 94 89 88 88 87 91 91 87 88 85 82 80 78 77 77 79 78 77 77 76 76 75 80 86 85 81 81 78 76 74 74 73 73 72 73 73 81 80 78 79 81 82 82 83 86 90 92 89 88 89 89
105 101 103 104 98 94 98 99 93 96 93 89 86 84 81 81 80 80 83 83 82 83 83 84 86 89 90 91 92 90 89 91 88 84 85 83 79 83 82 84 85 87 89 87 88 90 93 94 97 98 96 96 95 99
111 105 105 106 104 114 106 104 95 99 102 102 97 96 92 89 88 86 88 93 90 88 88 88 90 91 90 94 97 96 91 96 89 82 85 83 81 94 93 92 93 101 100 101 101 104 105 103 104 105 106 102 102 105
121 108 110 114 111 113 106 109 104 102 111 97 100 100 97 95 96 97 93 94 97 95 96 100 101 103 105 104 103 102 100 97 94 93 92 91 95 100 104 105 104 106 106 110 112 113 112 109 106 108 107 106 107 107
114 115 114 115 117 112 113 115 115 107 111 113 106 106 111 108 109 108 101 99 102 105 105 104 105 105 108 109 109 108 106 103 104 99 97 98 106 108 110 109 110 106 104 106 107 110 110 105 106 106 107 109 108 101
119 117 116 115 120 122 118 118 119 122 116 119 119 107 105 109 111 108 106 107 111 110 110 111 112 115 116 116 114 114 113 112 110 111 108 110 120 114 111 112 107 105 107 105 105 104 105 108 108 106 104 101 99 97
129 127 124 117 119 126 130 133 129 128 130 122 121 120 110 108 104 105 111 119 123 126 124 119 117 116 117 119 119 118 120 119 113 114 114 121 121 122 121 128 113 112 114 110 112 112 116 115 111 101 96 96 97 96
133 130 125 120 121 123 132 139 137 137 131 128 128 123 115 114 118 115 114 116 119 124 127 125 123 125 128 127 125 125 121 116 117 122 129 137 130 127 121 118 115 111 111 113 115 110 110 110 99 96 92 91 89 82
128 125 119 123 125 127 127 126 131 137 136 138 129 122 123 122 125 126 128 129 125 124 128 128 130 132 131 130 123 122 125 125 131 134 133 139 132 117 111 111 104 103 102 97 100 100 91 87 83 82 81 82 81 75
122 114 120 122 124 128 131 130 131 131 130 123 116 119 122 123 126 129 131 133 134 134 134 136 139 138 129 124 125 129 132 137 141 138 130 119 112 107 104 100 99 95 93 91 92 89 82 78 78 75 69 73 73 65
114 115 118 120 123 127 128 129 130 129 124 118 115 117 116 112 116 121 125 125 126 130 132 136 138 135 131 134 135 138 135 126 119 113 109 105 102 98 96 95 96 89 85 85 84 79 74 77 75 69 66 68 67 66
109 111 111 114 117 123 127 127 123 119 114 115 115 113 114 113 112 114 115 116 117 120 128 131 130 123 120 123 123 119 119 115 107 103 96 93 92 91 88 90 85 80 77 75 73 71 70 70 68 65 64 63 63 61
103 103 103 110 115 116 118 117 114 110 101 101 104 106 103 103 103 103 107 108 115 126 119 119 117 115 116 111 110 106 105 102 92 82 83 87 83 83 81 81 76 73 69 67 67 65 60 59 62 61 58 56 57 61
100 99 104 108 109 110 112 111 107 100 95 90 92 93 92 93 95 95 100 110 117 110 104 107 104 101 101 97 99 95 90 92 89 86 77 71 74 70 70 72 68 65 64 65 60 58 56 54 56 56 53 52 53 54
98 105 104 107 106 108 106 101 100 97 90 85 84 83 85 85 89 94 108 101 94 92 96 93 93 92 88 86 87 85 82 85 79 72 69 66 66 67 70 67 64 61 61 58 53 52 53 51 50 52 51 51 50 53
96 99 101 103 103 102 98 97 96 92 87 82 80 83 85 89 92 100 94 85 83 89 89 88 84 82 77 75 76 75 76 73 68 63 65 64 56 61 60 58 60 58 57 57 51 50 51 51 48 47 49 49 47 48
89 91 93 92 90 89 90 88 87 87 83 82 85 86 83 85 89 88 80 81 85 86 85 81 76 71 69 67 69 70 72 67 58 59 59 51 50 54 50 55 55 52 48 50 50 48 48 49 47 43 44 46 44 43
85 86 86 82 82 84 82 80 81 80 77 84 85 80 77 85 79 77 72 78 84 79 70 65 63 61 58 63 64 61 62 55 51 50 52 44 46 49 48 48 49 49 46 42 46 46 46 43 43 43 42 42 41 40
73 73 71 67 71 73 70 70 69 69 77 78 74 73 75 70 64 58 66 76 73 66 60 54 55 53 53 57 56 53 51 45 40 43 46 41 42 43 44 47 48 49 41 38 42 44 41 39 40 40 39 39 40 40
57 56 58 60 63 65 65 64 66 70 68 65 66 67 64 55 50 52 60 64 57 54 50 50 48 49 52 51 47 44 44 42 39 41 41 39 40 38 40 44 46 44 37 35 37 38 38 37 35 34 34 34 34 37
50 51 53 58 54 54 52 53 55 57 58 62 63 53 42 35 39 48 50 54 48 45 45 48 49 48 46 42 40 41 41 39 36 38 40 39 36 36 37 42 43 37 34 32 33 34 35 34 32 30 30 30 30 31
43 45 42 40 39 37 35 40 44 47 52 48 35 29 31 32 41 51 53 45 40 40 45 44 41 39 38 38 37 36 35 34 35 37 37 39 38 34 35 39 35 32 31 31 30 29 29 30 27 25 24 24 26 27
35 30 31 33 32 34 42 45 43 42 35 26 23 24 32 45 49 43 45 44 41 39 38 39 37 35 35 35 33 31 29 27 28 33 39 40 34 30 31 34 31 28 29 27 26 26 27 23 19 21 23 24 25 26
31 31 33 35 37 43 41 33 31 27 21 21 25 34 48 46 45 49 48 44 38 35 34 33 30 30 31 29 28 30 33 33 34 37 37 32 29 27 27 28 26 25 25 24 25 24 22 20 22 23 24 24 24 22
29 30 30 33 35 32 28 24 23 26 28 29 32 38 46 47 49 40 36 34 34 31 29 28 30 28 28 30 30 32 30 29 33 33 32 29 27 26 24 22 22 22 22 24 23 21 21 23 24 23 22 22 21 22
26 27 28 28 25 19 19 28 33 36 36 35 34 37 36 34 37 26 23 29 27 23 23 25 26 28 31 33 33 32 30 29 30 29 27 26 23 21 20 21 21 20 21 23 22 23 24 24 21 20 21 21 22 24

GFSWCAN_250_spd_120.txt.gz
Wind_Speed
59 54 52 51 45 46 43 40 39 33 31 34 32 33 33 35 30 30 32 29 31 27 26 28 29 27 31 28 25 30 30 29 27 26 24 28 34 29 31 32 29 29 31 36 39 36 33 39 38 40 43 44 44 47
65 61 59 60 54 54 48 47 45 46 42 41 39 38 41 45 42 40 39 36 36 38 38 37 38 37 38 39 42 42 39 38 37 37 39 39 34 39 42 45 46 42 29 37 41 38 37 43 49 50 53 55 55 56
69 67 60 66 61 57 58 56 52 53 49 45 48 50 48 48 48 48 40 39 42 42 40 43 43 45 48 50 48 49 45 44 42 42 46 48 49 50 53 55 56 51 49 46 47 55 52 57 56 57 58 58 59 60
77 74 72 69 73 67 63 64 60 59 63 61 57 57 57 54 56 55 52 48 47 47 46 47 52 52 51 51 52 52 50 48 46 47 51 54 56 56 60 62 64 60 56 54 56 58 55 61 64 66 68 68 69 72
81 78 77 77 75 78 77 74 72 70 69 65 66 63 62 60 62 62 62 58 55 57 55 53 53 58 58 56 53 52 53 54 58 58 56 57 60 58 57 62 71 67 63 63 61 64 62 66 68 68 70 73 75 77
90 87 89 84 84 83 82 79 81 75 71 70 74 68 65 66 67 67 68 67 63 60 62 64 63 65 64 64 64 66 65 66 66 64 64 64 66 64 61 63 77 72 73 74 75 77 73 72 72 75 75 79 84 89
98 91 90 89 88 88 87 87 84 76 76 76 77 80 72 68 66 68 72 73 72 66 67 67 72 76 76 72 70 70 70 71 71 69 70 73 76 77 73 76 78 82 81 77 78 77 76 77 75 80 83 88 93 96
101 99 95 94 93 90 91 87 88 80 80 80 79 79 82 76 77 78 72 70 75 79 74 72 76 80 80 80 80 77 75 74 73 73 76 80 82 81 79 78 79 81 85 82 82 82 81 82 87 92 94 99 94 95
110 107 101 96 96 96 94 92 94 92 90 85 88 89 88 86 81 82 78 78 79 86 87 79 81 79 79 80 82 85 86 85 81 82 84 82 83 91 91 93 94 89 86 86 94 96 97 93 96 95 98 97 102 102
109 108 101 103 100 101 103 101 98 92 98 98 89 86 87 89 87 89 88 86 91 90 89 90 91 91 93 93 93 91 87 85 86 90 93 93 96 98 96 95 96 93 94 93 93 97 101 105 102 100 105 106 103 109
113 114 109 106 108 108 106 111 108 105 106 104 100 95 92 95 94 93 92 94 96 97 96 93 95 96 97 98 99 99 100 101 101 100 100 100 104 103 100 100 102 101 102 102 100 102 101 102 102 106 108 107 112 111
121 118 118 114 113 113 111 112 113 112 112 112 108 107 101 97 90 93 96 97 101 103 106 104 104 105 106 106 106 106 108 108 104 101 100 101 107 104 106 107 106 108 110 111 111 112 110 106 105 107 111 112 112 109
129 129 131 128 124 121 117 115 115 117 115 111 110 111 111 110 103 97 99 106 108 109 110 113 112 108 109 114 112 108 108 106 104 101 100 110 114 110 110 108 106 113 117 118 118 118 119 119 117 117 116 116 119 108
120 125 127 124 123 124 123 123 125 125 123 121 120 123 115 104 101 106 107 107 113 117 114 115 113 116 113 112 112 119 116 108 108 108 113 120 115 115 115 116 118 120 119 118 120 121 123 126 124 120 116 110 108 101
119 121 119 114 116 120 123 125 123 121 119 115 112 106 102 104 103 102 106 111 111 116 121 124 126 127 126 124 116 116 115 110 111 116 123 124 117 116 117 120 121 119 119 117 120 120 126 126 116 110 107 101 94 89
121 119 117 122 121 126 129 128 125 123 115 111 103 93 97 101 102 103 107 114 115 114 117 121 126 129 126 122 117 121 123 120 127 124 121 122 122 121 121 119 119 119 116 115 116 116 114 111 108 99 92 89 86 79
122 114 124 127 131 132 134 128 125 123 112 101 95 95 96 99 104 106 107 109 114 117 120 124 126 123 118 114 115 121 126 123 118 115 112 112 113 113 115 112 111 109 109 106 103 104 102 102 94 87 79 81 77 71
112 118 121 122 124 124 123 124 119 113 100 95 95 103 101 100 101 102 106 112 114 116 119 124 123 119 117 117 120 122 115 111 109 107 106 106 106 108 106 104 103 101 103 101 98 96 91 85 80 77 74 71 67 67
111 113 114 115 117 117 119 120 114 104 96 97 95 98 98 98 103 106 108 109 110 114 120 116 115 112 115 118 116 111 107 104 101 98 97 98 102 100 99 100 97 94 93 91 89 85 81 76 74 72 67 62 59 60
105 105 107 110 113 112 113 108 105 101 93 85 88 91 92 93 99 98 101 107 110 117 106 109 112 112 111 108 103 99 94 92 92 86 82 87 89 87 86 86 83 83 81 82 80 74 70 68 71 65 60 57 55 57
98 102 105 107 109 107 105 101 99 95 92 87 85 84 84 85 88 93 96 107 110 100 100 102 103 102 100 92 86 84 81 79 74 74 67 66 73 76 75 79 82 77 71 70 67 66 66 62 63 62 56 55 51 51
97 101 100 103 103 102 98 93 96 96 94 87 85 82 81 83 87 91 102 105 98 95 95 95 98 92 86 83 79 74 71 74 70 64 60 61 62 62 66 71 68 64 62 63 60 56 60 59 57 54 54 52 49 48
98 99 98 100 99 94 88 95 94 92 93 90 86 81 81 86 92 101 102 89 86 89 90 94 89 84 78 74 73 72 73 71 66 65 64 62 56 56 60 63 62 55 56 57 51 50 51 54 50 49 47 46 47 45
92 92 92 91 89 85 86 90 91 89 89 86 84 80 77 85 93 95 79 78 83 84 87 88 81 72 69 69 69 68 71 72 66 63 61 56 55 56 52 57 57 53 52 51 48 46 47 47 45 42 42 42 41 39
79 78 77 76 78 79 79 82 83 81 79 80 80 76 77 81 80 72 67 78 74 78 80 73 67 61 58 59 63 64 69 64 56 55 55 51 50 52 51 48 51 50 42 40 45 43 45 42 39 40 38 36 36 35
66 66 65 68 71 71 70 71 73 74 73 70 67 68 72 70 59 58 69 69 69 70 65 57 53 55 54 52 56 61 62 54 49 49 48 48 44 49 47 45 47 44 37 40 40 40 42 38 37 36 33 31 32 32
56 57 60 63 64 63 62 62 62 61 59 58 59 60 59 55 49 58 58 54 56 57 51 49 51 50 49 53 54 56 55 49 45 44 44 47 42 41 43 44 43 39 35 36 36 38 36 34 33 30 28 27 27 28
48 49 52 54 52 53 51 51 50 50 50 54 54 51 50 45 37 44 47 50 56 56 47 49 50 48 46 52 51 48 44 41 40 40 45 44 39 41 41 42 39 35 34 30 30 31 32 32 29 27 25 25 26 26
45 45 43 45 45 43 44 47 48 48 50 48 45 43 40 40 43 52 59 59 54 46 48 50 46 40 42 44 42 38 37 37 40 41 47 44 40 36 37 37 34 33 31 27 27 27 29 29 27 24 23 24 24 24
40 37 40 41 37 39 44 41 43 44 43 43 43 41 42 49 56 57 53 52 50 49 44 38 38 38 39 37 37 34 36 39 42 43 42 38 32 30 34 33 33 30 27 26 26 26 26 24 24 24 22 22 25 26
35 35 34 33 37 39 37 32 35 38 39 40 39 41 48 49 49 50 51 52 45 38 35 36 37 34 31 33 34 35 35 37 43 42 37 33 30 30 30 30 30 27 26 25 24 23 22 22 23 22 21 23 26 27
29 28 29 31 31 29 29 31 32 34 34 35 37 39 41 41 45 46 39 34 32 31 28 25 25 26 25 33 38 37 33 37 41 37 34 31 27 26 28 29 26 24 23 24 24 21 20 23 23 22 23 25 27 26
25 24 25 27 27 26 26 28 25 27 29 31 33 36 40 41 36 24 16 15 23 21 18 19 27 30 32 39 37 34 35 37 37 35 31 28 26 25 25 25 24 23 25 26 22 20 22 23 22 23 24 24 24 24